<?xml version="1.0" encoding="UTF-8" standalone="no" ?>
<gpx xmlns="http://www.topografix.com/GPX/1/1" xmlns:xsi="http://www.w3.org/2001/XMLSchema-instance" xsi:schemaLocation="http://www.topografix.com/GPX/1/1 http://www.topografix.com/GPX/1/1/gpx.xsd" version="1.1" creator="VisuGPX - https://www.visugpx.com">
  <metadata>
    <name>St Victor</name>
    <desc><![CDATA[St Victor
 en ardéche]]></desc>
  </metadata>
  <trk>
    <name><![CDATA[St Victor]]></name>
    <cmt><![CDATA[Patrick, Bernard, Gilbert]]></cmt>
    <trkseg>
      <trkpt lat="45.11575" lon="4.96425">
        <ele>152.30499267578</ele>
        <time>2010-03-17T12:17:37Z</time>
      </trkpt>
      <trkpt lat="45.11575" lon="4.96425">
        <ele>152.30499267578</ele>
        <time>2010-03-17T12:17:38Z</time>
      </trkpt>
      <trkpt lat="45.11573" lon="4.9642">
        <ele>152.17700195312</ele>
        <time>2010-03-17T12:18:17Z</time>
      </trkpt>
      <trkpt lat="45.11571" lon="4.96423">
        <ele>152.09800720215</ele>
        <time>2010-03-17T12:18:25Z</time>
      </trkpt>
      <trkpt lat="45.11571" lon="4.96423">
        <ele>152.00199890137</ele>
        <time>2010-03-17T12:18:26Z</time>
      </trkpt>
      <trkpt lat="45.11566" lon="4.96428">
        <ele>152.13299560547</ele>
        <time>2010-03-17T12:18:31Z</time>
      </trkpt>
      <trkpt lat="45.11564" lon="4.96431">
        <ele>151.85000610352</ele>
        <time>2010-03-17T12:18:32Z</time>
      </trkpt>
      <trkpt lat="45.11566" lon="4.96447">
        <ele>151.54100036621</ele>
        <time>2010-03-17T12:18:36Z</time>
      </trkpt>
      <trkpt lat="45.11568" lon="4.9645">
        <ele>151.38999938965</ele>
        <time>2010-03-17T12:18:37Z</time>
      </trkpt>
      <trkpt lat="45.11576" lon="4.96449">
        <ele>151.90100097656</ele>
        <time>2010-03-17T12:18:41Z</time>
      </trkpt>
      <trkpt lat="45.11579" lon="4.96448">
        <ele>152.36000061035</ele>
        <time>2010-03-17T12:18:44Z</time>
      </trkpt>
      <trkpt lat="45.11581" lon="4.96449">
        <ele>152.37600708008</ele>
        <time>2010-03-17T12:18:46Z</time>
      </trkpt>
      <trkpt lat="45.11583" lon="4.96459">
        <ele>152.46699523926</ele>
        <time>2010-03-17T12:18:50Z</time>
      </trkpt>
      <trkpt lat="45.11582" lon="4.96473">
        <ele>151.78399658203</ele>
        <time>2010-03-17T12:18:53Z</time>
      </trkpt>
      <trkpt lat="45.11581" lon="4.96502">
        <ele>151.21600341797</ele>
        <time>2010-03-17T12:18:58Z</time>
      </trkpt>
      <trkpt lat="45.11589" lon="4.96529">
        <ele>151.49200439453</ele>
        <time>2010-03-17T12:19:02Z</time>
      </trkpt>
      <trkpt lat="45.11611" lon="4.96589">
        <ele>151.6609954834</ele>
        <time>2010-03-17T12:19:10Z</time>
      </trkpt>
      <trkpt lat="45.11632" lon="4.96643">
        <ele>151.19799804688</ele>
        <time>2010-03-17T12:19:17Z</time>
      </trkpt>
      <trkpt lat="45.11656" lon="4.96705">
        <ele>152.17399597168</ele>
        <time>2010-03-17T12:19:25Z</time>
      </trkpt>
      <trkpt lat="45.1168" lon="4.96754">
        <ele>152.96899414062</ele>
        <time>2010-03-17T12:19:32Z</time>
      </trkpt>
      <trkpt lat="45.1172" lon="4.96819">
        <ele>154.00100708008</ele>
        <time>2010-03-17T12:19:42Z</time>
      </trkpt>
      <trkpt lat="45.11724" lon="4.96826">
        <ele>153.98300170898</ele>
        <time>2010-03-17T12:19:43Z</time>
      </trkpt>
      <trkpt lat="45.11738" lon="4.96866">
        <ele>153.69700622559</ele>
        <time>2010-03-17T12:19:48Z</time>
      </trkpt>
      <trkpt lat="45.11748" lon="4.96877">
        <ele>153.97999572754</ele>
        <time>2010-03-17T12:19:50Z</time>
      </trkpt>
      <trkpt lat="45.11777" lon="4.96911">
        <ele>154</ele>
        <time>2010-03-17T12:19:56Z</time>
      </trkpt>
      <trkpt lat="45.11817" lon="4.96973">
        <ele>154.40199279785</ele>
        <time>2010-03-17T12:20:05Z</time>
      </trkpt>
      <trkpt lat="45.11863" lon="4.97036">
        <ele>155.40400695801</ele>
        <time>2010-03-17T12:20:15Z</time>
      </trkpt>
      <trkpt lat="45.11872" lon="4.97048">
        <ele>155.39500427246</ele>
        <time>2010-03-17T12:20:17Z</time>
      </trkpt>
      <trkpt lat="45.11881" lon="4.97079">
        <ele>155.00300598144</ele>
        <time>2010-03-17T12:20:21Z</time>
      </trkpt>
      <trkpt lat="45.1188" lon="4.97108">
        <ele>154.5950012207</ele>
        <time>2010-03-17T12:20:24Z</time>
      </trkpt>
      <trkpt lat="45.11876" lon="4.97127">
        <ele>154.22300720215</ele>
        <time>2010-03-17T12:20:26Z</time>
      </trkpt>
      <trkpt lat="45.11876" lon="4.97169">
        <ele>154.33599853516</ele>
        <time>2010-03-17T12:20:30Z</time>
      </trkpt>
      <trkpt lat="45.11889" lon="4.97248">
        <ele>153.40100097656</ele>
        <time>2010-03-17T12:20:37Z</time>
      </trkpt>
      <trkpt lat="45.11907" lon="4.97356">
        <ele>153.55200195312</ele>
        <time>2010-03-17T12:20:46Z</time>
      </trkpt>
      <trkpt lat="45.11923" lon="4.97446">
        <ele>154.01300048828</ele>
        <time>2010-03-17T12:20:54Z</time>
      </trkpt>
      <trkpt lat="45.11938" lon="4.9753">
        <ele>154.96000671387</ele>
        <time>2010-03-17T12:21:02Z</time>
      </trkpt>
      <trkpt lat="45.11947" lon="4.97582">
        <ele>155.93099975586</ele>
        <time>2010-03-17T12:21:07Z</time>
      </trkpt>
      <trkpt lat="45.11956" lon="4.97635">
        <ele>156.95199584961</ele>
        <time>2010-03-17T12:21:12Z</time>
      </trkpt>
      <trkpt lat="45.11972" lon="4.97724">
        <ele>156.50799560547</ele>
        <time>2010-03-17T12:21:20Z</time>
      </trkpt>
      <trkpt lat="45.11993" lon="4.97841">
        <ele>158.59700012207</ele>
        <time>2010-03-17T12:21:31Z</time>
      </trkpt>
      <trkpt lat="45.12012" lon="4.97944">
        <ele>159.75799560547</ele>
        <time>2010-03-17T12:21:41Z</time>
      </trkpt>
      <trkpt lat="45.12036" lon="4.9803">
        <ele>160.69000244141</ele>
        <time>2010-03-17T12:21:50Z</time>
      </trkpt>
      <trkpt lat="45.12058" lon="4.9812">
        <ele>161.77400207519</ele>
        <time>2010-03-17T12:22:00Z</time>
      </trkpt>
      <trkpt lat="45.12067" lon="4.98194">
        <ele>162.01300048828</ele>
        <time>2010-03-17T12:22:08Z</time>
      </trkpt>
      <trkpt lat="45.12067" lon="4.9826">
        <ele>163.03100585938</ele>
        <time>2010-03-17T12:22:15Z</time>
      </trkpt>
      <trkpt lat="45.12067" lon="4.9827">
        <ele>162.97599792481</ele>
        <time>2010-03-17T12:22:16Z</time>
      </trkpt>
      <trkpt lat="45.12064" lon="4.98299">
        <ele>162.84700012207</ele>
        <time>2010-03-17T12:22:19Z</time>
      </trkpt>
      <trkpt lat="45.12051" lon="4.98361">
        <ele>164.47200012207</ele>
        <time>2010-03-17T12:22:26Z</time>
      </trkpt>
      <trkpt lat="45.12043" lon="4.98385">
        <ele>164.94400024414</ele>
        <time>2010-03-17T12:22:29Z</time>
      </trkpt>
      <trkpt lat="45.1203" lon="4.98405">
        <ele>165.00300598144</ele>
        <time>2010-03-17T12:22:33Z</time>
      </trkpt>
      <trkpt lat="45.12022" lon="4.98404">
        <ele>164.5119934082</ele>
        <time>2010-03-17T12:22:35Z</time>
      </trkpt>
      <trkpt lat="45.11998" lon="4.98394">
        <ele>163.16400146484</ele>
        <time>2010-03-17T12:22:40Z</time>
      </trkpt>
      <trkpt lat="45.11979" lon="4.98396">
        <ele>162.64399719238</ele>
        <time>2010-03-17T12:22:44Z</time>
      </trkpt>
      <trkpt lat="45.11969" lon="4.98411">
        <ele>164.06300354004</ele>
        <time>2010-03-17T12:22:48Z</time>
      </trkpt>
      <trkpt lat="45.1196" lon="4.98416">
        <ele>164.24299621582</ele>
        <time>2010-03-17T12:22:51Z</time>
      </trkpt>
      <trkpt lat="45.11959" lon="4.98419">
        <ele>165.60299682617</ele>
        <time>2010-03-17T12:22:55Z</time>
      </trkpt>
      <trkpt lat="45.11963" lon="4.98424">
        <ele>165.41799926758</ele>
        <time>2010-03-17T12:23:10Z</time>
      </trkpt>
      <trkpt lat="45.11967" lon="4.98423">
        <ele>165.17300415039</ele>
        <time>2010-03-17T12:23:12Z</time>
      </trkpt>
      <trkpt lat="45.1197" lon="4.98416">
        <ele>164.84800720215</ele>
        <time>2010-03-17T12:23:14Z</time>
      </trkpt>
      <trkpt lat="45.11981" lon="4.98395">
        <ele>165.22300720215</ele>
        <time>2010-03-17T12:23:18Z</time>
      </trkpt>
      <trkpt lat="45.11998" lon="4.98396">
        <ele>165.32099914551</ele>
        <time>2010-03-17T12:23:21Z</time>
      </trkpt>
      <trkpt lat="45.1202" lon="4.98407">
        <ele>166.21899414062</ele>
        <time>2010-03-17T12:23:25Z</time>
      </trkpt>
      <trkpt lat="45.1203" lon="4.98415">
        <ele>166.88800048828</ele>
        <time>2010-03-17T12:23:29Z</time>
      </trkpt>
      <trkpt lat="45.12043" lon="4.98433">
        <ele>167.29299926758</ele>
        <time>2010-03-17T12:23:33Z</time>
      </trkpt>
      <trkpt lat="45.12058" lon="4.98423">
        <ele>167.17500305176</ele>
        <time>2010-03-17T12:23:36Z</time>
      </trkpt>
      <trkpt lat="45.12073" lon="4.98413">
        <ele>166.90600585938</ele>
        <time>2010-03-17T12:23:39Z</time>
      </trkpt>
      <trkpt lat="45.12086" lon="4.98411">
        <ele>167.19799804688</ele>
        <time>2010-03-17T12:23:42Z</time>
      </trkpt>
      <trkpt lat="45.12097" lon="4.98417">
        <ele>167.50799560547</ele>
        <time>2010-03-17T12:23:48Z</time>
      </trkpt>
      <trkpt lat="45.12099" lon="4.98417">
        <ele>168.52200317383</ele>
        <time>2010-03-17T12:23:51Z</time>
      </trkpt>
      <trkpt lat="45.12089" lon="4.98414">
        <ele>167.50799560547</ele>
        <time>2010-03-17T12:24:10Z</time>
      </trkpt>
      <trkpt lat="45.12089" lon="4.98414">
        <ele>167.60899353027</ele>
        <time>2010-03-17T12:24:11Z</time>
      </trkpt>
      <trkpt lat="45.12085" lon="4.98405">
        <ele>182.46499633789</ele>
        <time>2010-03-17T12:35:05Z</time>
      </trkpt>
      <trkpt lat="45.12073" lon="4.98402">
        <ele>182.25799560547</ele>
        <time>2010-03-17T12:35:10Z</time>
      </trkpt>
      <trkpt lat="45.12054" lon="4.98394">
        <ele>182.19299316406</ele>
        <time>2010-03-17T12:35:16Z</time>
      </trkpt>
      <trkpt lat="45.12051" lon="4.98385">
        <ele>181.71099853516</ele>
        <time>2010-03-17T12:35:18Z</time>
      </trkpt>
      <trkpt lat="45.12053" lon="4.9836">
        <ele>182.37699890137</ele>
        <time>2010-03-17T12:35:22Z</time>
      </trkpt>
      <trkpt lat="45.12065" lon="4.98296">
        <ele>180.56300354004</ele>
        <time>2010-03-17T12:35:31Z</time>
      </trkpt>
      <trkpt lat="45.12068" lon="4.98267">
        <ele>181.08299255371</ele>
        <time>2010-03-17T12:35:35Z</time>
      </trkpt>
      <trkpt lat="45.12069" lon="4.98259">
        <ele>181.13900756836</ele>
        <time>2010-03-17T12:35:36Z</time>
      </trkpt>
      <trkpt lat="45.1207" lon="4.98245">
        <ele>181.64300537109</ele>
        <time>2010-03-17T12:35:38Z</time>
      </trkpt>
      <trkpt lat="45.1207" lon="4.98238">
        <ele>181.19500732422</ele>
        <time>2010-03-17T12:35:39Z</time>
      </trkpt>
      <trkpt lat="45.12071" lon="4.98209">
        <ele>180.86999511719</ele>
        <time>2010-03-17T12:35:43Z</time>
      </trkpt>
      <trkpt lat="45.12067" lon="4.98147">
        <ele>180.84700012207</ele>
        <time>2010-03-17T12:35:52Z</time>
      </trkpt>
      <trkpt lat="45.12054" lon="4.98079">
        <ele>179.81399536133</ele>
        <time>2010-03-17T12:36:01Z</time>
      </trkpt>
      <trkpt lat="45.12037" lon="4.98013">
        <ele>180.05400085449</ele>
        <time>2010-03-17T12:36:10Z</time>
      </trkpt>
      <trkpt lat="45.12022" lon="4.9796">
        <ele>178.49899291992</ele>
        <time>2010-03-17T12:36:17Z</time>
      </trkpt>
      <trkpt lat="45.12013" lon="4.97919">
        <ele>178.03300476074</ele>
        <time>2010-03-17T12:36:22Z</time>
      </trkpt>
      <trkpt lat="45.12001" lon="4.97854">
        <ele>177.03300476074</ele>
        <time>2010-03-17T12:36:30Z</time>
      </trkpt>
      <trkpt lat="45.11983" lon="4.97749">
        <ele>177.66299438477</ele>
        <time>2010-03-17T12:36:43Z</time>
      </trkpt>
      <trkpt lat="45.11968" lon="4.97659">
        <ele>177.73699951172</ele>
        <time>2010-03-17T12:36:54Z</time>
      </trkpt>
      <trkpt lat="45.1196" lon="4.97612">
        <ele>177.04600524902</ele>
        <time>2010-03-17T12:37:00Z</time>
      </trkpt>
      <trkpt lat="45.11958" lon="4.97596">
        <ele>176.62699890137</ele>
        <time>2010-03-17T12:37:02Z</time>
      </trkpt>
      <trkpt lat="45.11954" lon="4.97573">
        <ele>176.94999694824</ele>
        <time>2010-03-17T12:37:05Z</time>
      </trkpt>
      <trkpt lat="45.11939" lon="4.97492">
        <ele>176.55000305176</ele>
        <time>2010-03-17T12:37:15Z</time>
      </trkpt>
      <trkpt lat="45.11924" lon="4.97403">
        <ele>175.64399719238</ele>
        <time>2010-03-17T12:37:25Z</time>
      </trkpt>
      <trkpt lat="45.11912" lon="4.97334">
        <ele>174.53300476074</ele>
        <time>2010-03-17T12:37:33Z</time>
      </trkpt>
      <trkpt lat="45.11898" lon="4.97256">
        <ele>173.83599853516</ele>
        <time>2010-03-17T12:37:43Z</time>
      </trkpt>
      <trkpt lat="45.11893" lon="4.97225">
        <ele>175.2799987793</ele>
        <time>2010-03-17T12:37:47Z</time>
      </trkpt>
      <trkpt lat="45.11882" lon="4.97156">
        <ele>176.55099487305</ele>
        <time>2010-03-17T12:37:56Z</time>
      </trkpt>
      <trkpt lat="45.11881" lon="4.97149">
        <ele>176.55099487305</ele>
        <time>2010-03-17T12:37:57Z</time>
      </trkpt>
      <trkpt lat="45.11886" lon="4.97105">
        <ele>177.71099853516</ele>
        <time>2010-03-17T12:38:03Z</time>
      </trkpt>
      <trkpt lat="45.11893" lon="4.97095">
        <ele>178.18899536133</ele>
        <time>2010-03-17T12:38:05Z</time>
      </trkpt>
      <trkpt lat="45.11904" lon="4.97068">
        <ele>178.24800109863</ele>
        <time>2010-03-17T12:38:10Z</time>
      </trkpt>
      <trkpt lat="45.119" lon="4.97057">
        <ele>177.2440032959</ele>
        <time>2010-03-17T12:38:12Z</time>
      </trkpt>
      <trkpt lat="45.11884" lon="4.97047">
        <ele>178.44999694824</ele>
        <time>2010-03-17T12:38:16Z</time>
      </trkpt>
      <trkpt lat="45.11881" lon="4.97043">
        <ele>179.03700256348</ele>
        <time>2010-03-17T12:38:17Z</time>
      </trkpt>
      <trkpt lat="45.11844" lon="4.96998">
        <ele>179.12899780273</ele>
        <time>2010-03-17T12:38:28Z</time>
      </trkpt>
      <trkpt lat="45.11828" lon="4.96977">
        <ele>178.42599487305</ele>
        <time>2010-03-17T12:38:33Z</time>
      </trkpt>
      <trkpt lat="45.11813" lon="4.96954">
        <ele>177.40299987793</ele>
        <time>2010-03-17T12:38:38Z</time>
      </trkpt>
      <trkpt lat="45.11801" lon="4.96937">
        <ele>177.78900146484</ele>
        <time>2010-03-17T12:38:42Z</time>
      </trkpt>
      <trkpt lat="45.11773" lon="4.96894">
        <ele>177.5950012207</ele>
        <time>2010-03-17T12:38:51Z</time>
      </trkpt>
      <trkpt lat="45.11767" lon="4.96883">
        <ele>176.86500549316</ele>
        <time>2010-03-17T12:38:53Z</time>
      </trkpt>
      <trkpt lat="45.11763" lon="4.96856">
        <ele>177.9109954834</ele>
        <time>2010-03-17T12:38:57Z</time>
      </trkpt>
      <trkpt lat="45.11754" lon="4.96826">
        <ele>178.03399658203</ele>
        <time>2010-03-17T12:39:02Z</time>
      </trkpt>
      <trkpt lat="45.11745" lon="4.96821">
        <ele>178.23199462891</ele>
        <time>2010-03-17T12:39:04Z</time>
      </trkpt>
      <trkpt lat="45.11726" lon="4.9681">
        <ele>177.40199279785</ele>
        <time>2010-03-17T12:39:08Z</time>
      </trkpt>
      <trkpt lat="45.11718" lon="4.96801">
        <ele>177.44400024414</ele>
        <time>2010-03-17T12:39:10Z</time>
      </trkpt>
      <trkpt lat="45.11683" lon="4.96745">
        <ele>177.24200439453</ele>
        <time>2010-03-17T12:39:20Z</time>
      </trkpt>
      <trkpt lat="45.11656" lon="4.9669">
        <ele>176.81799316406</ele>
        <time>2010-03-17T12:39:29Z</time>
      </trkpt>
      <trkpt lat="45.11641" lon="4.96654">
        <ele>176.64300537109</ele>
        <time>2010-03-17T12:39:35Z</time>
      </trkpt>
      <trkpt lat="45.11623" lon="4.96606">
        <ele>175.65899658203</ele>
        <time>2010-03-17T12:39:43Z</time>
      </trkpt>
      <trkpt lat="45.1161" lon="4.96571">
        <ele>177.32899475098</ele>
        <time>2010-03-17T12:39:49Z</time>
      </trkpt>
      <trkpt lat="45.11591" lon="4.96522">
        <ele>175.87300109863</ele>
        <time>2010-03-17T12:39:57Z</time>
      </trkpt>
      <trkpt lat="45.11565" lon="4.96469">
        <ele>176.25900268555</ele>
        <time>2010-03-17T12:40:07Z</time>
      </trkpt>
      <trkpt lat="45.11537" lon="4.96424">
        <ele>177.43699645996</ele>
        <time>2010-03-17T12:40:16Z</time>
      </trkpt>
      <trkpt lat="45.11518" lon="4.96393">
        <ele>177.67100524902</ele>
        <time>2010-03-17T12:40:22Z</time>
      </trkpt>
      <trkpt lat="45.11485" lon="4.96344">
        <ele>178.87600708008</ele>
        <time>2010-03-17T12:40:32Z</time>
      </trkpt>
      <trkpt lat="45.1146" lon="4.96304">
        <ele>178.7859954834</ele>
        <time>2010-03-17T12:40:40Z</time>
      </trkpt>
      <trkpt lat="45.11435" lon="4.96263">
        <ele>179.57200622559</ele>
        <time>2010-03-17T12:40:48Z</time>
      </trkpt>
      <trkpt lat="45.11403" lon="4.96199">
        <ele>179.22999572754</ele>
        <time>2010-03-17T12:40:59Z</time>
      </trkpt>
      <trkpt lat="45.11373" lon="4.96137">
        <ele>179.48500061035</ele>
        <time>2010-03-17T12:41:09Z</time>
      </trkpt>
      <trkpt lat="45.11336" lon="4.96067">
        <ele>179.28799438477</ele>
        <time>2010-03-17T12:41:20Z</time>
      </trkpt>
      <trkpt lat="45.11301" lon="4.96013">
        <ele>177.82699584961</ele>
        <time>2010-03-17T12:41:29Z</time>
      </trkpt>
      <trkpt lat="45.1126" lon="4.95943">
        <ele>178.59300231934</ele>
        <time>2010-03-17T12:41:40Z</time>
      </trkpt>
      <trkpt lat="45.11222" lon="4.95885">
        <ele>176.83399963379</ele>
        <time>2010-03-17T12:41:49Z</time>
      </trkpt>
      <trkpt lat="45.11179" lon="4.95822">
        <ele>177.37899780273</ele>
        <time>2010-03-17T12:41:59Z</time>
      </trkpt>
      <trkpt lat="45.11154" lon="4.95783">
        <ele>177.90100097656</ele>
        <time>2010-03-17T12:42:05Z</time>
      </trkpt>
      <trkpt lat="45.11132" lon="4.95742">
        <ele>177.26499938965</ele>
        <time>2010-03-17T12:42:11Z</time>
      </trkpt>
      <trkpt lat="45.11105" lon="4.95691">
        <ele>178.54800415039</ele>
        <time>2010-03-17T12:42:19Z</time>
      </trkpt>
      <trkpt lat="45.11089" lon="4.95671">
        <ele>177.30400085449</ele>
        <time>2010-03-17T12:42:23Z</time>
      </trkpt>
      <trkpt lat="45.11067" lon="4.9565">
        <ele>177.23899841309</ele>
        <time>2010-03-17T12:42:28Z</time>
      </trkpt>
      <trkpt lat="45.1105" lon="4.95633">
        <ele>178.13299560547</ele>
        <time>2010-03-17T12:42:32Z</time>
      </trkpt>
      <trkpt lat="45.11029" lon="4.95611">
        <ele>177.1549987793</ele>
        <time>2010-03-17T12:42:37Z</time>
      </trkpt>
      <trkpt lat="45.10998" lon="4.95568">
        <ele>177.32299804688</ele>
        <time>2010-03-17T12:42:45Z</time>
      </trkpt>
      <trkpt lat="45.10974" lon="4.9552">
        <ele>175.85299682617</ele>
        <time>2010-03-17T12:42:52Z</time>
      </trkpt>
      <trkpt lat="45.10953" lon="4.95457">
        <ele>175.01400756836</ele>
        <time>2010-03-17T12:43:00Z</time>
      </trkpt>
      <trkpt lat="45.10932" lon="4.95369">
        <ele>175.47500610352</ele>
        <time>2010-03-17T12:43:10Z</time>
      </trkpt>
      <trkpt lat="45.10909" lon="4.95297">
        <ele>175.31799316406</ele>
        <time>2010-03-17T12:43:19Z</time>
      </trkpt>
      <trkpt lat="45.10885" lon="4.9523">
        <ele>176.65699768066</ele>
        <time>2010-03-17T12:43:28Z</time>
      </trkpt>
      <trkpt lat="45.10866" lon="4.95172">
        <ele>178.50799560547</ele>
        <time>2010-03-17T12:43:37Z</time>
      </trkpt>
      <trkpt lat="45.10859" lon="4.95147">
        <ele>180.30499267578</ele>
        <time>2010-03-17T12:43:41Z</time>
      </trkpt>
      <trkpt lat="45.1085" lon="4.95098">
        <ele>183.45300292969</ele>
        <time>2010-03-17T12:43:49Z</time>
      </trkpt>
      <trkpt lat="45.1085" lon="4.95092">
        <ele>183.70899963379</ele>
        <time>2010-03-17T12:43:50Z</time>
      </trkpt>
      <trkpt lat="45.10849" lon="4.95056">
        <ele>186.04100036621</ele>
        <time>2010-03-17T12:43:56Z</time>
      </trkpt>
      <trkpt lat="45.10851" lon="4.95019">
        <ele>188.50799560547</ele>
        <time>2010-03-17T12:44:02Z</time>
      </trkpt>
      <trkpt lat="45.10852" lon="4.94989">
        <ele>189.33200073242</ele>
        <time>2010-03-17T12:44:07Z</time>
      </trkpt>
      <trkpt lat="45.10855" lon="4.94938">
        <ele>193.71299743652</ele>
        <time>2010-03-17T12:44:15Z</time>
      </trkpt>
      <trkpt lat="45.10858" lon="4.94882">
        <ele>195.51800537109</ele>
        <time>2010-03-17T12:44:24Z</time>
      </trkpt>
      <trkpt lat="45.1086" lon="4.94864">
        <ele>195.59300231934</ele>
        <time>2010-03-17T12:44:27Z</time>
      </trkpt>
      <trkpt lat="45.10868" lon="4.94837">
        <ele>197.49499511719</ele>
        <time>2010-03-17T12:44:33Z</time>
      </trkpt>
      <trkpt lat="45.10872" lon="4.94822">
        <ele>198.70700073242</ele>
        <time>2010-03-17T12:44:38Z</time>
      </trkpt>
      <trkpt lat="45.10874" lon="4.94796">
        <ele>197.86799621582</ele>
        <time>2010-03-17T12:44:44Z</time>
      </trkpt>
      <trkpt lat="45.10883" lon="4.94761">
        <ele>198.13800048828</ele>
        <time>2010-03-17T12:44:51Z</time>
      </trkpt>
      <trkpt lat="45.10897" lon="4.94716">
        <ele>198.22700500488</ele>
        <time>2010-03-17T12:44:59Z</time>
      </trkpt>
      <trkpt lat="45.10909" lon="4.94673">
        <ele>197.32200622559</ele>
        <time>2010-03-17T12:45:06Z</time>
      </trkpt>
      <trkpt lat="45.10919" lon="4.94636">
        <ele>198.1549987793</ele>
        <time>2010-03-17T12:45:12Z</time>
      </trkpt>
      <trkpt lat="45.10928" lon="4.94581">
        <ele>198.21099853516</ele>
        <time>2010-03-17T12:45:20Z</time>
      </trkpt>
      <trkpt lat="45.10928" lon="4.94522">
        <ele>197.17100524902</ele>
        <time>2010-03-17T12:45:28Z</time>
      </trkpt>
      <trkpt lat="45.10926" lon="4.94462">
        <ele>198.48399353027</ele>
        <time>2010-03-17T12:45:36Z</time>
      </trkpt>
      <trkpt lat="45.10924" lon="4.9444">
        <ele>196.68800354004</ele>
        <time>2010-03-17T12:45:39Z</time>
      </trkpt>
      <trkpt lat="45.1092" lon="4.94365">
        <ele>197.43899536133</ele>
        <time>2010-03-17T12:45:49Z</time>
      </trkpt>
      <trkpt lat="45.10915" lon="4.94328">
        <ele>197.09300231934</ele>
        <time>2010-03-17T12:45:54Z</time>
      </trkpt>
      <trkpt lat="45.10899" lon="4.9429">
        <ele>194.47099304199</ele>
        <time>2010-03-17T12:46:00Z</time>
      </trkpt>
      <trkpt lat="45.10854" lon="4.94237">
        <ele>192.79800415039</ele>
        <time>2010-03-17T12:46:11Z</time>
      </trkpt>
      <trkpt lat="45.10835" lon="4.94214">
        <ele>193.49699401856</ele>
        <time>2010-03-17T12:46:16Z</time>
      </trkpt>
      <trkpt lat="45.10794" lon="4.94168">
        <ele>195.68499755859</ele>
        <time>2010-03-17T12:46:26Z</time>
      </trkpt>
      <trkpt lat="45.1076" lon="4.94123">
        <ele>197.55200195312</ele>
        <time>2010-03-17T12:46:35Z</time>
      </trkpt>
      <trkpt lat="45.1073" lon="4.94066">
        <ele>199.61599731445</ele>
        <time>2010-03-17T12:46:45Z</time>
      </trkpt>
      <trkpt lat="45.10708" lon="4.94008">
        <ele>201.75199890137</ele>
        <time>2010-03-17T12:46:54Z</time>
      </trkpt>
      <trkpt lat="45.10694" lon="4.93945">
        <ele>203.37699890137</ele>
        <time>2010-03-17T12:47:03Z</time>
      </trkpt>
      <trkpt lat="45.10687" lon="4.93887">
        <ele>203.83500671387</ele>
        <time>2010-03-17T12:47:11Z</time>
      </trkpt>
      <trkpt lat="45.10685" lon="4.93872">
        <ele>204.03100585938</ele>
        <time>2010-03-17T12:47:15Z</time>
      </trkpt>
      <trkpt lat="45.10682" lon="4.93875">
        <ele>204.10200500488</ele>
        <time>2010-03-17T12:47:19Z</time>
      </trkpt>
      <trkpt lat="45.10683" lon="4.93878">
        <ele>204.10800170898</ele>
        <time>2010-03-17T12:47:20Z</time>
      </trkpt>
      <trkpt lat="45.10688" lon="4.93894">
        <ele>203.94099426269</ele>
        <time>2010-03-17T12:47:27Z</time>
      </trkpt>
      <trkpt lat="45.10688" lon="4.93893">
        <ele>203.95599365234</ele>
        <time>2010-03-17T12:47:28Z</time>
      </trkpt>
      <trkpt lat="45.10691" lon="4.93895">
        <ele>204.07000732422</ele>
        <time>2010-03-17T12:47:50Z</time>
      </trkpt>
      <trkpt lat="45.10691" lon="4.93895">
        <ele>204.04600524902</ele>
        <time>2010-03-17T12:47:51Z</time>
      </trkpt>
      <trkpt lat="45.10689" lon="4.9389">
        <ele>208.96800231934</ele>
        <time>2010-03-17T12:57:47Z</time>
      </trkpt>
      <trkpt lat="45.10687" lon="4.93878">
        <ele>209.70500183106</ele>
        <time>2010-03-17T12:57:52Z</time>
      </trkpt>
      <trkpt lat="45.10685" lon="4.93869">
        <ele>209.95599365234</ele>
        <time>2010-03-17T12:57:55Z</time>
      </trkpt>
      <trkpt lat="45.10683" lon="4.93847">
        <ele>208.02299499512</ele>
        <time>2010-03-17T12:58:00Z</time>
      </trkpt>
      <trkpt lat="45.10679" lon="4.93805">
        <ele>208.20500183106</ele>
        <time>2010-03-17T12:58:06Z</time>
      </trkpt>
      <trkpt lat="45.10675" lon="4.93781">
        <ele>207.02499389648</ele>
        <time>2010-03-17T12:58:09Z</time>
      </trkpt>
      <trkpt lat="45.10669" lon="4.93724">
        <ele>205.14900207519</ele>
        <time>2010-03-17T12:58:15Z</time>
      </trkpt>
      <trkpt lat="45.10661" lon="4.93655">
        <ele>201.70899963379</ele>
        <time>2010-03-17T12:58:21Z</time>
      </trkpt>
      <trkpt lat="45.10648" lon="4.93573">
        <ele>196.13200378418</ele>
        <time>2010-03-17T12:58:27Z</time>
      </trkpt>
      <trkpt lat="45.1064" lon="4.9353">
        <ele>194.00300598144</ele>
        <time>2010-03-17T12:58:30Z</time>
      </trkpt>
      <trkpt lat="45.10631" lon="4.93485">
        <ele>190.42799377441</ele>
        <time>2010-03-17T12:58:33Z</time>
      </trkpt>
      <trkpt lat="45.10628" lon="4.9347">
        <ele>190.64300537109</ele>
        <time>2010-03-17T12:58:34Z</time>
      </trkpt>
      <trkpt lat="45.10622" lon="4.9344">
        <ele>188.81300354004</ele>
        <time>2010-03-17T12:58:36Z</time>
      </trkpt>
      <trkpt lat="45.10619" lon="4.93425">
        <ele>188.23899841309</ele>
        <time>2010-03-17T12:58:37Z</time>
      </trkpt>
      <trkpt lat="45.10602" lon="4.9334">
        <ele>186.94500732422</ele>
        <time>2010-03-17T12:58:43Z</time>
      </trkpt>
      <trkpt lat="45.10597" lon="4.93313">
        <ele>187.23500061035</ele>
        <time>2010-03-17T12:58:45Z</time>
      </trkpt>
      <trkpt lat="45.10594" lon="4.933">
        <ele>187.46800231934</ele>
        <time>2010-03-17T12:58:46Z</time>
      </trkpt>
      <trkpt lat="45.10582" lon="4.93236">
        <ele>186.87199401856</ele>
        <time>2010-03-17T12:58:51Z</time>
      </trkpt>
      <trkpt lat="45.10579" lon="4.93223">
        <ele>186.12600708008</ele>
        <time>2010-03-17T12:58:52Z</time>
      </trkpt>
      <trkpt lat="45.10567" lon="4.9316">
        <ele>185.80900573731</ele>
        <time>2010-03-17T12:58:57Z</time>
      </trkpt>
      <trkpt lat="45.10562" lon="4.93136">
        <ele>184.65600585938</ele>
        <time>2010-03-17T12:58:59Z</time>
      </trkpt>
      <trkpt lat="45.10556" lon="4.93102">
        <ele>188.41600036621</ele>
        <time>2010-03-17T12:59:02Z</time>
      </trkpt>
      <trkpt lat="45.10541" lon="4.93029">
        <ele>187.70700073242</ele>
        <time>2010-03-17T12:59:09Z</time>
      </trkpt>
      <trkpt lat="45.10535" lon="4.92997">
        <ele>185.88200378418</ele>
        <time>2010-03-17T12:59:12Z</time>
      </trkpt>
      <trkpt lat="45.10524" lon="4.92945">
        <ele>187.07200622559</ele>
        <time>2010-03-17T12:59:17Z</time>
      </trkpt>
      <trkpt lat="45.10516" lon="4.92904">
        <ele>185.62199401856</ele>
        <time>2010-03-17T12:59:21Z</time>
      </trkpt>
      <trkpt lat="45.10503" lon="4.92837">
        <ele>186.64999389648</ele>
        <time>2010-03-17T12:59:28Z</time>
      </trkpt>
      <trkpt lat="45.105" lon="4.9282">
        <ele>187.28500366211</ele>
        <time>2010-03-17T12:59:30Z</time>
      </trkpt>
      <trkpt lat="45.10493" lon="4.92774">
        <ele>187.70599365234</ele>
        <time>2010-03-17T12:59:36Z</time>
      </trkpt>
      <trkpt lat="45.10493" lon="4.92769">
        <ele>188.05499267578</ele>
        <time>2010-03-17T12:59:37Z</time>
      </trkpt>
      <trkpt lat="45.10503" lon="4.92757">
        <ele>187.72900390625</ele>
        <time>2010-03-17T12:59:41Z</time>
      </trkpt>
      <trkpt lat="45.10508" lon="4.92756">
        <ele>187.77299499512</ele>
        <time>2010-03-17T12:59:42Z</time>
      </trkpt>
      <trkpt lat="45.10532" lon="4.92754">
        <ele>187.80900573731</ele>
        <time>2010-03-17T12:59:46Z</time>
      </trkpt>
      <trkpt lat="45.10576" lon="4.9275">
        <ele>188.37800598144</ele>
        <time>2010-03-17T12:59:54Z</time>
      </trkpt>
      <trkpt lat="45.1059" lon="4.92752">
        <ele>189.09199523926</ele>
        <time>2010-03-17T12:59:57Z</time>
      </trkpt>
      <trkpt lat="45.10608" lon="4.92758">
        <ele>189.25399780273</ele>
        <time>2010-03-17T13:00:01Z</time>
      </trkpt>
      <trkpt lat="45.10626" lon="4.92766">
        <ele>189.28700256348</ele>
        <time>2010-03-17T13:00:06Z</time>
      </trkpt>
      <trkpt lat="45.10633" lon="4.92764">
        <ele>189.66900634766</ele>
        <time>2010-03-17T13:00:10Z</time>
      </trkpt>
      <trkpt lat="45.10633" lon="4.92764">
        <ele>189.66400146484</ele>
        <time>2010-03-17T13:00:11Z</time>
      </trkpt>
      <trkpt lat="45.10634" lon="4.92758">
        <ele>190.15699768066</ele>
        <time>2010-03-17T13:00:30Z</time>
      </trkpt>
      <trkpt lat="45.10634" lon="4.92755">
        <ele>190.02799987793</ele>
        <time>2010-03-17T13:00:33Z</time>
      </trkpt>
      <trkpt lat="45.10635" lon="4.92757">
        <ele>190.16299438477</ele>
        <time>2010-03-17T13:00:48Z</time>
      </trkpt>
      <trkpt lat="45.10637" lon="4.92764">
        <ele>190.19999694824</ele>
        <time>2010-03-17T13:02:15Z</time>
      </trkpt>
      <trkpt lat="45.1063" lon="4.92768">
        <ele>190.22900390625</ele>
        <time>2010-03-17T13:02:19Z</time>
      </trkpt>
      <trkpt lat="45.10617" lon="4.92763">
        <ele>189.40800476074</ele>
        <time>2010-03-17T13:02:24Z</time>
      </trkpt>
      <trkpt lat="45.10605" lon="4.92759">
        <ele>189.34800720215</ele>
        <time>2010-03-17T13:02:27Z</time>
      </trkpt>
      <trkpt lat="45.10591" lon="4.92755">
        <ele>189.23399353027</ele>
        <time>2010-03-17T13:02:30Z</time>
      </trkpt>
      <trkpt lat="45.10581" lon="4.92754">
        <ele>188.66000366211</ele>
        <time>2010-03-17T13:02:32Z</time>
      </trkpt>
      <trkpt lat="45.10536" lon="4.92758">
        <ele>188.95100402832</ele>
        <time>2010-03-17T13:02:40Z</time>
      </trkpt>
      <trkpt lat="45.10498" lon="4.92763">
        <ele>188.68299865723</ele>
        <time>2010-03-17T13:02:47Z</time>
      </trkpt>
      <trkpt lat="45.10494" lon="4.92763">
        <ele>188.96899414062</ele>
        <time>2010-03-17T13:02:48Z</time>
      </trkpt>
      <trkpt lat="45.10484" lon="4.92746">
        <ele>188.80700683594</ele>
        <time>2010-03-17T13:02:52Z</time>
      </trkpt>
      <trkpt lat="45.10475" lon="4.92701">
        <ele>187.48199462891</ele>
        <time>2010-03-17T13:02:58Z</time>
      </trkpt>
      <trkpt lat="45.10467" lon="4.92659">
        <ele>187.93699645996</ele>
        <time>2010-03-17T13:03:03Z</time>
      </trkpt>
      <trkpt lat="45.10455" lon="4.92591">
        <ele>188.59899902344</ele>
        <time>2010-03-17T13:03:11Z</time>
      </trkpt>
      <trkpt lat="45.10445" lon="4.92534">
        <ele>187.21699523926</ele>
        <time>2010-03-17T13:03:17Z</time>
      </trkpt>
      <trkpt lat="45.10434" lon="4.92472">
        <ele>185.64599609375</ele>
        <time>2010-03-17T13:03:23Z</time>
      </trkpt>
      <trkpt lat="45.10426" lon="4.92428">
        <ele>184.02400207519</ele>
        <time>2010-03-17T13:03:27Z</time>
      </trkpt>
      <trkpt lat="45.1041" lon="4.92334">
        <ele>183.19599914551</ele>
        <time>2010-03-17T13:03:35Z</time>
      </trkpt>
      <trkpt lat="45.10393" lon="4.92238">
        <ele>182.18400573731</ele>
        <time>2010-03-17T13:03:44Z</time>
      </trkpt>
      <trkpt lat="45.10378" lon="4.92152">
        <ele>184.00300598144</ele>
        <time>2010-03-17T13:03:53Z</time>
      </trkpt>
      <trkpt lat="45.10361" lon="4.9206">
        <ele>182.47900390625</ele>
        <time>2010-03-17T13:04:03Z</time>
      </trkpt>
      <trkpt lat="45.10357" lon="4.92034">
        <ele>184.37300109863</ele>
        <time>2010-03-17T13:04:06Z</time>
      </trkpt>
      <trkpt lat="45.10344" lon="4.91962">
        <ele>185.75199890137</ele>
        <time>2010-03-17T13:04:15Z</time>
      </trkpt>
      <trkpt lat="45.10343" lon="4.91954">
        <ele>185.85899353027</ele>
        <time>2010-03-17T13:04:16Z</time>
      </trkpt>
      <trkpt lat="45.10332" lon="4.91897">
        <ele>185.14900207519</ele>
        <time>2010-03-17T13:04:23Z</time>
      </trkpt>
      <trkpt lat="45.10318" lon="4.91817">
        <ele>187.63200378418</ele>
        <time>2010-03-17T13:04:33Z</time>
      </trkpt>
      <trkpt lat="45.10315" lon="4.91802">
        <ele>187.84800720215</ele>
        <time>2010-03-17T13:04:35Z</time>
      </trkpt>
      <trkpt lat="45.10313" lon="4.91787">
        <ele>188.35200500488</ele>
        <time>2010-03-17T13:04:37Z</time>
      </trkpt>
      <trkpt lat="45.103" lon="4.91764">
        <ele>187.05499267578</ele>
        <time>2010-03-17T13:04:41Z</time>
      </trkpt>
      <trkpt lat="45.10278" lon="4.91759">
        <ele>186.93600463867</ele>
        <time>2010-03-17T13:04:45Z</time>
      </trkpt>
      <trkpt lat="45.10221" lon="4.91768">
        <ele>187.27799987793</ele>
        <time>2010-03-17T13:04:54Z</time>
      </trkpt>
      <trkpt lat="45.10183" lon="4.91774">
        <ele>186.3869934082</ele>
        <time>2010-03-17T13:05:00Z</time>
      </trkpt>
      <trkpt lat="45.10125" lon="4.91783">
        <ele>185.46800231934</ele>
        <time>2010-03-17T13:05:09Z</time>
      </trkpt>
      <trkpt lat="45.10064" lon="4.91793">
        <ele>185.69700622559</ele>
        <time>2010-03-17T13:05:19Z</time>
      </trkpt>
      <trkpt lat="45.10021" lon="4.91801">
        <ele>186.44500732422</ele>
        <time>2010-03-17T13:05:26Z</time>
      </trkpt>
      <trkpt lat="45.1001" lon="4.91804">
        <ele>187.91299438477</ele>
        <time>2010-03-17T13:05:28Z</time>
      </trkpt>
      <trkpt lat="45.09962" lon="4.91813">
        <ele>189.53999328613</ele>
        <time>2010-03-17T13:05:36Z</time>
      </trkpt>
      <trkpt lat="45.09913" lon="4.91823">
        <ele>189.99800109863</ele>
        <time>2010-03-17T13:05:44Z</time>
      </trkpt>
      <trkpt lat="45.09869" lon="4.91832">
        <ele>189.74699401856</ele>
        <time>2010-03-17T13:05:51Z</time>
      </trkpt>
      <trkpt lat="45.09826" lon="4.9184">
        <ele>188.77799987793</ele>
        <time>2010-03-17T13:05:58Z</time>
      </trkpt>
      <trkpt lat="45.09764" lon="4.91852">
        <ele>191.71099853516</ele>
        <time>2010-03-17T13:06:08Z</time>
      </trkpt>
      <trkpt lat="45.0971" lon="4.91862">
        <ele>191.8450012207</ele>
        <time>2010-03-17T13:06:17Z</time>
      </trkpt>
      <trkpt lat="45.09693" lon="4.91865">
        <ele>193.38600158691</ele>
        <time>2010-03-17T13:06:20Z</time>
      </trkpt>
      <trkpt lat="45.09646" lon="4.91874">
        <ele>194.72300720215</ele>
        <time>2010-03-17T13:06:28Z</time>
      </trkpt>
      <trkpt lat="45.09594" lon="4.91882">
        <ele>195.01300048828</ele>
        <time>2010-03-17T13:06:37Z</time>
      </trkpt>
      <trkpt lat="45.0955" lon="4.91889">
        <ele>196.48199462891</ele>
        <time>2010-03-17T13:06:45Z</time>
      </trkpt>
      <trkpt lat="45.09494" lon="4.91892">
        <ele>197.41299438477</ele>
        <time>2010-03-17T13:06:55Z</time>
      </trkpt>
      <trkpt lat="45.09467" lon="4.91886">
        <ele>197.72799682617</ele>
        <time>2010-03-17T13:07:00Z</time>
      </trkpt>
      <trkpt lat="45.09447" lon="4.91878">
        <ele>198.89300537109</ele>
        <time>2010-03-17T13:07:04Z</time>
      </trkpt>
      <trkpt lat="45.09415" lon="4.91866">
        <ele>201.43800354004</ele>
        <time>2010-03-17T13:07:10Z</time>
      </trkpt>
      <trkpt lat="45.09378" lon="4.91853">
        <ele>203.46099853516</ele>
        <time>2010-03-17T13:07:17Z</time>
      </trkpt>
      <trkpt lat="45.09341" lon="4.91839">
        <ele>204.46299743652</ele>
        <time>2010-03-17T13:07:25Z</time>
      </trkpt>
      <trkpt lat="45.09308" lon="4.91828">
        <ele>205.99099731445</ele>
        <time>2010-03-17T13:07:32Z</time>
      </trkpt>
      <trkpt lat="45.09268" lon="4.91813">
        <ele>209.29899597168</ele>
        <time>2010-03-17T13:07:41Z</time>
      </trkpt>
      <trkpt lat="45.09228" lon="4.91806">
        <ele>211.80700683594</ele>
        <time>2010-03-17T13:07:50Z</time>
      </trkpt>
      <trkpt lat="45.09198" lon="4.91813">
        <ele>212.94900512695</ele>
        <time>2010-03-17T13:07:57Z</time>
      </trkpt>
      <trkpt lat="45.09185" lon="4.91818">
        <ele>214.64999389648</ele>
        <time>2010-03-17T13:08:00Z</time>
      </trkpt>
      <trkpt lat="45.09145" lon="4.91832">
        <ele>217.01699829102</ele>
        <time>2010-03-17T13:08:10Z</time>
      </trkpt>
      <trkpt lat="45.09112" lon="4.91844">
        <ele>220.44099426269</ele>
        <time>2010-03-17T13:08:18Z</time>
      </trkpt>
      <trkpt lat="45.09108" lon="4.91846">
        <ele>220.49200439453</ele>
        <time>2010-03-17T13:08:19Z</time>
      </trkpt>
      <trkpt lat="45.09091" lon="4.91853">
        <ele>220.28500366211</ele>
        <time>2010-03-17T13:08:23Z</time>
      </trkpt>
      <trkpt lat="45.0903" lon="4.91873">
        <ele>223.75199890137</ele>
        <time>2010-03-17T13:08:36Z</time>
      </trkpt>
      <trkpt lat="45.08979" lon="4.91883">
        <ele>224.78700256348</ele>
        <time>2010-03-17T13:08:47Z</time>
      </trkpt>
      <trkpt lat="45.08922" lon="4.91896">
        <ele>225.99699401856</ele>
        <time>2010-03-17T13:08:59Z</time>
      </trkpt>
      <trkpt lat="45.08875" lon="4.91904">
        <ele>228.05999755859</ele>
        <time>2010-03-17T13:09:09Z</time>
      </trkpt>
      <trkpt lat="45.08818" lon="4.91909">
        <ele>229.85400390625</ele>
        <time>2010-03-17T13:09:21Z</time>
      </trkpt>
      <trkpt lat="45.08784" lon="4.91912">
        <ele>232.51800537109</ele>
        <time>2010-03-17T13:09:28Z</time>
      </trkpt>
      <trkpt lat="45.08725" lon="4.91916">
        <ele>233.39199829102</ele>
        <time>2010-03-17T13:09:40Z</time>
      </trkpt>
      <trkpt lat="45.08681" lon="4.9192">
        <ele>235.48399353027</ele>
        <time>2010-03-17T13:09:49Z</time>
      </trkpt>
      <trkpt lat="45.08632" lon="4.91923">
        <ele>238.33999633789</ele>
        <time>2010-03-17T13:09:59Z</time>
      </trkpt>
      <trkpt lat="45.08599" lon="4.91917">
        <ele>241.49899291992</ele>
        <time>2010-03-17T13:10:06Z</time>
      </trkpt>
      <trkpt lat="45.08589" lon="4.91916">
        <ele>242.54899597168</ele>
        <time>2010-03-17T13:10:08Z</time>
      </trkpt>
      <trkpt lat="45.08558" lon="4.91918">
        <ele>246.94900512695</ele>
        <time>2010-03-17T13:10:15Z</time>
      </trkpt>
      <trkpt lat="45.08552" lon="4.91919">
        <ele>247.94700622559</ele>
        <time>2010-03-17T13:10:17Z</time>
      </trkpt>
      <trkpt lat="45.08535" lon="4.91922">
        <ele>249.72599792481</ele>
        <time>2010-03-17T13:10:23Z</time>
      </trkpt>
      <trkpt lat="45.08524" lon="4.91921">
        <ele>251.57200622559</ele>
        <time>2010-03-17T13:10:28Z</time>
      </trkpt>
      <trkpt lat="45.08524" lon="4.91922">
        <ele>251.66000366211</ele>
        <time>2010-03-17T13:10:29Z</time>
      </trkpt>
      <trkpt lat="45.08521" lon="4.91923">
        <ele>251.37399291992</ele>
        <time>2010-03-17T13:10:54Z</time>
      </trkpt>
      <trkpt lat="45.08519" lon="4.91923">
        <ele>251.2559967041</ele>
        <time>2010-03-17T13:10:55Z</time>
      </trkpt>
      <trkpt lat="45.08506" lon="4.91922">
        <ele>253.58099365234</ele>
        <time>2010-03-17T13:11:01Z</time>
      </trkpt>
      <trkpt lat="45.08491" lon="4.9192">
        <ele>255.07600402832</ele>
        <time>2010-03-17T13:11:06Z</time>
      </trkpt>
      <trkpt lat="45.08466" lon="4.91916">
        <ele>256.42001342773</ele>
        <time>2010-03-17T13:11:14Z</time>
      </trkpt>
      <trkpt lat="45.08458" lon="4.9191">
        <ele>258.47698974609</ele>
        <time>2010-03-17T13:11:19Z</time>
      </trkpt>
      <trkpt lat="45.08458" lon="4.9191">
        <ele>258.76400756836</ele>
        <time>2010-03-17T13:11:20Z</time>
      </trkpt>
      <trkpt lat="45.08459" lon="4.9191">
        <ele>258.43899536133</ele>
        <time>2010-03-17T13:11:32Z</time>
      </trkpt>
      <trkpt lat="45.08459" lon="4.9191">
        <ele>258.00698852539</ele>
        <time>2010-03-17T13:11:39Z</time>
      </trkpt>
      <trkpt lat="45.08441" lon="4.91911">
        <ele>256.82901000977</ele>
        <time>2010-03-17T13:11:48Z</time>
      </trkpt>
      <trkpt lat="45.08432" lon="4.91915">
        <ele>257.09399414062</ele>
        <time>2010-03-17T13:11:50Z</time>
      </trkpt>
      <trkpt lat="45.08422" lon="4.91921">
        <ele>255.02699279785</ele>
        <time>2010-03-17T13:11:52Z</time>
      </trkpt>
      <trkpt lat="45.08404" lon="4.91927">
        <ele>254.82299804688</ele>
        <time>2010-03-17T13:11:55Z</time>
      </trkpt>
      <trkpt lat="45.08391" lon="4.91932">
        <ele>253.94500732422</ele>
        <time>2010-03-17T13:11:57Z</time>
      </trkpt>
      <trkpt lat="45.08384" lon="4.91936">
        <ele>253.25399780273</ele>
        <time>2010-03-17T13:11:58Z</time>
      </trkpt>
      <trkpt lat="45.08364" lon="4.91947">
        <ele>253.69900512695</ele>
        <time>2010-03-17T13:12:01Z</time>
      </trkpt>
      <trkpt lat="45.08357" lon="4.9195">
        <ele>253.81599426269</ele>
        <time>2010-03-17T13:12:02Z</time>
      </trkpt>
      <trkpt lat="45.08345" lon="4.91953">
        <ele>253.125</ele>
        <time>2010-03-17T13:12:04Z</time>
      </trkpt>
      <trkpt lat="45.08339" lon="4.91953">
        <ele>253.0059967041</ele>
        <time>2010-03-17T13:12:05Z</time>
      </trkpt>
      <trkpt lat="45.08309" lon="4.91952">
        <ele>254.65400695801</ele>
        <time>2010-03-17T13:12:10Z</time>
      </trkpt>
      <trkpt lat="45.08303" lon="4.91951">
        <ele>254.88299560547</ele>
        <time>2010-03-17T13:12:11Z</time>
      </trkpt>
      <trkpt lat="45.08284" lon="4.91945">
        <ele>253.49299621582</ele>
        <time>2010-03-17T13:12:14Z</time>
      </trkpt>
      <trkpt lat="45.08246" lon="4.91927">
        <ele>252.76400756836</ele>
        <time>2010-03-17T13:12:20Z</time>
      </trkpt>
      <trkpt lat="45.08202" lon="4.91911">
        <ele>249.77099609375</ele>
        <time>2010-03-17T13:12:26Z</time>
      </trkpt>
      <trkpt lat="45.08186" lon="4.91905">
        <ele>248.14500427246</ele>
        <time>2010-03-17T13:12:28Z</time>
      </trkpt>
      <trkpt lat="45.08163" lon="4.91895">
        <ele>245.98399353027</ele>
        <time>2010-03-17T13:12:32Z</time>
      </trkpt>
      <trkpt lat="45.08156" lon="4.91868">
        <ele>243.08500671387</ele>
        <time>2010-03-17T13:12:35Z</time>
      </trkpt>
      <trkpt lat="45.08155" lon="4.91857">
        <ele>243.08500671387</ele>
        <time>2010-03-17T13:12:36Z</time>
      </trkpt>
      <trkpt lat="45.08157" lon="4.91821">
        <ele>241.55499267578</ele>
        <time>2010-03-17T13:12:39Z</time>
      </trkpt>
      <trkpt lat="45.08167" lon="4.91752">
        <ele>237.64999389648</ele>
        <time>2010-03-17T13:12:44Z</time>
      </trkpt>
      <trkpt lat="45.0818" lon="4.91676">
        <ele>237.51699829102</ele>
        <time>2010-03-17T13:12:49Z</time>
      </trkpt>
      <trkpt lat="45.08183" lon="4.91659">
        <ele>236.10099792481</ele>
        <time>2010-03-17T13:12:50Z</time>
      </trkpt>
      <trkpt lat="45.08179" lon="4.91591">
        <ele>231.72099304199</ele>
        <time>2010-03-17T13:12:54Z</time>
      </trkpt>
      <trkpt lat="45.08158" lon="4.91546">
        <ele>227.14900207519</ele>
        <time>2010-03-17T13:12:57Z</time>
      </trkpt>
      <trkpt lat="45.08149" lon="4.91534">
        <ele>225.52499389648</ele>
        <time>2010-03-17T13:12:58Z</time>
      </trkpt>
      <trkpt lat="45.08108" lon="4.91494">
        <ele>224.46000671387</ele>
        <time>2010-03-17T13:13:02Z</time>
      </trkpt>
      <trkpt lat="45.08078" lon="4.91464">
        <ele>221.92500305176</ele>
        <time>2010-03-17T13:13:05Z</time>
      </trkpt>
      <trkpt lat="45.08014" lon="4.91389">
        <ele>218.04600524902</ele>
        <time>2010-03-17T13:13:12Z</time>
      </trkpt>
      <trkpt lat="45.07954" lon="4.91309">
        <ele>214.46899414062</ele>
        <time>2010-03-17T13:13:19Z</time>
      </trkpt>
      <trkpt lat="45.07946" lon="4.91297">
        <ele>214.21800231934</ele>
        <time>2010-03-17T13:13:20Z</time>
      </trkpt>
      <trkpt lat="45.07894" lon="4.91207">
        <ele>210.79499816894</ele>
        <time>2010-03-17T13:13:27Z</time>
      </trkpt>
      <trkpt lat="45.07854" lon="4.9115">
        <ele>209.2440032959</ele>
        <time>2010-03-17T13:13:32Z</time>
      </trkpt>
      <trkpt lat="45.07808" lon="4.91105">
        <ele>208.40199279785</ele>
        <time>2010-03-17T13:13:37Z</time>
      </trkpt>
      <trkpt lat="45.07778" lon="4.91065">
        <ele>208.93699645996</ele>
        <time>2010-03-17T13:13:41Z</time>
      </trkpt>
      <trkpt lat="45.07756" lon="4.91034">
        <ele>207.15600585938</ele>
        <time>2010-03-17T13:13:44Z</time>
      </trkpt>
      <trkpt lat="45.07709" lon="4.90963">
        <ele>205.26100158691</ele>
        <time>2010-03-17T13:13:51Z</time>
      </trkpt>
      <trkpt lat="45.07702" lon="4.90953">
        <ele>205.13200378418</ele>
        <time>2010-03-17T13:13:52Z</time>
      </trkpt>
      <trkpt lat="45.07674" lon="4.90895">
        <ele>204.92399597168</ele>
        <time>2010-03-17T13:13:57Z</time>
      </trkpt>
      <trkpt lat="45.07644" lon="4.90806">
        <ele>203.38499450684</ele>
        <time>2010-03-17T13:14:04Z</time>
      </trkpt>
      <trkpt lat="45.07621" lon="4.90726">
        <ele>201.59899902344</ele>
        <time>2010-03-17T13:14:10Z</time>
      </trkpt>
      <trkpt lat="45.07618" lon="4.9067">
        <ele>201.58399963379</ele>
        <time>2010-03-17T13:14:14Z</time>
      </trkpt>
      <trkpt lat="45.07626" lon="4.90582">
        <ele>198.72099304199</ele>
        <time>2010-03-17T13:14:20Z</time>
      </trkpt>
      <trkpt lat="45.07631" lon="4.90552">
        <ele>197.51899719238</ele>
        <time>2010-03-17T13:14:22Z</time>
      </trkpt>
      <trkpt lat="45.07659" lon="4.90479">
        <ele>193.16900634766</ele>
        <time>2010-03-17T13:14:27Z</time>
      </trkpt>
      <trkpt lat="45.07701" lon="4.90387">
        <ele>187.64199829102</ele>
        <time>2010-03-17T13:14:33Z</time>
      </trkpt>
      <trkpt lat="45.07716" lon="4.90317">
        <ele>186.21000671387</ele>
        <time>2010-03-17T13:14:37Z</time>
      </trkpt>
      <trkpt lat="45.07719" lon="4.90283">
        <ele>185.41700744629</ele>
        <time>2010-03-17T13:14:39Z</time>
      </trkpt>
      <trkpt lat="45.07722" lon="4.90216">
        <ele>183.79899597168</ele>
        <time>2010-03-17T13:14:43Z</time>
      </trkpt>
      <trkpt lat="45.07723" lon="4.90168">
        <ele>182.47799682617</ele>
        <time>2010-03-17T13:14:46Z</time>
      </trkpt>
      <trkpt lat="45.07729" lon="4.90073">
        <ele>182.18800354004</ele>
        <time>2010-03-17T13:14:52Z</time>
      </trkpt>
      <trkpt lat="45.07751" lon="4.89984">
        <ele>180.92199707031</ele>
        <time>2010-03-17T13:14:58Z</time>
      </trkpt>
      <trkpt lat="45.07785" lon="4.89917">
        <ele>179.2380065918</ele>
        <time>2010-03-17T13:15:03Z</time>
      </trkpt>
      <trkpt lat="45.07793" lon="4.89904">
        <ele>178.9700012207</ele>
        <time>2010-03-17T13:15:04Z</time>
      </trkpt>
      <trkpt lat="45.07851" lon="4.89805">
        <ele>178.14500427246</ele>
        <time>2010-03-17T13:15:12Z</time>
      </trkpt>
      <trkpt lat="45.07865" lon="4.8978">
        <ele>178.37800598144</ele>
        <time>2010-03-17T13:15:14Z</time>
      </trkpt>
      <trkpt lat="45.07879" lon="4.89736">
        <ele>176.87899780273</ele>
        <time>2010-03-17T13:15:17Z</time>
      </trkpt>
      <trkpt lat="45.07882" lon="4.89703">
        <ele>176.27799987793</ele>
        <time>2010-03-17T13:15:19Z</time>
      </trkpt>
      <trkpt lat="45.0789" lon="4.8962">
        <ele>176.08299255371</ele>
        <time>2010-03-17T13:15:24Z</time>
      </trkpt>
      <trkpt lat="45.07894" lon="4.8954">
        <ele>175.9940032959</ele>
        <time>2010-03-17T13:15:29Z</time>
      </trkpt>
      <trkpt lat="45.0789" lon="4.8945">
        <ele>176.87800598144</ele>
        <time>2010-03-17T13:15:35Z</time>
      </trkpt>
      <trkpt lat="45.0788" lon="4.89397">
        <ele>177.85899353027</ele>
        <time>2010-03-17T13:15:39Z</time>
      </trkpt>
      <trkpt lat="45.07859" lon="4.89325">
        <ele>177.9880065918</ele>
        <time>2010-03-17T13:15:45Z</time>
      </trkpt>
      <trkpt lat="45.07833" lon="4.89261">
        <ele>177.09399414062</ele>
        <time>2010-03-17T13:15:51Z</time>
      </trkpt>
      <trkpt lat="45.07812" lon="4.8921">
        <ele>175.76300048828</ele>
        <time>2010-03-17T13:15:56Z</time>
      </trkpt>
      <trkpt lat="45.07793" lon="4.89154">
        <ele>171.52499389648</ele>
        <time>2010-03-17T13:16:01Z</time>
      </trkpt>
      <trkpt lat="45.07777" lon="4.89102">
        <ele>168.22700500488</ele>
        <time>2010-03-17T13:16:05Z</time>
      </trkpt>
      <trkpt lat="45.07762" lon="4.89063">
        <ele>165.64900207519</ele>
        <time>2010-03-17T13:16:08Z</time>
      </trkpt>
      <trkpt lat="45.07729" lon="4.89014">
        <ele>165.92399597168</ele>
        <time>2010-03-17T13:16:13Z</time>
      </trkpt>
      <trkpt lat="45.07685" lon="4.88976">
        <ele>165.25900268555</ele>
        <time>2010-03-17T13:16:19Z</time>
      </trkpt>
      <trkpt lat="45.07646" lon="4.88958">
        <ele>166.5</ele>
        <time>2010-03-17T13:16:24Z</time>
      </trkpt>
      <trkpt lat="45.07598" lon="4.88953">
        <ele>165.39900207519</ele>
        <time>2010-03-17T13:16:30Z</time>
      </trkpt>
      <trkpt lat="45.07574" lon="4.88957">
        <ele>163.40100097656</ele>
        <time>2010-03-17T13:16:33Z</time>
      </trkpt>
      <trkpt lat="45.07553" lon="4.88952">
        <ele>163.39100646973</ele>
        <time>2010-03-17T13:16:36Z</time>
      </trkpt>
      <trkpt lat="45.07523" lon="4.88953">
        <ele>164.45899963379</ele>
        <time>2010-03-17T13:16:40Z</time>
      </trkpt>
      <trkpt lat="45.07508" lon="4.88949">
        <ele>162.3390045166</ele>
        <time>2010-03-17T13:16:42Z</time>
      </trkpt>
      <trkpt lat="45.0745" lon="4.88917">
        <ele>162.47300720215</ele>
        <time>2010-03-17T13:16:50Z</time>
      </trkpt>
      <trkpt lat="45.07419" lon="4.88884">
        <ele>161.67500305176</ele>
        <time>2010-03-17T13:16:55Z</time>
      </trkpt>
      <trkpt lat="45.07408" lon="4.88867">
        <ele>162.55000305176</ele>
        <time>2010-03-17T13:16:57Z</time>
      </trkpt>
      <trkpt lat="45.07394" lon="4.88838">
        <ele>160.69900512695</ele>
        <time>2010-03-17T13:17:00Z</time>
      </trkpt>
      <trkpt lat="45.07382" lon="4.88793">
        <ele>160.24000549316</ele>
        <time>2010-03-17T13:17:04Z</time>
      </trkpt>
      <trkpt lat="45.07367" lon="4.88666">
        <ele>157.49099731445</ele>
        <time>2010-03-17T13:17:14Z</time>
      </trkpt>
      <trkpt lat="45.07354" lon="4.88591">
        <ele>158.10699462891</ele>
        <time>2010-03-17T13:17:20Z</time>
      </trkpt>
      <trkpt lat="45.07328" lon="4.88507">
        <ele>157.04200744629</ele>
        <time>2010-03-17T13:17:27Z</time>
      </trkpt>
      <trkpt lat="45.07306" lon="4.88434">
        <ele>154.99600219727</ele>
        <time>2010-03-17T13:17:33Z</time>
      </trkpt>
      <trkpt lat="45.07276" lon="4.88356">
        <ele>152.81799316406</ele>
        <time>2010-03-17T13:17:40Z</time>
      </trkpt>
      <trkpt lat="45.07244" lon="4.88303">
        <ele>153.60099792481</ele>
        <time>2010-03-17T13:17:46Z</time>
      </trkpt>
      <trkpt lat="45.072" lon="4.8823">
        <ele>154.14599609375</ele>
        <time>2010-03-17T13:17:54Z</time>
      </trkpt>
      <trkpt lat="45.07183" lon="4.88201">
        <ele>151.78999328613</ele>
        <time>2010-03-17T13:17:57Z</time>
      </trkpt>
      <trkpt lat="45.0716" lon="4.88163">
        <ele>152.62899780273</ele>
        <time>2010-03-17T13:18:01Z</time>
      </trkpt>
      <trkpt lat="45.07112" lon="4.88079">
        <ele>149.83299255371</ele>
        <time>2010-03-17T13:18:10Z</time>
      </trkpt>
      <trkpt lat="45.07086" lon="4.88019">
        <ele>150.60000610352</ele>
        <time>2010-03-17T13:18:16Z</time>
      </trkpt>
      <trkpt lat="45.07072" lon="4.8798">
        <ele>149.87199401856</ele>
        <time>2010-03-17T13:18:20Z</time>
      </trkpt>
      <trkpt lat="45.07053" lon="4.87923">
        <ele>149.99800109863</ele>
        <time>2010-03-17T13:18:26Z</time>
      </trkpt>
      <trkpt lat="45.07029" lon="4.8784">
        <ele>151.46099853516</ele>
        <time>2010-03-17T13:18:35Z</time>
      </trkpt>
      <trkpt lat="45.07006" lon="4.87759">
        <ele>150.93600463867</ele>
        <time>2010-03-17T13:18:43Z</time>
      </trkpt>
      <trkpt lat="45.06991" lon="4.87705">
        <ele>148.84700012207</ele>
        <time>2010-03-17T13:18:48Z</time>
      </trkpt>
      <trkpt lat="45.06966" lon="4.87614">
        <ele>147.97399902344</ele>
        <time>2010-03-17T13:18:56Z</time>
      </trkpt>
      <trkpt lat="45.06945" lon="4.8756">
        <ele>147.04299926758</ele>
        <time>2010-03-17T13:19:01Z</time>
      </trkpt>
      <trkpt lat="45.06906" lon="4.87497">
        <ele>144.09399414062</ele>
        <time>2010-03-17T13:19:08Z</time>
      </trkpt>
      <trkpt lat="45.06873" lon="4.87471">
        <ele>144.56100463867</ele>
        <time>2010-03-17T13:19:13Z</time>
      </trkpt>
      <trkpt lat="45.06857" lon="4.87439">
        <ele>143.80299377441</ele>
        <time>2010-03-17T13:19:17Z</time>
      </trkpt>
      <trkpt lat="45.06855" lon="4.87418">
        <ele>144.63600158691</ele>
        <time>2010-03-17T13:19:19Z</time>
      </trkpt>
      <trkpt lat="45.0686" lon="4.87344">
        <ele>144.43600463867</ele>
        <time>2010-03-17T13:19:26Z</time>
      </trkpt>
      <trkpt lat="45.06872" lon="4.87292">
        <ele>145.24299621582</ele>
        <time>2010-03-17T13:19:31Z</time>
      </trkpt>
      <trkpt lat="45.06895" lon="4.87209">
        <ele>144.66799926758</ele>
        <time>2010-03-17T13:19:39Z</time>
      </trkpt>
      <trkpt lat="45.06922" lon="4.87151">
        <ele>144.67100524902</ele>
        <time>2010-03-17T13:19:45Z</time>
      </trkpt>
      <trkpt lat="45.06973" lon="4.87059">
        <ele>144.1130065918</ele>
        <time>2010-03-17T13:19:55Z</time>
      </trkpt>
      <trkpt lat="45.06998" lon="4.86991">
        <ele>145.43400573731</ele>
        <time>2010-03-17T13:20:02Z</time>
      </trkpt>
      <trkpt lat="45.07021" lon="4.86891">
        <ele>143.59899902344</ele>
        <time>2010-03-17T13:20:12Z</time>
      </trkpt>
      <trkpt lat="45.07031" lon="4.86827">
        <ele>143.10200500488</ele>
        <time>2010-03-17T13:20:18Z</time>
      </trkpt>
      <trkpt lat="45.07036" lon="4.86746">
        <ele>141.36500549316</ele>
        <time>2010-03-17T13:20:25Z</time>
      </trkpt>
      <trkpt lat="45.07047" lon="4.86699">
        <ele>140.43600463867</ele>
        <time>2010-03-17T13:20:29Z</time>
      </trkpt>
      <trkpt lat="45.07068" lon="4.86655">
        <ele>138.45899963379</ele>
        <time>2010-03-17T13:20:33Z</time>
      </trkpt>
      <trkpt lat="45.07085" lon="4.86623">
        <ele>137.64799499512</ele>
        <time>2010-03-17T13:20:36Z</time>
      </trkpt>
      <trkpt lat="45.0709" lon="4.86612">
        <ele>137.03799438477</ele>
        <time>2010-03-17T13:20:37Z</time>
      </trkpt>
      <trkpt lat="45.07098" lon="4.86587">
        <ele>136.37800598144</ele>
        <time>2010-03-17T13:20:39Z</time>
      </trkpt>
      <trkpt lat="45.071" lon="4.86545">
        <ele>134.48199462891</ele>
        <time>2010-03-17T13:20:42Z</time>
      </trkpt>
      <trkpt lat="45.07089" lon="4.86505">
        <ele>134.03100585938</ele>
        <time>2010-03-17T13:20:45Z</time>
      </trkpt>
      <trkpt lat="45.07083" lon="4.86494">
        <ele>133.64900207519</ele>
        <time>2010-03-17T13:20:46Z</time>
      </trkpt>
      <trkpt lat="45.07067" lon="4.86449">
        <ele>133.13400268555</ele>
        <time>2010-03-17T13:20:50Z</time>
      </trkpt>
      <trkpt lat="45.07069" lon="4.86437">
        <ele>133.32099914551</ele>
        <time>2010-03-17T13:20:51Z</time>
      </trkpt>
      <trkpt lat="45.07061" lon="4.86395">
        <ele>132.91900634766</ele>
        <time>2010-03-17T13:20:55Z</time>
      </trkpt>
      <trkpt lat="45.07043" lon="4.86374">
        <ele>131.59199523926</ele>
        <time>2010-03-17T13:20:58Z</time>
      </trkpt>
      <trkpt lat="45.07037" lon="4.86356">
        <ele>133.39799499512</ele>
        <time>2010-03-17T13:21:00Z</time>
      </trkpt>
      <trkpt lat="45.07043" lon="4.86336">
        <ele>133.21600341797</ele>
        <time>2010-03-17T13:21:02Z</time>
      </trkpt>
      <trkpt lat="45.07068" lon="4.8628">
        <ele>133.09700012207</ele>
        <time>2010-03-17T13:21:08Z</time>
      </trkpt>
      <trkpt lat="45.07072" lon="4.86271">
        <ele>133.42300415039</ele>
        <time>2010-03-17T13:21:09Z</time>
      </trkpt>
      <trkpt lat="45.07082" lon="4.86206">
        <ele>132.91299438477</ele>
        <time>2010-03-17T13:21:15Z</time>
      </trkpt>
      <trkpt lat="45.07082" lon="4.86141">
        <ele>131.64900207519</ele>
        <time>2010-03-17T13:21:21Z</time>
      </trkpt>
      <trkpt lat="45.07079" lon="4.86048">
        <ele>130.23199462891</ele>
        <time>2010-03-17T13:21:29Z</time>
      </trkpt>
      <trkpt lat="45.07074" lon="4.85976">
        <ele>131.59700012207</ele>
        <time>2010-03-17T13:21:35Z</time>
      </trkpt>
      <trkpt lat="45.07074" lon="4.85928">
        <ele>131.38200378418</ele>
        <time>2010-03-17T13:21:39Z</time>
      </trkpt>
      <trkpt lat="45.07079" lon="4.85874">
        <ele>132.79400634766</ele>
        <time>2010-03-17T13:21:44Z</time>
      </trkpt>
      <trkpt lat="45.07084" lon="4.8585">
        <ele>133.69200134277</ele>
        <time>2010-03-17T13:21:47Z</time>
      </trkpt>
      <trkpt lat="45.07094" lon="4.8583">
        <ele>133.33599853516</ele>
        <time>2010-03-17T13:21:51Z</time>
      </trkpt>
      <trkpt lat="45.07096" lon="4.85808">
        <ele>132.47200012207</ele>
        <time>2010-03-17T13:21:54Z</time>
      </trkpt>
      <trkpt lat="45.0709" lon="4.8578">
        <ele>130.44900512695</ele>
        <time>2010-03-17T13:21:57Z</time>
      </trkpt>
      <trkpt lat="45.0709" lon="4.85769">
        <ele>129.71699523926</ele>
        <time>2010-03-17T13:21:58Z</time>
      </trkpt>
      <trkpt lat="45.07092" lon="4.85707">
        <ele>128.60899353027</ele>
        <time>2010-03-17T13:22:03Z</time>
      </trkpt>
      <trkpt lat="45.07093" lon="4.85666">
        <ele>126.62699890137</ele>
        <time>2010-03-17T13:22:06Z</time>
      </trkpt>
      <trkpt lat="45.07096" lon="4.85599">
        <ele>126.47499847412</ele>
        <time>2010-03-17T13:22:11Z</time>
      </trkpt>
      <trkpt lat="45.07101" lon="4.85518">
        <ele>126.54399871826</ele>
        <time>2010-03-17T13:22:17Z</time>
      </trkpt>
      <trkpt lat="45.071" lon="4.85424">
        <ele>125.62599945068</ele>
        <time>2010-03-17T13:22:24Z</time>
      </trkpt>
      <trkpt lat="45.07096" lon="4.85321">
        <ele>125.29100036621</ele>
        <time>2010-03-17T13:22:32Z</time>
      </trkpt>
      <trkpt lat="45.07094" lon="4.85235">
        <ele>124.1669998169</ele>
        <time>2010-03-17T13:22:39Z</time>
      </trkpt>
      <trkpt lat="45.0709" lon="4.85166">
        <ele>125.15200042725</ele>
        <time>2010-03-17T13:22:45Z</time>
      </trkpt>
      <trkpt lat="45.07083" lon="4.85062">
        <ele>123.56999969482</ele>
        <time>2010-03-17T13:22:54Z</time>
      </trkpt>
      <trkpt lat="45.0709" lon="4.84998">
        <ele>122.67900085449</ele>
        <time>2010-03-17T13:23:00Z</time>
      </trkpt>
      <trkpt lat="45.07091" lon="4.84986">
        <ele>122.12799835205</ele>
        <time>2010-03-17T13:23:01Z</time>
      </trkpt>
      <trkpt lat="45.07089" lon="4.84947">
        <ele>120.50399780273</ele>
        <time>2010-03-17T13:23:04Z</time>
      </trkpt>
      <trkpt lat="45.07082" lon="4.84923">
        <ele>120.2440032959</ele>
        <time>2010-03-17T13:23:06Z</time>
      </trkpt>
      <trkpt lat="45.07067" lon="4.84877">
        <ele>120.81099700928</ele>
        <time>2010-03-17T13:23:10Z</time>
      </trkpt>
      <trkpt lat="45.07059" lon="4.84833">
        <ele>123.00299835205</ele>
        <time>2010-03-17T13:23:14Z</time>
      </trkpt>
      <trkpt lat="45.07056" lon="4.84816">
        <ele>124.02899932861</ele>
        <time>2010-03-17T13:23:16Z</time>
      </trkpt>
      <trkpt lat="45.07048" lon="4.8475">
        <ele>124.56700134277</ele>
        <time>2010-03-17T13:23:24Z</time>
      </trkpt>
      <trkpt lat="45.07039" lon="4.84678">
        <ele>124.08200073242</ele>
        <time>2010-03-17T13:23:32Z</time>
      </trkpt>
      <trkpt lat="45.07025" lon="4.84607">
        <ele>123.64700317383</ele>
        <time>2010-03-17T13:23:39Z</time>
      </trkpt>
      <trkpt lat="45.07023" lon="4.84574">
        <ele>123.30999755859</ele>
        <time>2010-03-17T13:23:42Z</time>
      </trkpt>
      <trkpt lat="45.07033" lon="4.84476">
        <ele>123.83100128174</ele>
        <time>2010-03-17T13:23:51Z</time>
      </trkpt>
      <trkpt lat="45.07039" lon="4.84406">
        <ele>123.64099884033</ele>
        <time>2010-03-17T13:23:58Z</time>
      </trkpt>
      <trkpt lat="45.07042" lon="4.84352">
        <ele>123.48000335693</ele>
        <time>2010-03-17T13:24:04Z</time>
      </trkpt>
      <trkpt lat="45.0704" lon="4.84323">
        <ele>123.54900360107</ele>
        <time>2010-03-17T13:24:09Z</time>
      </trkpt>
      <trkpt lat="45.07027" lon="4.84333">
        <ele>123.79000091553</ele>
        <time>2010-03-17T13:24:12Z</time>
      </trkpt>
      <trkpt lat="45.07018" lon="4.84339">
        <ele>124.18099975586</ele>
        <time>2010-03-17T13:24:14Z</time>
      </trkpt>
      <trkpt lat="45.06975" lon="4.84343">
        <ele>123.94899749756</ele>
        <time>2010-03-17T13:24:22Z</time>
      </trkpt>
      <trkpt lat="45.06936" lon="4.84345">
        <ele>122.74299621582</ele>
        <time>2010-03-17T13:24:30Z</time>
      </trkpt>
      <trkpt lat="45.06919" lon="4.84346">
        <ele>122.49900054932</ele>
        <time>2010-03-17T13:24:35Z</time>
      </trkpt>
      <trkpt lat="45.06906" lon="4.84347">
        <ele>123.58999633789</ele>
        <time>2010-03-17T13:24:42Z</time>
      </trkpt>
      <trkpt lat="45.06905" lon="4.84347">
        <ele>123.46600341797</ele>
        <time>2010-03-17T13:24:45Z</time>
      </trkpt>
      <trkpt lat="45.06902" lon="4.84347">
        <ele>123.47899627685</ele>
        <time>2010-03-17T13:25:33Z</time>
      </trkpt>
      <trkpt lat="45.06888" lon="4.84348">
        <ele>123.52799987793</ele>
        <time>2010-03-17T13:25:38Z</time>
      </trkpt>
      <trkpt lat="45.06885" lon="4.84348">
        <ele>123.33899688721</ele>
        <time>2010-03-17T13:25:39Z</time>
      </trkpt>
      <trkpt lat="45.06878" lon="4.84335">
        <ele>122.59700012207</ele>
        <time>2010-03-17T13:25:42Z</time>
      </trkpt>
      <trkpt lat="45.06879" lon="4.84327">
        <ele>122.80799865723</ele>
        <time>2010-03-17T13:25:43Z</time>
      </trkpt>
      <trkpt lat="45.06891" lon="4.84282">
        <ele>123.31300354004</ele>
        <time>2010-03-17T13:25:51Z</time>
      </trkpt>
      <trkpt lat="45.06895" lon="4.84269">
        <ele>123.34300231934</ele>
        <time>2010-03-17T13:25:56Z</time>
      </trkpt>
      <trkpt lat="45.06896" lon="4.84267">
        <ele>124.11699676514</ele>
        <time>2010-03-17T13:26:00Z</time>
      </trkpt>
      <trkpt lat="45.069" lon="4.84262">
        <ele>124.02899932861</ele>
        <time>2010-03-17T13:26:35Z</time>
      </trkpt>
      <trkpt lat="45.06901" lon="4.84259">
        <ele>123.91600036621</ele>
        <time>2010-03-17T13:26:36Z</time>
      </trkpt>
      <trkpt lat="45.06905" lon="4.84242">
        <ele>123.73400115967</ele>
        <time>2010-03-17T13:26:40Z</time>
      </trkpt>
      <trkpt lat="45.06908" lon="4.84231">
        <ele>123.875</ele>
        <time>2010-03-17T13:26:42Z</time>
      </trkpt>
      <trkpt lat="45.06901" lon="4.84207">
        <ele>122.94100189209</ele>
        <time>2010-03-17T13:26:46Z</time>
      </trkpt>
      <trkpt lat="45.06891" lon="4.84201">
        <ele>123.35800170898</ele>
        <time>2010-03-17T13:26:48Z</time>
      </trkpt>
      <trkpt lat="45.06882" lon="4.84196">
        <ele>123.62699890137</ele>
        <time>2010-03-17T13:26:50Z</time>
      </trkpt>
      <trkpt lat="45.06872" lon="4.84191">
        <ele>123.70300292969</ele>
        <time>2010-03-17T13:26:52Z</time>
      </trkpt>
      <trkpt lat="45.06834" lon="4.84169">
        <ele>126.35299682617</ele>
        <time>2010-03-17T13:27:00Z</time>
      </trkpt>
      <trkpt lat="45.068" lon="4.84151">
        <ele>127.29599761963</ele>
        <time>2010-03-17T13:27:06Z</time>
      </trkpt>
      <trkpt lat="45.06775" lon="4.84136">
        <ele>127.5120010376</ele>
        <time>2010-03-17T13:27:11Z</time>
      </trkpt>
      <trkpt lat="45.06746" lon="4.84118">
        <ele>127.92099761963</ele>
        <time>2010-03-17T13:27:17Z</time>
      </trkpt>
      <trkpt lat="45.06713" lon="4.84098">
        <ele>125.77799987793</ele>
        <time>2010-03-17T13:27:23Z</time>
      </trkpt>
      <trkpt lat="45.06676" lon="4.84076">
        <ele>129.59700012207</ele>
        <time>2010-03-17T13:27:30Z</time>
      </trkpt>
      <trkpt lat="45.06624" lon="4.84044">
        <ele>128.48699951172</ele>
        <time>2010-03-17T13:27:41Z</time>
      </trkpt>
      <trkpt lat="45.06582" lon="4.84019">
        <ele>128.39100646973</ele>
        <time>2010-03-17T13:27:49Z</time>
      </trkpt>
      <trkpt lat="45.06572" lon="4.84012">
        <ele>128.30599975586</ele>
        <time>2010-03-17T13:27:51Z</time>
      </trkpt>
      <trkpt lat="45.06562" lon="4.83984">
        <ele>126.6549987793</ele>
        <time>2010-03-17T13:27:55Z</time>
      </trkpt>
      <trkpt lat="45.06566" lon="4.83966">
        <ele>127.36599731445</ele>
        <time>2010-03-17T13:27:57Z</time>
      </trkpt>
      <trkpt lat="45.06598" lon="4.83881">
        <ele>126.33599853516</ele>
        <time>2010-03-17T13:28:06Z</time>
      </trkpt>
      <trkpt lat="45.06623" lon="4.83819">
        <ele>125.86499786377</ele>
        <time>2010-03-17T13:28:13Z</time>
      </trkpt>
      <trkpt lat="45.06663" lon="4.83727">
        <ele>126.64600372315</ele>
        <time>2010-03-17T13:28:23Z</time>
      </trkpt>
      <trkpt lat="45.06695" lon="4.83653">
        <ele>127.48500061035</ele>
        <time>2010-03-17T13:28:31Z</time>
      </trkpt>
      <trkpt lat="45.06742" lon="4.83553">
        <ele>127.58599853516</ele>
        <time>2010-03-17T13:28:42Z</time>
      </trkpt>
      <trkpt lat="45.06781" lon="4.83465">
        <ele>127.55599975586</ele>
        <time>2010-03-17T13:28:52Z</time>
      </trkpt>
      <trkpt lat="45.06804" lon="4.83418">
        <ele>126.26899719238</ele>
        <time>2010-03-17T13:28:57Z</time>
      </trkpt>
      <trkpt lat="45.06847" lon="4.8334">
        <ele>124.69400024414</ele>
        <time>2010-03-17T13:29:05Z</time>
      </trkpt>
      <trkpt lat="45.06871" lon="4.83281">
        <ele>125.95999908447</ele>
        <time>2010-03-17T13:29:11Z</time>
      </trkpt>
      <trkpt lat="45.06881" lon="4.8323">
        <ele>125.90799713135</ele>
        <time>2010-03-17T13:29:16Z</time>
      </trkpt>
      <trkpt lat="45.06882" lon="4.83185">
        <ele>127.05599975586</ele>
        <time>2010-03-17T13:29:21Z</time>
      </trkpt>
      <trkpt lat="45.06881" lon="4.83157">
        <ele>126.49900054932</ele>
        <time>2010-03-17T13:29:26Z</time>
      </trkpt>
      <trkpt lat="45.06879" lon="4.83136">
        <ele>127.01100158691</ele>
        <time>2010-03-17T13:29:31Z</time>
      </trkpt>
      <trkpt lat="45.06879" lon="4.83089">
        <ele>126.06099700928</ele>
        <time>2010-03-17T13:29:38Z</time>
      </trkpt>
      <trkpt lat="45.06883" lon="4.83049">
        <ele>125.39199829102</ele>
        <time>2010-03-17T13:29:44Z</time>
      </trkpt>
      <trkpt lat="45.06899" lon="4.82991">
        <ele>125.02700042725</ele>
        <time>2010-03-17T13:29:52Z</time>
      </trkpt>
      <trkpt lat="45.06923" lon="4.82947">
        <ele>125.02100372315</ele>
        <time>2010-03-17T13:29:58Z</time>
      </trkpt>
      <trkpt lat="45.06942" lon="4.82919">
        <ele>125.04000091553</ele>
        <time>2010-03-17T13:30:03Z</time>
      </trkpt>
      <trkpt lat="45.06966" lon="4.82884">
        <ele>125.00099945068</ele>
        <time>2010-03-17T13:30:09Z</time>
      </trkpt>
      <trkpt lat="45.07003" lon="4.82833">
        <ele>125.12200164795</ele>
        <time>2010-03-17T13:30:17Z</time>
      </trkpt>
      <trkpt lat="45.07035" lon="4.82788">
        <ele>125.86599731445</ele>
        <time>2010-03-17T13:30:24Z</time>
      </trkpt>
      <trkpt lat="45.07064" lon="4.82738">
        <ele>125.31900024414</ele>
        <time>2010-03-17T13:30:31Z</time>
      </trkpt>
      <trkpt lat="45.07089" lon="4.82677">
        <ele>125.42099761963</ele>
        <time>2010-03-17T13:30:38Z</time>
      </trkpt>
      <trkpt lat="45.07117" lon="4.82592">
        <ele>124.60299682617</ele>
        <time>2010-03-17T13:30:47Z</time>
      </trkpt>
      <trkpt lat="45.07138" lon="4.8253">
        <ele>125.32299804688</ele>
        <time>2010-03-17T13:30:54Z</time>
      </trkpt>
      <trkpt lat="45.07162" lon="4.82458">
        <ele>124.73999786377</ele>
        <time>2010-03-17T13:31:02Z</time>
      </trkpt>
      <trkpt lat="45.07194" lon="4.82364">
        <ele>125.92400360107</ele>
        <time>2010-03-17T13:31:12Z</time>
      </trkpt>
      <trkpt lat="45.07212" lon="4.82315">
        <ele>127.27600097656</ele>
        <time>2010-03-17T13:31:18Z</time>
      </trkpt>
      <trkpt lat="45.07228" lon="4.82264">
        <ele>128.23199462891</ele>
        <time>2010-03-17T13:31:25Z</time>
      </trkpt>
      <trkpt lat="45.0724" lon="4.82227">
        <ele>129.39300537109</ele>
        <time>2010-03-17T13:31:31Z</time>
      </trkpt>
      <trkpt lat="45.07251" lon="4.82211">
        <ele>129.52000427246</ele>
        <time>2010-03-17T13:31:34Z</time>
      </trkpt>
      <trkpt lat="45.07258" lon="4.82198">
        <ele>128.44400024414</ele>
        <time>2010-03-17T13:31:36Z</time>
      </trkpt>
      <trkpt lat="45.07255" lon="4.82183">
        <ele>128.5059967041</ele>
        <time>2010-03-17T13:31:38Z</time>
      </trkpt>
      <trkpt lat="45.07241" lon="4.82173">
        <ele>129.09700012207</ele>
        <time>2010-03-17T13:31:41Z</time>
      </trkpt>
      <trkpt lat="45.07231" lon="4.8217">
        <ele>128.87300109863</ele>
        <time>2010-03-17T13:31:45Z</time>
      </trkpt>
      <trkpt lat="45.07227" lon="4.82168">
        <ele>128.87300109863</ele>
        <time>2010-03-17T13:31:46Z</time>
      </trkpt>
      <trkpt lat="45.07196" lon="4.82135">
        <ele>128.38800048828</ele>
        <time>2010-03-17T13:31:53Z</time>
      </trkpt>
      <trkpt lat="45.07144" lon="4.82083">
        <ele>128.62800598144</ele>
        <time>2010-03-17T13:32:03Z</time>
      </trkpt>
      <trkpt lat="45.07122" lon="4.82062">
        <ele>129.40699768066</ele>
        <time>2010-03-17T13:32:07Z</time>
      </trkpt>
      <trkpt lat="45.07086" lon="4.8202">
        <ele>129.10800170898</ele>
        <time>2010-03-17T13:32:14Z</time>
      </trkpt>
      <trkpt lat="45.07042" lon="4.81968">
        <ele>130.08700561523</ele>
        <time>2010-03-17T13:32:23Z</time>
      </trkpt>
      <trkpt lat="45.07018" lon="4.81927">
        <ele>130.96499633789</ele>
        <time>2010-03-17T13:32:29Z</time>
      </trkpt>
      <trkpt lat="45.07001" lon="4.8189">
        <ele>130.36099243164</ele>
        <time>2010-03-17T13:32:34Z</time>
      </trkpt>
      <trkpt lat="45.06982" lon="4.81826">
        <ele>132.19500732422</ele>
        <time>2010-03-17T13:32:43Z</time>
      </trkpt>
      <trkpt lat="45.06966" lon="4.81767">
        <ele>132.00300598144</ele>
        <time>2010-03-17T13:32:51Z</time>
      </trkpt>
      <trkpt lat="45.06945" lon="4.81696">
        <ele>132.26100158691</ele>
        <time>2010-03-17T13:33:00Z</time>
      </trkpt>
      <trkpt lat="45.06925" lon="4.81625">
        <ele>132.55099487305</ele>
        <time>2010-03-17T13:33:09Z</time>
      </trkpt>
      <trkpt lat="45.06906" lon="4.8156">
        <ele>132.61399841309</ele>
        <time>2010-03-17T13:33:17Z</time>
      </trkpt>
      <trkpt lat="45.06889" lon="4.81502">
        <ele>133.09100341797</ele>
        <time>2010-03-17T13:33:24Z</time>
      </trkpt>
      <trkpt lat="45.06873" lon="4.81444">
        <ele>133.14900207519</ele>
        <time>2010-03-17T13:33:31Z</time>
      </trkpt>
      <trkpt lat="45.06857" lon="4.81396">
        <ele>134.16700744629</ele>
        <time>2010-03-17T13:33:37Z</time>
      </trkpt>
      <trkpt lat="45.0683" lon="4.81329">
        <ele>135.10200500488</ele>
        <time>2010-03-17T13:33:46Z</time>
      </trkpt>
      <trkpt lat="45.06807" lon="4.81279">
        <ele>136.42900085449</ele>
        <time>2010-03-17T13:33:53Z</time>
      </trkpt>
      <trkpt lat="45.0679" lon="4.81236">
        <ele>137.31500244141</ele>
        <time>2010-03-17T13:33:59Z</time>
      </trkpt>
      <trkpt lat="45.06778" lon="4.81197">
        <ele>137.14100646973</ele>
        <time>2010-03-17T13:34:04Z</time>
      </trkpt>
      <trkpt lat="45.06746" lon="4.81114">
        <ele>137.82200622559</ele>
        <time>2010-03-17T13:34:15Z</time>
      </trkpt>
      <trkpt lat="45.06734" lon="4.81077">
        <ele>138.18499755859</ele>
        <time>2010-03-17T13:34:20Z</time>
      </trkpt>
      <trkpt lat="45.06724" lon="4.80996">
        <ele>137.02699279785</ele>
        <time>2010-03-17T13:34:29Z</time>
      </trkpt>
      <trkpt lat="45.06717" lon="4.80909">
        <ele>135.74299621582</ele>
        <time>2010-03-17T13:34:38Z</time>
      </trkpt>
      <trkpt lat="45.06715" lon="4.8089">
        <ele>136.01499938965</ele>
        <time>2010-03-17T13:34:40Z</time>
      </trkpt>
      <trkpt lat="45.06719" lon="4.8085">
        <ele>135.34700012207</ele>
        <time>2010-03-17T13:34:44Z</time>
      </trkpt>
      <trkpt lat="45.06713" lon="4.80832">
        <ele>133.80599975586</ele>
        <time>2010-03-17T13:34:46Z</time>
      </trkpt>
      <trkpt lat="45.06701" lon="4.80785">
        <ele>133.23399353027</ele>
        <time>2010-03-17T13:34:51Z</time>
      </trkpt>
      <trkpt lat="45.06692" lon="4.80679">
        <ele>134.01300048828</ele>
        <time>2010-03-17T13:35:01Z</time>
      </trkpt>
      <trkpt lat="45.06691" lon="4.80567">
        <ele>133.26499938965</ele>
        <time>2010-03-17T13:35:11Z</time>
      </trkpt>
      <trkpt lat="45.06691" lon="4.80523">
        <ele>132.64900207519</ele>
        <time>2010-03-17T13:35:15Z</time>
      </trkpt>
      <trkpt lat="45.06691" lon="4.8041">
        <ele>131.57600402832</ele>
        <time>2010-03-17T13:35:25Z</time>
      </trkpt>
      <trkpt lat="45.06692" lon="4.80327">
        <ele>132.00399780273</ele>
        <time>2010-03-17T13:35:33Z</time>
      </trkpt>
      <trkpt lat="45.06693" lon="4.80283">
        <ele>132.87399291992</ele>
        <time>2010-03-17T13:35:37Z</time>
      </trkpt>
      <trkpt lat="45.06695" lon="4.80181">
        <ele>133.01400756836</ele>
        <time>2010-03-17T13:35:46Z</time>
      </trkpt>
      <trkpt lat="45.06697" lon="4.80072">
        <ele>133.05299377441</ele>
        <time>2010-03-17T13:35:56Z</time>
      </trkpt>
      <trkpt lat="45.06699" lon="4.79977">
        <ele>133.10299682617</ele>
        <time>2010-03-17T13:36:05Z</time>
      </trkpt>
      <trkpt lat="45.06699" lon="4.79849">
        <ele>133.28900146484</ele>
        <time>2010-03-17T13:36:17Z</time>
      </trkpt>
      <trkpt lat="45.06695" lon="4.79789">
        <ele>133.26100158691</ele>
        <time>2010-03-17T13:36:23Z</time>
      </trkpt>
      <trkpt lat="45.06677" lon="4.79732">
        <ele>134.87100219727</ele>
        <time>2010-03-17T13:36:30Z</time>
      </trkpt>
      <trkpt lat="45.06644" lon="4.79658">
        <ele>136.76600646973</ele>
        <time>2010-03-17T13:36:40Z</time>
      </trkpt>
      <trkpt lat="45.06612" lon="4.79584">
        <ele>137.33200073242</ele>
        <time>2010-03-17T13:36:50Z</time>
      </trkpt>
      <trkpt lat="45.06585" lon="4.79502">
        <ele>136.75500488281</ele>
        <time>2010-03-17T13:37:00Z</time>
      </trkpt>
      <trkpt lat="45.0658" lon="4.79487">
        <ele>137.57000732422</ele>
        <time>2010-03-17T13:37:02Z</time>
      </trkpt>
      <trkpt lat="45.06561" lon="4.79431">
        <ele>138.83000183106</ele>
        <time>2010-03-17T13:37:09Z</time>
      </trkpt>
      <trkpt lat="45.06535" lon="4.79366">
        <ele>139.66200256348</ele>
        <time>2010-03-17T13:37:17Z</time>
      </trkpt>
      <trkpt lat="45.0651" lon="4.79334">
        <ele>140.22399902344</ele>
        <time>2010-03-17T13:37:22Z</time>
      </trkpt>
      <trkpt lat="45.06474" lon="4.79294">
        <ele>141.05999755859</ele>
        <time>2010-03-17T13:37:29Z</time>
      </trkpt>
      <trkpt lat="45.06446" lon="4.79243">
        <ele>141.36000061035</ele>
        <time>2010-03-17T13:37:36Z</time>
      </trkpt>
      <trkpt lat="45.0644" lon="4.79226">
        <ele>141.13299560547</ele>
        <time>2010-03-17T13:37:38Z</time>
      </trkpt>
      <trkpt lat="45.06432" lon="4.7918">
        <ele>140.59300231934</ele>
        <time>2010-03-17T13:37:43Z</time>
      </trkpt>
      <trkpt lat="45.06435" lon="4.79143">
        <ele>140.77600097656</ele>
        <time>2010-03-17T13:37:47Z</time>
      </trkpt>
      <trkpt lat="45.06437" lon="4.79135">
        <ele>141.07400512695</ele>
        <time>2010-03-17T13:37:48Z</time>
      </trkpt>
      <trkpt lat="45.0646" lon="4.79069">
        <ele>141.47500610352</ele>
        <time>2010-03-17T13:37:56Z</time>
      </trkpt>
      <trkpt lat="45.06482" lon="4.79">
        <ele>141.96800231934</ele>
        <time>2010-03-17T13:38:04Z</time>
      </trkpt>
      <trkpt lat="45.06501" lon="4.7891">
        <ele>142.8450012207</ele>
        <time>2010-03-17T13:38:14Z</time>
      </trkpt>
      <trkpt lat="45.06515" lon="4.78838">
        <ele>143.41999816894</ele>
        <time>2010-03-17T13:38:22Z</time>
      </trkpt>
      <trkpt lat="45.06535" lon="4.78774">
        <ele>143.74099731445</ele>
        <time>2010-03-17T13:38:30Z</time>
      </trkpt>
      <trkpt lat="45.06564" lon="4.78721">
        <ele>144.8450012207</ele>
        <time>2010-03-17T13:38:38Z</time>
      </trkpt>
      <trkpt lat="45.06601" lon="4.7865">
        <ele>145.7380065918</ele>
        <time>2010-03-17T13:38:49Z</time>
      </trkpt>
      <trkpt lat="45.0662" lon="4.78585">
        <ele>146.40600585938</ele>
        <time>2010-03-17T13:38:58Z</time>
      </trkpt>
      <trkpt lat="45.06637" lon="4.78506">
        <ele>147.37800598144</ele>
        <time>2010-03-17T13:39:09Z</time>
      </trkpt>
      <trkpt lat="45.06638" lon="4.78462">
        <ele>147.54600524902</ele>
        <time>2010-03-17T13:39:15Z</time>
      </trkpt>
      <trkpt lat="45.0663" lon="4.78412">
        <ele>148.49899291992</ele>
        <time>2010-03-17T13:39:22Z</time>
      </trkpt>
      <trkpt lat="45.06627" lon="4.7836">
        <ele>150.1130065918</ele>
        <time>2010-03-17T13:39:30Z</time>
      </trkpt>
      <trkpt lat="45.06628" lon="4.78321">
        <ele>151.0950012207</ele>
        <time>2010-03-17T13:39:36Z</time>
      </trkpt>
      <trkpt lat="45.06629" lon="4.78254">
        <ele>152.42199707031</ele>
        <time>2010-03-17T13:39:46Z</time>
      </trkpt>
      <trkpt lat="45.06625" lon="4.78206">
        <ele>152.83700561523</ele>
        <time>2010-03-17T13:39:53Z</time>
      </trkpt>
      <trkpt lat="45.06619" lon="4.78187">
        <ele>153.24099731445</ele>
        <time>2010-03-17T13:39:56Z</time>
      </trkpt>
      <trkpt lat="45.06613" lon="4.78175">
        <ele>153.36099243164</ele>
        <time>2010-03-17T13:39:58Z</time>
      </trkpt>
      <trkpt lat="45.06609" lon="4.78151">
        <ele>153.71099853516</ele>
        <time>2010-03-17T13:40:02Z</time>
      </trkpt>
      <trkpt lat="45.06619" lon="4.78138">
        <ele>154.21600341797</ele>
        <time>2010-03-17T13:40:05Z</time>
      </trkpt>
      <trkpt lat="45.06636" lon="4.78123">
        <ele>154.38200378418</ele>
        <time>2010-03-17T13:40:09Z</time>
      </trkpt>
      <trkpt lat="45.06666" lon="4.78109">
        <ele>156.10400390625</ele>
        <time>2010-03-17T13:40:17Z</time>
      </trkpt>
      <trkpt lat="45.06695" lon="4.78095">
        <ele>155.14599609375</ele>
        <time>2010-03-17T13:40:24Z</time>
      </trkpt>
      <trkpt lat="45.06713" lon="4.78099">
        <ele>154.92700195312</ele>
        <time>2010-03-17T13:40:28Z</time>
      </trkpt>
      <trkpt lat="45.06718" lon="4.78106">
        <ele>155.32200622559</ele>
        <time>2010-03-17T13:40:30Z</time>
      </trkpt>
      <trkpt lat="45.06723" lon="4.78114">
        <ele>155.31700134277</ele>
        <time>2010-03-17T13:40:32Z</time>
      </trkpt>
      <trkpt lat="45.06731" lon="4.78139">
        <ele>155.52200317383</ele>
        <time>2010-03-17T13:40:37Z</time>
      </trkpt>
      <trkpt lat="45.06739" lon="4.78173">
        <ele>158.30499267578</ele>
        <time>2010-03-17T13:40:44Z</time>
      </trkpt>
      <trkpt lat="45.0674" lon="4.78178">
        <ele>158.60400390625</ele>
        <time>2010-03-17T13:40:45Z</time>
      </trkpt>
      <trkpt lat="45.06747" lon="4.78211">
        <ele>159.28300476074</ele>
        <time>2010-03-17T13:40:52Z</time>
      </trkpt>
      <trkpt lat="45.0675" lon="4.78224">
        <ele>161.08500671387</ele>
        <time>2010-03-17T13:40:55Z</time>
      </trkpt>
      <trkpt lat="45.06756" lon="4.78257">
        <ele>163.01699829102</ele>
        <time>2010-03-17T13:41:03Z</time>
      </trkpt>
      <trkpt lat="45.06763" lon="4.78283">
        <ele>164.17900085449</ele>
        <time>2010-03-17T13:41:10Z</time>
      </trkpt>
      <trkpt lat="45.06779" lon="4.78301">
        <ele>164.9640045166</ele>
        <time>2010-03-17T13:41:17Z</time>
      </trkpt>
      <trkpt lat="45.06799" lon="4.78321">
        <ele>166.88999938965</ele>
        <time>2010-03-17T13:41:26Z</time>
      </trkpt>
      <trkpt lat="45.06825" lon="4.7834">
        <ele>169.23300170898</ele>
        <time>2010-03-17T13:41:36Z</time>
      </trkpt>
      <trkpt lat="45.06849" lon="4.78348">
        <ele>170.77600097656</ele>
        <time>2010-03-17T13:41:44Z</time>
      </trkpt>
      <trkpt lat="45.06876" lon="4.78353">
        <ele>172.70399475098</ele>
        <time>2010-03-17T13:41:53Z</time>
      </trkpt>
      <trkpt lat="45.06892" lon="4.78356">
        <ele>174.38499450684</ele>
        <time>2010-03-17T13:41:59Z</time>
      </trkpt>
      <trkpt lat="45.06907" lon="4.78363">
        <ele>175.88200378418</ele>
        <time>2010-03-17T13:42:05Z</time>
      </trkpt>
      <trkpt lat="45.06915" lon="4.78383">
        <ele>177.44400024414</ele>
        <time>2010-03-17T13:42:11Z</time>
      </trkpt>
      <trkpt lat="45.0691" lon="4.78402">
        <ele>178.67799377441</ele>
        <time>2010-03-17T13:42:16Z</time>
      </trkpt>
      <trkpt lat="45.06894" lon="4.78424">
        <ele>180.0950012207</ele>
        <time>2010-03-17T13:42:24Z</time>
      </trkpt>
      <trkpt lat="45.06882" lon="4.78445">
        <ele>181.23199462891</ele>
        <time>2010-03-17T13:42:31Z</time>
      </trkpt>
      <trkpt lat="45.06879" lon="4.78473">
        <ele>182.6130065918</ele>
        <time>2010-03-17T13:42:38Z</time>
      </trkpt>
      <trkpt lat="45.06882" lon="4.78504">
        <ele>184.13499450684</ele>
        <time>2010-03-17T13:42:46Z</time>
      </trkpt>
      <trkpt lat="45.06887" lon="4.78534">
        <ele>185.72200012207</ele>
        <time>2010-03-17T13:42:54Z</time>
      </trkpt>
      <trkpt lat="45.06894" lon="4.78578">
        <ele>187.81399536133</ele>
        <time>2010-03-17T13:43:05Z</time>
      </trkpt>
      <trkpt lat="45.06901" lon="4.78619">
        <ele>190.375</ele>
        <time>2010-03-17T13:43:15Z</time>
      </trkpt>
      <trkpt lat="45.06906" lon="4.78657">
        <ele>191.61199951172</ele>
        <time>2010-03-17T13:43:24Z</time>
      </trkpt>
      <trkpt lat="45.06913" lon="4.78695">
        <ele>194.35899353027</ele>
        <time>2010-03-17T13:43:33Z</time>
      </trkpt>
      <trkpt lat="45.06925" lon="4.7873">
        <ele>195.22099304199</ele>
        <time>2010-03-17T13:43:42Z</time>
      </trkpt>
      <trkpt lat="45.06942" lon="4.78753">
        <ele>198.05900573731</ele>
        <time>2010-03-17T13:43:50Z</time>
      </trkpt>
      <trkpt lat="45.06957" lon="4.78779">
        <ele>198.86700439453</ele>
        <time>2010-03-17T13:43:58Z</time>
      </trkpt>
      <trkpt lat="45.06956" lon="4.788">
        <ele>199.89199829102</ele>
        <time>2010-03-17T13:44:03Z</time>
      </trkpt>
      <trkpt lat="45.06954" lon="4.78826">
        <ele>201.62699890137</ele>
        <time>2010-03-17T13:44:09Z</time>
      </trkpt>
      <trkpt lat="45.0696" lon="4.7885">
        <ele>203.36799621582</ele>
        <time>2010-03-17T13:44:15Z</time>
      </trkpt>
      <trkpt lat="45.06974" lon="4.78878">
        <ele>205.02699279785</ele>
        <time>2010-03-17T13:44:24Z</time>
      </trkpt>
      <trkpt lat="45.06976" lon="4.78898">
        <ele>206.35000610352</ele>
        <time>2010-03-17T13:44:29Z</time>
      </trkpt>
      <trkpt lat="45.06966" lon="4.78918">
        <ele>207.8869934082</ele>
        <time>2010-03-17T13:44:35Z</time>
      </trkpt>
      <trkpt lat="45.0695" lon="4.78937">
        <ele>209.13000488281</ele>
        <time>2010-03-17T13:44:42Z</time>
      </trkpt>
      <trkpt lat="45.0694" lon="4.78958">
        <ele>210.71299743652</ele>
        <time>2010-03-17T13:44:48Z</time>
      </trkpt>
      <trkpt lat="45.06936" lon="4.78988">
        <ele>211.58000183106</ele>
        <time>2010-03-17T13:44:55Z</time>
      </trkpt>
      <trkpt lat="45.06939" lon="4.79035">
        <ele>214.03500366211</ele>
        <time>2010-03-17T13:45:06Z</time>
      </trkpt>
      <trkpt lat="45.06945" lon="4.79068">
        <ele>215.40100097656</ele>
        <time>2010-03-17T13:45:14Z</time>
      </trkpt>
      <trkpt lat="45.06959" lon="4.79088">
        <ele>216.96099853516</ele>
        <time>2010-03-17T13:45:21Z</time>
      </trkpt>
      <trkpt lat="45.06984" lon="4.79107">
        <ele>218.50999450684</ele>
        <time>2010-03-17T13:45:30Z</time>
      </trkpt>
      <trkpt lat="45.07008" lon="4.79125">
        <ele>220.63400268555</ele>
        <time>2010-03-17T13:45:39Z</time>
      </trkpt>
      <trkpt lat="45.07017" lon="4.79126">
        <ele>221.30000305176</ele>
        <time>2010-03-17T13:45:42Z</time>
      </trkpt>
      <trkpt lat="45.07022" lon="4.79112">
        <ele>221.87800598144</ele>
        <time>2010-03-17T13:45:46Z</time>
      </trkpt>
      <trkpt lat="45.07014" lon="4.79098">
        <ele>222.21099853516</ele>
        <time>2010-03-17T13:45:50Z</time>
      </trkpt>
      <trkpt lat="45.07011" lon="4.79095">
        <ele>222.30200195312</ele>
        <time>2010-03-17T13:45:51Z</time>
      </trkpt>
      <trkpt lat="45.06987" lon="4.79075">
        <ele>223.55299377441</ele>
        <time>2010-03-17T13:45:59Z</time>
      </trkpt>
      <trkpt lat="45.06973" lon="4.79051">
        <ele>225.58999633789</ele>
        <time>2010-03-17T13:46:06Z</time>
      </trkpt>
      <trkpt lat="45.06968" lon="4.79025">
        <ele>227.44099426269</ele>
        <time>2010-03-17T13:46:13Z</time>
      </trkpt>
      <trkpt lat="45.06971" lon="4.78997">
        <ele>229.08000183106</ele>
        <time>2010-03-17T13:46:20Z</time>
      </trkpt>
      <trkpt lat="45.06985" lon="4.7897">
        <ele>230.93699645996</ele>
        <time>2010-03-17T13:46:28Z</time>
      </trkpt>
      <trkpt lat="45.07007" lon="4.78946">
        <ele>232.64799499512</ele>
        <time>2010-03-17T13:46:37Z</time>
      </trkpt>
      <trkpt lat="45.07029" lon="4.78934">
        <ele>234.63299560547</ele>
        <time>2010-03-17T13:46:45Z</time>
      </trkpt>
      <trkpt lat="45.07039" lon="4.78918">
        <ele>234.82800292969</ele>
        <time>2010-03-17T13:46:50Z</time>
      </trkpt>
      <trkpt lat="45.07039" lon="4.78898">
        <ele>234.93800354004</ele>
        <time>2010-03-17T13:46:54Z</time>
      </trkpt>
      <trkpt lat="45.0703" lon="4.78867">
        <ele>236.07499694824</ele>
        <time>2010-03-17T13:47:01Z</time>
      </trkpt>
      <trkpt lat="45.07017" lon="4.78827">
        <ele>238.30799865723</ele>
        <time>2010-03-17T13:47:11Z</time>
      </trkpt>
      <trkpt lat="45.07017" lon="4.78796">
        <ele>239.57099914551</ele>
        <time>2010-03-17T13:47:18Z</time>
      </trkpt>
      <trkpt lat="45.07021" lon="4.78772">
        <ele>240.71299743652</ele>
        <time>2010-03-17T13:47:24Z</time>
      </trkpt>
      <trkpt lat="45.07025" lon="4.7874">
        <ele>242.26400756836</ele>
        <time>2010-03-17T13:47:32Z</time>
      </trkpt>
      <trkpt lat="45.07022" lon="4.78712">
        <ele>243.27000427246</ele>
        <time>2010-03-17T13:47:39Z</time>
      </trkpt>
      <trkpt lat="45.0701" lon="4.78688">
        <ele>244.62399291992</ele>
        <time>2010-03-17T13:47:46Z</time>
      </trkpt>
      <trkpt lat="45.06996" lon="4.78655">
        <ele>245.46800231934</ele>
        <time>2010-03-17T13:47:55Z</time>
      </trkpt>
      <trkpt lat="45.06994" lon="4.78636">
        <ele>247.41499328613</ele>
        <time>2010-03-17T13:48:00Z</time>
      </trkpt>
      <trkpt lat="45.06997" lon="4.78605">
        <ele>248.98500061035</ele>
        <time>2010-03-17T13:48:08Z</time>
      </trkpt>
      <trkpt lat="45.07007" lon="4.78576">
        <ele>250.46600341797</ele>
        <time>2010-03-17T13:48:16Z</time>
      </trkpt>
      <trkpt lat="45.07022" lon="4.78558">
        <ele>252.16700744629</ele>
        <time>2010-03-17T13:48:23Z</time>
      </trkpt>
      <trkpt lat="45.07044" lon="4.78538">
        <ele>253.58799743652</ele>
        <time>2010-03-17T13:48:32Z</time>
      </trkpt>
      <trkpt lat="45.07066" lon="4.7851">
        <ele>255.94900512695</ele>
        <time>2010-03-17T13:48:42Z</time>
      </trkpt>
      <trkpt lat="45.07073" lon="4.78486">
        <ele>256.41799926758</ele>
        <time>2010-03-17T13:48:48Z</time>
      </trkpt>
      <trkpt lat="45.07072" lon="4.78465">
        <ele>257.11401367188</ele>
        <time>2010-03-17T13:48:53Z</time>
      </trkpt>
      <trkpt lat="45.07076" lon="4.78433">
        <ele>259.89898681641</ele>
        <time>2010-03-17T13:49:01Z</time>
      </trkpt>
      <trkpt lat="45.07093" lon="4.78396">
        <ele>262.67599487305</ele>
        <time>2010-03-17T13:49:12Z</time>
      </trkpt>
      <trkpt lat="45.07109" lon="4.78378">
        <ele>264.2200012207</ele>
        <time>2010-03-17T13:49:19Z</time>
      </trkpt>
      <trkpt lat="45.07127" lon="4.78374">
        <ele>265.71099853516</ele>
        <time>2010-03-17T13:49:25Z</time>
      </trkpt>
      <trkpt lat="45.07152" lon="4.78373">
        <ele>267.17599487305</ele>
        <time>2010-03-17T13:49:33Z</time>
      </trkpt>
      <trkpt lat="45.0719" lon="4.78379">
        <ele>269.6789855957</ele>
        <time>2010-03-17T13:49:46Z</time>
      </trkpt>
      <trkpt lat="45.07212" lon="4.78391">
        <ele>271.15100097656</ele>
        <time>2010-03-17T13:49:54Z</time>
      </trkpt>
      <trkpt lat="45.07245" lon="4.78405">
        <ele>273.06900024414</ele>
        <time>2010-03-17T13:50:06Z</time>
      </trkpt>
      <trkpt lat="45.07268" lon="4.78423">
        <ele>274.74600219727</ele>
        <time>2010-03-17T13:50:15Z</time>
      </trkpt>
      <trkpt lat="45.07288" lon="4.78428">
        <ele>275.58200073242</ele>
        <time>2010-03-17T13:50:22Z</time>
      </trkpt>
      <trkpt lat="45.073" lon="4.78415">
        <ele>276.33099365234</ele>
        <time>2010-03-17T13:50:27Z</time>
      </trkpt>
      <trkpt lat="45.07302" lon="4.78394">
        <ele>277.51998901367</ele>
        <time>2010-03-17T13:50:32Z</time>
      </trkpt>
      <trkpt lat="45.07299" lon="4.78373">
        <ele>278.53201293945</ele>
        <time>2010-03-17T13:50:37Z</time>
      </trkpt>
      <trkpt lat="45.07292" lon="4.78335">
        <ele>280.84399414062</ele>
        <time>2010-03-17T13:50:46Z</time>
      </trkpt>
      <trkpt lat="45.07279" lon="4.7831">
        <ele>282.22601318359</ele>
        <time>2010-03-17T13:50:53Z</time>
      </trkpt>
      <trkpt lat="45.07262" lon="4.78292">
        <ele>283.75500488281</ele>
        <time>2010-03-17T13:51:00Z</time>
      </trkpt>
      <trkpt lat="45.07258" lon="4.78287">
        <ele>283.45599365234</ele>
        <time>2010-03-17T13:51:04Z</time>
      </trkpt>
      <trkpt lat="45.07258" lon="4.78287">
        <ele>283.74398803711</ele>
        <time>2010-03-17T13:51:05Z</time>
      </trkpt>
      <trkpt lat="45.07254" lon="4.78287">
        <ele>284.01699829102</ele>
        <time>2010-03-17T13:51:53Z</time>
      </trkpt>
      <trkpt lat="45.07253" lon="4.78286">
        <ele>283.94799804688</ele>
        <time>2010-03-17T13:51:54Z</time>
      </trkpt>
      <trkpt lat="45.07243" lon="4.78275">
        <ele>284.91198730469</ele>
        <time>2010-03-17T13:52:00Z</time>
      </trkpt>
      <trkpt lat="45.07231" lon="4.78258">
        <ele>285.69100952148</ele>
        <time>2010-03-17T13:52:05Z</time>
      </trkpt>
      <trkpt lat="45.07218" lon="4.78237">
        <ele>287.72100830078</ele>
        <time>2010-03-17T13:52:10Z</time>
      </trkpt>
      <trkpt lat="45.07205" lon="4.78217">
        <ele>288.24398803711</ele>
        <time>2010-03-17T13:52:15Z</time>
      </trkpt>
      <trkpt lat="45.07179" lon="4.78186">
        <ele>290.59201049805</ele>
        <time>2010-03-17T13:52:24Z</time>
      </trkpt>
      <trkpt lat="45.07154" lon="4.78165">
        <ele>292.04000854492</ele>
        <time>2010-03-17T13:52:32Z</time>
      </trkpt>
      <trkpt lat="45.07128" lon="4.78143">
        <ele>294.13198852539</ele>
        <time>2010-03-17T13:52:41Z</time>
      </trkpt>
      <trkpt lat="45.07116" lon="4.78121">
        <ele>295.60998535156</ele>
        <time>2010-03-17T13:52:47Z</time>
      </trkpt>
      <trkpt lat="45.07104" lon="4.78084">
        <ele>297.58999633789</ele>
        <time>2010-03-17T13:52:55Z</time>
      </trkpt>
      <trkpt lat="45.07091" lon="4.7806">
        <ele>298.60299682617</ele>
        <time>2010-03-17T13:53:01Z</time>
      </trkpt>
      <trkpt lat="45.07074" lon="4.78036">
        <ele>299.9469909668</ele>
        <time>2010-03-17T13:53:08Z</time>
      </trkpt>
      <trkpt lat="45.07062" lon="4.78004">
        <ele>301.63500976562</ele>
        <time>2010-03-17T13:53:16Z</time>
      </trkpt>
      <trkpt lat="45.07057" lon="4.77975">
        <ele>303.16900634766</ele>
        <time>2010-03-17T13:53:22Z</time>
      </trkpt>
      <trkpt lat="45.07063" lon="4.77951">
        <ele>304.92401123047</ele>
        <time>2010-03-17T13:53:27Z</time>
      </trkpt>
      <trkpt lat="45.07079" lon="4.77936">
        <ele>305.4280090332</ele>
        <time>2010-03-17T13:53:32Z</time>
      </trkpt>
      <trkpt lat="45.07109" lon="4.77932">
        <ele>307.6669921875</ele>
        <time>2010-03-17T13:53:40Z</time>
      </trkpt>
      <trkpt lat="45.0714" lon="4.77924">
        <ele>309.11599731445</ele>
        <time>2010-03-17T13:53:49Z</time>
      </trkpt>
      <trkpt lat="45.07166" lon="4.77905">
        <ele>310.74600219727</ele>
        <time>2010-03-17T13:53:57Z</time>
      </trkpt>
      <trkpt lat="45.07188" lon="4.77896">
        <ele>312.46499633789</ele>
        <time>2010-03-17T13:54:03Z</time>
      </trkpt>
      <trkpt lat="45.07226" lon="4.77888">
        <ele>314.73999023438</ele>
        <time>2010-03-17T13:54:13Z</time>
      </trkpt>
      <trkpt lat="45.07253" lon="4.77884">
        <ele>316.47500610352</ele>
        <time>2010-03-17T13:54:21Z</time>
      </trkpt>
      <trkpt lat="45.07277" lon="4.77883">
        <ele>318.6130065918</ele>
        <time>2010-03-17T13:54:28Z</time>
      </trkpt>
      <trkpt lat="45.07311" lon="4.7788">
        <ele>320.59600830078</ele>
        <time>2010-03-17T13:54:38Z</time>
      </trkpt>
      <trkpt lat="45.07345" lon="4.77877">
        <ele>322.88800048828</ele>
        <time>2010-03-17T13:54:48Z</time>
      </trkpt>
      <trkpt lat="45.07374" lon="4.7787">
        <ele>324.75500488281</ele>
        <time>2010-03-17T13:54:56Z</time>
      </trkpt>
      <trkpt lat="45.07397" lon="4.7786">
        <ele>326.24600219727</ele>
        <time>2010-03-17T13:55:03Z</time>
      </trkpt>
      <trkpt lat="45.07415" lon="4.77854">
        <ele>327.6960144043</ele>
        <time>2010-03-17T13:55:09Z</time>
      </trkpt>
      <trkpt lat="45.07438" lon="4.77846">
        <ele>328.88198852539</ele>
        <time>2010-03-17T13:55:16Z</time>
      </trkpt>
      <trkpt lat="45.07459" lon="4.77851">
        <ele>330.39300537109</ele>
        <time>2010-03-17T13:55:23Z</time>
      </trkpt>
      <trkpt lat="45.07475" lon="4.77864">
        <ele>331.97799682617</ele>
        <time>2010-03-17T13:55:29Z</time>
      </trkpt>
      <trkpt lat="45.07495" lon="4.77882">
        <ele>333.27600097656</ele>
        <time>2010-03-17T13:55:36Z</time>
      </trkpt>
      <trkpt lat="45.07512" lon="4.77896">
        <ele>334.35699462891</ele>
        <time>2010-03-17T13:55:42Z</time>
      </trkpt>
      <trkpt lat="45.07529" lon="4.77907">
        <ele>335.42199707031</ele>
        <time>2010-03-17T13:55:48Z</time>
      </trkpt>
      <trkpt lat="45.07552" lon="4.77924">
        <ele>337.01599121094</ele>
        <time>2010-03-17T13:55:56Z</time>
      </trkpt>
      <trkpt lat="45.0758" lon="4.77948">
        <ele>339.19000244141</ele>
        <time>2010-03-17T13:56:06Z</time>
      </trkpt>
      <trkpt lat="45.07595" lon="4.77959">
        <ele>340.25601196289</ele>
        <time>2010-03-17T13:56:11Z</time>
      </trkpt>
      <trkpt lat="45.07619" lon="4.77975">
        <ele>342.06399536133</ele>
        <time>2010-03-17T13:56:19Z</time>
      </trkpt>
      <trkpt lat="45.07645" lon="4.77993">
        <ele>343.75201416016</ele>
        <time>2010-03-17T13:56:28Z</time>
      </trkpt>
      <trkpt lat="45.07669" lon="4.7801">
        <ele>345.28601074219</ele>
        <time>2010-03-17T13:56:36Z</time>
      </trkpt>
      <trkpt lat="45.07704" lon="4.78028">
        <ele>347.67300415039</ele>
        <time>2010-03-17T13:56:47Z</time>
      </trkpt>
      <trkpt lat="45.07732" lon="4.78038">
        <ele>349.79699707031</ele>
        <time>2010-03-17T13:56:56Z</time>
      </trkpt>
      <trkpt lat="45.07757" lon="4.78047">
        <ele>351.51901245117</ele>
        <time>2010-03-17T13:57:04Z</time>
      </trkpt>
      <trkpt lat="45.07787" lon="4.78053">
        <ele>353.20599365234</ele>
        <time>2010-03-17T13:57:13Z</time>
      </trkpt>
      <trkpt lat="45.07814" lon="4.78055">
        <ele>354.8039855957</ele>
        <time>2010-03-17T13:57:21Z</time>
      </trkpt>
      <trkpt lat="45.07841" lon="4.78052">
        <ele>356.61499023438</ele>
        <time>2010-03-17T13:57:29Z</time>
      </trkpt>
      <trkpt lat="45.07864" lon="4.78047">
        <ele>358.2200012207</ele>
        <time>2010-03-17T13:57:36Z</time>
      </trkpt>
      <trkpt lat="45.07896" lon="4.78039">
        <ele>359.99301147461</ele>
        <time>2010-03-17T13:57:46Z</time>
      </trkpt>
      <trkpt lat="45.07917" lon="4.78028">
        <ele>361.09799194336</ele>
        <time>2010-03-17T13:57:53Z</time>
      </trkpt>
      <trkpt lat="45.07938" lon="4.78016">
        <ele>362.70599365234</ele>
        <time>2010-03-17T13:58:00Z</time>
      </trkpt>
      <trkpt lat="45.07964" lon="4.78">
        <ele>364.34399414062</ele>
        <time>2010-03-17T13:58:09Z</time>
      </trkpt>
      <trkpt lat="45.07992" lon="4.77989">
        <ele>366.51998901367</ele>
        <time>2010-03-17T13:58:18Z</time>
      </trkpt>
      <trkpt lat="45.08018" lon="4.77976">
        <ele>368.48699951172</ele>
        <time>2010-03-17T13:58:27Z</time>
      </trkpt>
      <trkpt lat="45.08034" lon="4.77957">
        <ele>369.76400756836</ele>
        <time>2010-03-17T13:58:34Z</time>
      </trkpt>
      <trkpt lat="45.08052" lon="4.77917">
        <ele>372.19900512695</ele>
        <time>2010-03-17T13:58:45Z</time>
      </trkpt>
      <trkpt lat="45.08071" lon="4.77893">
        <ele>373.98999023438</ele>
        <time>2010-03-17T13:58:53Z</time>
      </trkpt>
      <trkpt lat="45.08094" lon="4.77876">
        <ele>375.69500732422</ele>
        <time>2010-03-17T13:59:01Z</time>
      </trkpt>
      <trkpt lat="45.08126" lon="4.77864">
        <ele>377.72698974609</ele>
        <time>2010-03-17T13:59:11Z</time>
      </trkpt>
      <trkpt lat="45.08145" lon="4.77849">
        <ele>379.05801391602</ele>
        <time>2010-03-17T13:59:18Z</time>
      </trkpt>
      <trkpt lat="45.08158" lon="4.77825">
        <ele>380.3330078125</ele>
        <time>2010-03-17T13:59:25Z</time>
      </trkpt>
      <trkpt lat="45.08166" lon="4.77798">
        <ele>381.8219909668</ele>
        <time>2010-03-17T13:59:32Z</time>
      </trkpt>
      <trkpt lat="45.08174" lon="4.77757">
        <ele>383.30599975586</ele>
        <time>2010-03-17T13:59:43Z</time>
      </trkpt>
      <trkpt lat="45.08178" lon="4.77737">
        <ele>383.98199462891</ele>
        <time>2010-03-17T13:59:49Z</time>
      </trkpt>
      <trkpt lat="45.08183" lon="4.77712">
        <ele>385.30599975586</ele>
        <time>2010-03-17T13:59:56Z</time>
      </trkpt>
      <trkpt lat="45.08189" lon="4.77691">
        <ele>386.03601074219</ele>
        <time>2010-03-17T14:00:03Z</time>
      </trkpt>
      <trkpt lat="45.08197" lon="4.77673">
        <ele>386.27600097656</ele>
        <time>2010-03-17T14:00:09Z</time>
      </trkpt>
      <trkpt lat="45.0821" lon="4.77652">
        <ele>386.91400146484</ele>
        <time>2010-03-17T14:00:17Z</time>
      </trkpt>
      <trkpt lat="45.08221" lon="4.7763">
        <ele>387.38299560547</ele>
        <time>2010-03-17T14:00:24Z</time>
      </trkpt>
      <trkpt lat="45.0823" lon="4.77598">
        <ele>388.08898925781</ele>
        <time>2010-03-17T14:00:32Z</time>
      </trkpt>
      <trkpt lat="45.08232" lon="4.77573">
        <ele>388.66198730469</ele>
        <time>2010-03-17T14:00:38Z</time>
      </trkpt>
      <trkpt lat="45.08226" lon="4.77544">
        <ele>389.05801391602</ele>
        <time>2010-03-17T14:00:45Z</time>
      </trkpt>
      <trkpt lat="45.08212" lon="4.77509">
        <ele>390.61801147461</ele>
        <time>2010-03-17T14:00:54Z</time>
      </trkpt>
      <trkpt lat="45.08196" lon="4.77477">
        <ele>391.48098754883</ele>
        <time>2010-03-17T14:01:02Z</time>
      </trkpt>
      <trkpt lat="45.08182" lon="4.77441">
        <ele>392.21798706055</ele>
        <time>2010-03-17T14:01:11Z</time>
      </trkpt>
      <trkpt lat="45.08179" lon="4.77409">
        <ele>393.21899414062</ele>
        <time>2010-03-17T14:01:18Z</time>
      </trkpt>
      <trkpt lat="45.08187" lon="4.77387">
        <ele>393.80999755859</ele>
        <time>2010-03-17T14:01:24Z</time>
      </trkpt>
      <trkpt lat="45.08202" lon="4.77381">
        <ele>394.10198974609</ele>
        <time>2010-03-17T14:01:29Z</time>
      </trkpt>
      <trkpt lat="45.08216" lon="4.77391">
        <ele>394.86599731445</ele>
        <time>2010-03-17T14:01:34Z</time>
      </trkpt>
      <trkpt lat="45.08231" lon="4.77412">
        <ele>396.11999511719</ele>
        <time>2010-03-17T14:01:40Z</time>
      </trkpt>
      <trkpt lat="45.08251" lon="4.77431">
        <ele>397.9289855957</ele>
        <time>2010-03-17T14:01:47Z</time>
      </trkpt>
      <trkpt lat="45.08271" lon="4.7744">
        <ele>398.72900390625</ele>
        <time>2010-03-17T14:01:53Z</time>
      </trkpt>
      <trkpt lat="45.083" lon="4.77447">
        <ele>399.63900756836</ele>
        <time>2010-03-17T14:02:01Z</time>
      </trkpt>
      <trkpt lat="45.08321" lon="4.77445">
        <ele>400.71099853516</ele>
        <time>2010-03-17T14:02:07Z</time>
      </trkpt>
      <trkpt lat="45.08347" lon="4.7743">
        <ele>401.2619934082</ele>
        <time>2010-03-17T14:02:14Z</time>
      </trkpt>
      <trkpt lat="45.08376" lon="4.77423">
        <ele>402.27600097656</ele>
        <time>2010-03-17T14:02:22Z</time>
      </trkpt>
      <trkpt lat="45.08398" lon="4.77428">
        <ele>403.16000366211</ele>
        <time>2010-03-17T14:02:29Z</time>
      </trkpt>
      <trkpt lat="45.08422" lon="4.77435">
        <ele>404.27099609375</ele>
        <time>2010-03-17T14:02:37Z</time>
      </trkpt>
      <trkpt lat="45.08441" lon="4.7744">
        <ele>404.97399902344</ele>
        <time>2010-03-17T14:02:44Z</time>
      </trkpt>
      <trkpt lat="45.0846" lon="4.77446">
        <ele>405.15600585938</ele>
        <time>2010-03-17T14:02:52Z</time>
      </trkpt>
      <trkpt lat="45.08471" lon="4.77448">
        <ele>405.92599487305</ele>
        <time>2010-03-17T14:02:58Z</time>
      </trkpt>
      <trkpt lat="45.08487" lon="4.7745">
        <ele>405.46600341797</ele>
        <time>2010-03-17T14:03:05Z</time>
      </trkpt>
      <trkpt lat="45.08506" lon="4.77449">
        <ele>404.60501098633</ele>
        <time>2010-03-17T14:03:12Z</time>
      </trkpt>
      <trkpt lat="45.08534" lon="4.77452">
        <ele>404.01800537109</ele>
        <time>2010-03-17T14:03:20Z</time>
      </trkpt>
      <trkpt lat="45.0855" lon="4.77458">
        <ele>403.49398803711</ele>
        <time>2010-03-17T14:03:25Z</time>
      </trkpt>
      <trkpt lat="45.08572" lon="4.77478">
        <ele>403.04998779297</ele>
        <time>2010-03-17T14:03:32Z</time>
      </trkpt>
      <trkpt lat="45.08598" lon="4.77509">
        <ele>402.02700805664</ele>
        <time>2010-03-17T14:03:41Z</time>
      </trkpt>
      <trkpt lat="45.08613" lon="4.77524">
        <ele>402.00399780273</ele>
        <time>2010-03-17T14:03:46Z</time>
      </trkpt>
      <trkpt lat="45.08627" lon="4.77533">
        <ele>401.89099121094</ele>
        <time>2010-03-17T14:03:50Z</time>
      </trkpt>
      <trkpt lat="45.08661" lon="4.77535">
        <ele>401.41900634766</ele>
        <time>2010-03-17T14:03:58Z</time>
      </trkpt>
      <trkpt lat="45.08682" lon="4.77533">
        <ele>400.96499633789</ele>
        <time>2010-03-17T14:04:03Z</time>
      </trkpt>
      <trkpt lat="45.08694" lon="4.77529">
        <ele>400.81698608398</ele>
        <time>2010-03-17T14:04:06Z</time>
      </trkpt>
      <trkpt lat="45.08707" lon="4.77521">
        <ele>400.44299316406</ele>
        <time>2010-03-17T14:04:09Z</time>
      </trkpt>
      <trkpt lat="45.08727" lon="4.7749">
        <ele>399.57998657227</ele>
        <time>2010-03-17T14:04:15Z</time>
      </trkpt>
      <trkpt lat="45.08729" lon="4.77483">
        <ele>399.5119934082</ele>
        <time>2010-03-17T14:04:16Z</time>
      </trkpt>
      <trkpt lat="45.08745" lon="4.77414">
        <ele>398.07998657227</ele>
        <time>2010-03-17T14:04:25Z</time>
      </trkpt>
      <trkpt lat="45.08749" lon="4.77391">
        <ele>397.86099243164</ele>
        <time>2010-03-17T14:04:28Z</time>
      </trkpt>
      <trkpt lat="45.08749" lon="4.77374">
        <ele>397.74700927734</ele>
        <time>2010-03-17T14:04:30Z</time>
      </trkpt>
      <trkpt lat="45.0874" lon="4.7733">
        <ele>396.68301391602</ele>
        <time>2010-03-17T14:04:35Z</time>
      </trkpt>
      <trkpt lat="45.08728" lon="4.77308">
        <ele>395.51098632812</ele>
        <time>2010-03-17T14:04:38Z</time>
      </trkpt>
      <trkpt lat="45.08694" lon="4.77279">
        <ele>394.92498779297</ele>
        <time>2010-03-17T14:04:44Z</time>
      </trkpt>
      <trkpt lat="45.08678" lon="4.77249">
        <ele>393.88400268555</ele>
        <time>2010-03-17T14:04:48Z</time>
      </trkpt>
      <trkpt lat="45.0868" lon="4.7722">
        <ele>393.94799804688</ele>
        <time>2010-03-17T14:04:51Z</time>
      </trkpt>
      <trkpt lat="45.08693" lon="4.77197">
        <ele>393.93499755859</ele>
        <time>2010-03-17T14:04:54Z</time>
      </trkpt>
      <trkpt lat="45.08726" lon="4.77157">
        <ele>392.55801391602</ele>
        <time>2010-03-17T14:05:00Z</time>
      </trkpt>
      <trkpt lat="45.08747" lon="4.77144">
        <ele>392.15701293945</ele>
        <time>2010-03-17T14:05:03Z</time>
      </trkpt>
      <trkpt lat="45.08771" lon="4.77145">
        <ele>391.21099853516</ele>
        <time>2010-03-17T14:05:06Z</time>
      </trkpt>
      <trkpt lat="45.08846" lon="4.77176">
        <ele>389.96701049805</ele>
        <time>2010-03-17T14:05:16Z</time>
      </trkpt>
      <trkpt lat="45.08895" lon="4.77198">
        <ele>390.0950012207</ele>
        <time>2010-03-17T14:05:23Z</time>
      </trkpt>
      <trkpt lat="45.08938" lon="4.77218">
        <ele>390.28100585938</ele>
        <time>2010-03-17T14:05:30Z</time>
      </trkpt>
      <trkpt lat="45.08975" lon="4.77229">
        <ele>391.41198730469</ele>
        <time>2010-03-17T14:05:37Z</time>
      </trkpt>
      <trkpt lat="45.0899" lon="4.77229">
        <ele>391.63598632812</ele>
        <time>2010-03-17T14:05:40Z</time>
      </trkpt>
      <trkpt lat="45.09005" lon="4.77223">
        <ele>392.4280090332</ele>
        <time>2010-03-17T14:05:43Z</time>
      </trkpt>
      <trkpt lat="45.09029" lon="4.77194">
        <ele>393.24798583984</ele>
        <time>2010-03-17T14:05:50Z</time>
      </trkpt>
      <trkpt lat="45.0904" lon="4.77156">
        <ele>395.2919921875</ele>
        <time>2010-03-17T14:05:57Z</time>
      </trkpt>
      <trkpt lat="45.09044" lon="4.77112">
        <ele>395.93399047852</ele>
        <time>2010-03-17T14:06:05Z</time>
      </trkpt>
      <trkpt lat="45.09053" lon="4.77078">
        <ele>397.97698974609</ele>
        <time>2010-03-17T14:06:12Z</time>
      </trkpt>
      <trkpt lat="45.09066" lon="4.77045">
        <ele>398.89599609375</ele>
        <time>2010-03-17T14:06:19Z</time>
      </trkpt>
      <trkpt lat="45.09069" lon="4.7704">
        <ele>399.12600708008</ele>
        <time>2010-03-17T14:06:20Z</time>
      </trkpt>
      <trkpt lat="45.09073" lon="4.7703">
        <ele>399.55099487305</ele>
        <time>2010-03-17T14:06:22Z</time>
      </trkpt>
      <trkpt lat="45.09088" lon="4.76997">
        <ele>401.05499267578</ele>
        <time>2010-03-17T14:06:29Z</time>
      </trkpt>
      <trkpt lat="45.09106" lon="4.7696">
        <ele>402.04998779297</ele>
        <time>2010-03-17T14:06:37Z</time>
      </trkpt>
      <trkpt lat="45.09109" lon="4.76957">
        <ele>401.87799072266</ele>
        <time>2010-03-17T14:06:38Z</time>
      </trkpt>
      <trkpt lat="45.09134" lon="4.76922">
        <ele>400.68399047852</ele>
        <time>2010-03-17T14:06:46Z</time>
      </trkpt>
      <trkpt lat="45.09151" lon="4.76884">
        <ele>398.24700927734</ele>
        <time>2010-03-17T14:06:52Z</time>
      </trkpt>
      <trkpt lat="45.09157" lon="4.76867">
        <ele>397.07998657227</ele>
        <time>2010-03-17T14:06:54Z</time>
      </trkpt>
      <trkpt lat="45.09176" lon="4.76796">
        <ele>393.91598510742</ele>
        <time>2010-03-17T14:07:01Z</time>
      </trkpt>
      <trkpt lat="45.09182" lon="4.76774">
        <ele>393.27600097656</ele>
        <time>2010-03-17T14:07:03Z</time>
      </trkpt>
      <trkpt lat="45.09201" lon="4.76735">
        <ele>391.41598510742</ele>
        <time>2010-03-17T14:07:07Z</time>
      </trkpt>
      <trkpt lat="45.09219" lon="4.7671">
        <ele>390.9880065918</ele>
        <time>2010-03-17T14:07:10Z</time>
      </trkpt>
      <trkpt lat="45.09237" lon="4.76708">
        <ele>391.19198608398</ele>
        <time>2010-03-17T14:07:13Z</time>
      </trkpt>
      <trkpt lat="45.09242" lon="4.76721">
        <ele>391.31500244141</ele>
        <time>2010-03-17T14:07:15Z</time>
      </trkpt>
      <trkpt lat="45.09243" lon="4.76736">
        <ele>391.9280090332</ele>
        <time>2010-03-17T14:07:17Z</time>
      </trkpt>
      <trkpt lat="45.09243" lon="4.76778">
        <ele>393.90200805664</ele>
        <time>2010-03-17T14:07:24Z</time>
      </trkpt>
      <trkpt lat="45.09244" lon="4.76787">
        <ele>394.97500610352</ele>
        <time>2010-03-17T14:07:26Z</time>
      </trkpt>
      <trkpt lat="45.09253" lon="4.7683">
        <ele>396.35900878906</ele>
        <time>2010-03-17T14:07:35Z</time>
      </trkpt>
      <trkpt lat="45.0926" lon="4.76864">
        <ele>397.06500244141</ele>
        <time>2010-03-17T14:07:42Z</time>
      </trkpt>
      <trkpt lat="45.09268" lon="4.76902">
        <ele>398.66400146484</ele>
        <time>2010-03-17T14:07:50Z</time>
      </trkpt>
      <trkpt lat="45.09279" lon="4.76925">
        <ele>399.67700195312</ele>
        <time>2010-03-17T14:07:56Z</time>
      </trkpt>
      <trkpt lat="45.09296" lon="4.76926">
        <ele>400.42498779297</ele>
        <time>2010-03-17T14:08:01Z</time>
      </trkpt>
      <trkpt lat="45.09319" lon="4.76915">
        <ele>401.88299560547</ele>
        <time>2010-03-17T14:08:08Z</time>
      </trkpt>
      <trkpt lat="45.09346" lon="4.76903">
        <ele>403.63299560547</ele>
        <time>2010-03-17T14:08:17Z</time>
      </trkpt>
      <trkpt lat="45.09373" lon="4.76889">
        <ele>405.7919921875</ele>
        <time>2010-03-17T14:08:26Z</time>
      </trkpt>
      <trkpt lat="45.09399" lon="4.76876">
        <ele>407.93399047852</ele>
        <time>2010-03-17T14:08:35Z</time>
      </trkpt>
      <trkpt lat="45.09408" lon="4.76883">
        <ele>408.76800537109</ele>
        <time>2010-03-17T14:08:39Z</time>
      </trkpt>
      <trkpt lat="45.0941" lon="4.76903">
        <ele>409.65100097656</ele>
        <time>2010-03-17T14:08:44Z</time>
      </trkpt>
      <trkpt lat="45.09402" lon="4.76943">
        <ele>411.87899780273</ele>
        <time>2010-03-17T14:08:54Z</time>
      </trkpt>
      <trkpt lat="45.09399" lon="4.76977">
        <ele>413.56600952148</ele>
        <time>2010-03-17T14:09:02Z</time>
      </trkpt>
      <trkpt lat="45.09407" lon="4.76999">
        <ele>415.19400024414</ele>
        <time>2010-03-17T14:09:08Z</time>
      </trkpt>
      <trkpt lat="45.09418" lon="4.77015">
        <ele>416.84201049805</ele>
        <time>2010-03-17T14:09:14Z</time>
      </trkpt>
      <trkpt lat="45.09433" lon="4.77031">
        <ele>418.55700683594</ele>
        <time>2010-03-17T14:09:21Z</time>
      </trkpt>
      <trkpt lat="45.09452" lon="4.77052">
        <ele>420.27200317383</ele>
        <time>2010-03-17T14:09:30Z</time>
      </trkpt>
      <trkpt lat="45.09467" lon="4.77068">
        <ele>422.16900634766</ele>
        <time>2010-03-17T14:09:37Z</time>
      </trkpt>
      <trkpt lat="45.09481" lon="4.77087">
        <ele>424.15899658203</ele>
        <time>2010-03-17T14:09:45Z</time>
      </trkpt>
      <trkpt lat="45.09497" lon="4.77098">
        <ele>424.99899291992</ele>
        <time>2010-03-17T14:09:52Z</time>
      </trkpt>
      <trkpt lat="45.095" lon="4.77097">
        <ele>425.24099731445</ele>
        <time>2010-03-17T14:09:53Z</time>
      </trkpt>
      <trkpt lat="45.09507" lon="4.77084">
        <ele>426.29501342773</ele>
        <time>2010-03-17T14:09:58Z</time>
      </trkpt>
      <trkpt lat="45.09511" lon="4.77067">
        <ele>428.02301025391</ele>
        <time>2010-03-17T14:10:03Z</time>
      </trkpt>
      <trkpt lat="45.09523" lon="4.77058">
        <ele>428.94799804688</ele>
        <time>2010-03-17T14:10:09Z</time>
      </trkpt>
      <trkpt lat="45.09543" lon="4.77059">
        <ele>430.58401489258</ele>
        <time>2010-03-17T14:10:17Z</time>
      </trkpt>
      <trkpt lat="45.09561" lon="4.77062">
        <ele>430.91900634766</ele>
        <time>2010-03-17T14:10:23Z</time>
      </trkpt>
      <trkpt lat="45.09579" lon="4.77062">
        <ele>431.50399780273</ele>
        <time>2010-03-17T14:10:29Z</time>
      </trkpt>
      <trkpt lat="45.09591" lon="4.77052">
        <ele>431.97100830078</ele>
        <time>2010-03-17T14:10:34Z</time>
      </trkpt>
      <trkpt lat="45.09594" lon="4.77033">
        <ele>432.20001220703</ele>
        <time>2010-03-17T14:10:39Z</time>
      </trkpt>
      <trkpt lat="45.09601" lon="4.77006">
        <ele>432.9469909668</ele>
        <time>2010-03-17T14:10:46Z</time>
      </trkpt>
      <trkpt lat="45.09604" lon="4.7699">
        <ele>433.50201416016</ele>
        <time>2010-03-17T14:10:50Z</time>
      </trkpt>
      <trkpt lat="45.09612" lon="4.76956">
        <ele>434.40200805664</ele>
        <time>2010-03-17T14:10:58Z</time>
      </trkpt>
      <trkpt lat="45.09616" lon="4.7693">
        <ele>435.17401123047</ele>
        <time>2010-03-17T14:11:04Z</time>
      </trkpt>
      <trkpt lat="45.09621" lon="4.76909">
        <ele>435.21600341797</ele>
        <time>2010-03-17T14:11:09Z</time>
      </trkpt>
      <trkpt lat="45.09628" lon="4.76873">
        <ele>436.41500854492</ele>
        <time>2010-03-17T14:11:17Z</time>
      </trkpt>
      <trkpt lat="45.09635" lon="4.76841">
        <ele>437.30999755859</ele>
        <time>2010-03-17T14:11:24Z</time>
      </trkpt>
      <trkpt lat="45.09641" lon="4.76808">
        <ele>438.2200012207</ele>
        <time>2010-03-17T14:11:31Z</time>
      </trkpt>
      <trkpt lat="45.0965" lon="4.76767">
        <ele>439.85699462891</ele>
        <time>2010-03-17T14:11:40Z</time>
      </trkpt>
      <trkpt lat="45.09657" lon="4.76736">
        <ele>440.56500244141</ele>
        <time>2010-03-17T14:11:47Z</time>
      </trkpt>
      <trkpt lat="45.09663" lon="4.76707">
        <ele>441.86999511719</ele>
        <time>2010-03-17T14:11:54Z</time>
      </trkpt>
      <trkpt lat="45.09672" lon="4.76669">
        <ele>442.48901367188</ele>
        <time>2010-03-17T14:12:03Z</time>
      </trkpt>
      <trkpt lat="45.09679" lon="4.76635">
        <ele>444.61801147461</ele>
        <time>2010-03-17T14:12:11Z</time>
      </trkpt>
      <trkpt lat="45.09689" lon="4.7659">
        <ele>446.64001464844</ele>
        <time>2010-03-17T14:12:22Z</time>
      </trkpt>
      <trkpt lat="45.09695" lon="4.7655">
        <ele>447.62600708008</ele>
        <time>2010-03-17T14:12:32Z</time>
      </trkpt>
      <trkpt lat="45.09697" lon="4.76529">
        <ele>447.67001342773</ele>
        <time>2010-03-17T14:12:38Z</time>
      </trkpt>
      <trkpt lat="45.09699" lon="4.76502">
        <ele>446.06399536133</ele>
        <time>2010-03-17T14:12:44Z</time>
      </trkpt>
      <trkpt lat="45.09704" lon="4.76464">
        <ele>444.61898803711</ele>
        <time>2010-03-17T14:12:50Z</time>
      </trkpt>
      <trkpt lat="45.09715" lon="4.76411">
        <ele>446.08401489258</ele>
        <time>2010-03-17T14:12:58Z</time>
      </trkpt>
      <trkpt lat="45.09726" lon="4.76372">
        <ele>445.61099243164</ele>
        <time>2010-03-17T14:13:05Z</time>
      </trkpt>
      <trkpt lat="45.09734" lon="4.76341">
        <ele>445.93399047852</ele>
        <time>2010-03-17T14:13:11Z</time>
      </trkpt>
      <trkpt lat="45.09743" lon="4.76313">
        <ele>447.08700561523</ele>
        <time>2010-03-17T14:13:17Z</time>
      </trkpt>
      <trkpt lat="45.09758" lon="4.76287">
        <ele>448.40200805664</ele>
        <time>2010-03-17T14:13:24Z</time>
      </trkpt>
      <trkpt lat="45.09778" lon="4.76267">
        <ele>448.08401489258</ele>
        <time>2010-03-17T14:13:31Z</time>
      </trkpt>
      <trkpt lat="45.09808" lon="4.76245">
        <ele>449.29501342773</ele>
        <time>2010-03-17T14:13:40Z</time>
      </trkpt>
      <trkpt lat="45.09818" lon="4.76239">
        <ele>450.32901000977</ele>
        <time>2010-03-17T14:13:43Z</time>
      </trkpt>
      <trkpt lat="45.09847" lon="4.76222">
        <ele>451.89401245117</ele>
        <time>2010-03-17T14:13:52Z</time>
      </trkpt>
      <trkpt lat="45.09865" lon="4.7621">
        <ele>453.19400024414</ele>
        <time>2010-03-17T14:13:58Z</time>
      </trkpt>
      <trkpt lat="45.09897" lon="4.76189">
        <ele>454.81799316406</ele>
        <time>2010-03-17T14:14:08Z</time>
      </trkpt>
      <trkpt lat="45.09924" lon="4.76174">
        <ele>455.85900878906</ele>
        <time>2010-03-17T14:14:16Z</time>
      </trkpt>
      <trkpt lat="45.09948" lon="4.76159">
        <ele>457.37200927734</ele>
        <time>2010-03-17T14:14:24Z</time>
      </trkpt>
      <trkpt lat="45.09968" lon="4.76146">
        <ele>457.39599609375</ele>
        <time>2010-03-17T14:14:30Z</time>
      </trkpt>
      <trkpt lat="45.09975" lon="4.76142">
        <ele>457.21200561523</ele>
        <time>2010-03-17T14:14:32Z</time>
      </trkpt>
      <trkpt lat="45.09989" lon="4.76131">
        <ele>456.49099731445</ele>
        <time>2010-03-17T14:14:36Z</time>
      </trkpt>
      <trkpt lat="45.1002" lon="4.76106">
        <ele>454.25299072266</ele>
        <time>2010-03-17T14:14:46Z</time>
      </trkpt>
      <trkpt lat="45.10044" lon="4.76102">
        <ele>454.33200073242</ele>
        <time>2010-03-17T14:14:52Z</time>
      </trkpt>
      <trkpt lat="45.1007" lon="4.76096">
        <ele>454.98599243164</ele>
        <time>2010-03-17T14:14:59Z</time>
      </trkpt>
      <trkpt lat="45.10087" lon="4.76089">
        <ele>454.60998535156</ele>
        <time>2010-03-17T14:15:03Z</time>
      </trkpt>
      <trkpt lat="45.10092" lon="4.76087">
        <ele>454.59899902344</ele>
        <time>2010-03-17T14:15:04Z</time>
      </trkpt>
      <trkpt lat="45.10125" lon="4.7607">
        <ele>456.57901000977</ele>
        <time>2010-03-17T14:15:12Z</time>
      </trkpt>
      <trkpt lat="45.10161" lon="4.76042">
        <ele>456.19299316406</ele>
        <time>2010-03-17T14:15:21Z</time>
      </trkpt>
      <trkpt lat="45.10197" lon="4.76">
        <ele>457.44100952148</ele>
        <time>2010-03-17T14:15:31Z</time>
      </trkpt>
      <trkpt lat="45.10229" lon="4.75963">
        <ele>458.47601318359</ele>
        <time>2010-03-17T14:15:40Z</time>
      </trkpt>
      <trkpt lat="45.10263" lon="4.75919">
        <ele>459.51699829102</ele>
        <time>2010-03-17T14:15:50Z</time>
      </trkpt>
      <trkpt lat="45.10284" lon="4.75876">
        <ele>459.59600830078</ele>
        <time>2010-03-17T14:15:58Z</time>
      </trkpt>
      <trkpt lat="45.10304" lon="4.75813">
        <ele>461.42999267578</ele>
        <time>2010-03-17T14:16:09Z</time>
      </trkpt>
      <trkpt lat="45.10314" lon="4.75786">
        <ele>462.55801391602</ele>
        <time>2010-03-17T14:16:14Z</time>
      </trkpt>
      <trkpt lat="45.1034" lon="4.75741">
        <ele>463.25698852539</ele>
        <time>2010-03-17T14:16:23Z</time>
      </trkpt>
      <trkpt lat="45.10376" lon="4.75671">
        <ele>464.22698974609</ele>
        <time>2010-03-17T14:16:35Z</time>
      </trkpt>
      <trkpt lat="45.10381" lon="4.75659">
        <ele>465.14700317383</ele>
        <time>2010-03-17T14:16:37Z</time>
      </trkpt>
      <trkpt lat="45.10389" lon="4.7564">
        <ele>463.82800292969</ele>
        <time>2010-03-17T14:16:40Z</time>
      </trkpt>
      <trkpt lat="45.10412" lon="4.75578">
        <ele>464.19198608398</ele>
        <time>2010-03-17T14:16:50Z</time>
      </trkpt>
      <trkpt lat="45.10434" lon="4.75524">
        <ele>464.69500732422</ele>
        <time>2010-03-17T14:16:58Z</time>
      </trkpt>
      <trkpt lat="45.1045" lon="4.7548">
        <ele>464.55700683594</ele>
        <time>2010-03-17T14:17:05Z</time>
      </trkpt>
      <trkpt lat="45.10471" lon="4.75429">
        <ele>464.64898681641</ele>
        <time>2010-03-17T14:17:13Z</time>
      </trkpt>
      <trkpt lat="45.10491" lon="4.75389">
        <ele>465.12100219727</ele>
        <time>2010-03-17T14:17:20Z</time>
      </trkpt>
      <trkpt lat="45.10521" lon="4.75351">
        <ele>463.68600463867</ele>
        <time>2010-03-17T14:17:27Z</time>
      </trkpt>
      <trkpt lat="45.10545" lon="4.75322">
        <ele>462.72900390625</ele>
        <time>2010-03-17T14:17:32Z</time>
      </trkpt>
      <trkpt lat="45.10553" lon="4.75306">
        <ele>462.59698486328</ele>
        <time>2010-03-17T14:17:34Z</time>
      </trkpt>
      <trkpt lat="45.10562" lon="4.75278">
        <ele>460.89700317383</ele>
        <time>2010-03-17T14:17:37Z</time>
      </trkpt>
      <trkpt lat="45.10572" lon="4.75221">
        <ele>460.71798706055</ele>
        <time>2010-03-17T14:17:43Z</time>
      </trkpt>
      <trkpt lat="45.10583" lon="4.75177">
        <ele>459.84399414062</ele>
        <time>2010-03-17T14:17:48Z</time>
      </trkpt>
      <trkpt lat="45.10592" lon="4.75152">
        <ele>460.06201171875</ele>
        <time>2010-03-17T14:17:51Z</time>
      </trkpt>
      <trkpt lat="45.10618" lon="4.7509">
        <ele>459.44000244141</ele>
        <time>2010-03-17T14:17:58Z</time>
      </trkpt>
      <trkpt lat="45.10626" lon="4.75072">
        <ele>458.62100219727</ele>
        <time>2010-03-17T14:18:00Z</time>
      </trkpt>
      <trkpt lat="45.10648" lon="4.75018">
        <ele>459.12600708008</ele>
        <time>2010-03-17T14:18:06Z</time>
      </trkpt>
      <trkpt lat="45.10664" lon="4.74978">
        <ele>458.90899658203</ele>
        <time>2010-03-17T14:18:11Z</time>
      </trkpt>
      <trkpt lat="45.10675" lon="4.74948">
        <ele>459.44100952148</ele>
        <time>2010-03-17T14:18:16Z</time>
      </trkpt>
      <trkpt lat="45.1068" lon="4.74934">
        <ele>459.26501464844</ele>
        <time>2010-03-17T14:18:20Z</time>
      </trkpt>
      <trkpt lat="45.10681" lon="4.74931">
        <ele>459.65100097656</ele>
        <time>2010-03-17T14:18:21Z</time>
      </trkpt>
      <trkpt lat="45.10676" lon="4.74919">
        <ele>456.90100097656</ele>
        <time>2010-03-17T14:18:25Z</time>
      </trkpt>
      <trkpt lat="45.10669" lon="4.74906">
        <ele>458.48599243164</ele>
        <time>2010-03-17T14:18:28Z</time>
      </trkpt>
      <trkpt lat="45.10656" lon="4.74879">
        <ele>458.38500976562</ele>
        <time>2010-03-17T14:18:33Z</time>
      </trkpt>
      <trkpt lat="45.10651" lon="4.74866">
        <ele>458.18301391602</ele>
        <time>2010-03-17T14:18:35Z</time>
      </trkpt>
      <trkpt lat="45.10633" lon="4.74828">
        <ele>456.90899658203</ele>
        <time>2010-03-17T14:18:41Z</time>
      </trkpt>
      <trkpt lat="45.10621" lon="4.74803">
        <ele>457.5530090332</ele>
        <time>2010-03-17T14:18:45Z</time>
      </trkpt>
      <trkpt lat="45.10597" lon="4.74761">
        <ele>457.96499633789</ele>
        <time>2010-03-17T14:18:53Z</time>
      </trkpt>
      <trkpt lat="45.10582" lon="4.7474">
        <ele>459.63800048828</ele>
        <time>2010-03-17T14:18:58Z</time>
      </trkpt>
      <trkpt lat="45.10569" lon="4.74724">
        <ele>461.39999389648</ele>
        <time>2010-03-17T14:19:03Z</time>
      </trkpt>
      <trkpt lat="45.10559" lon="4.7471">
        <ele>462.4580078125</ele>
        <time>2010-03-17T14:19:07Z</time>
      </trkpt>
      <trkpt lat="45.10547" lon="4.74688">
        <ele>464.87701416016</ele>
        <time>2010-03-17T14:19:13Z</time>
      </trkpt>
      <trkpt lat="45.10538" lon="4.74663">
        <ele>465.22698974609</ele>
        <time>2010-03-17T14:19:19Z</time>
      </trkpt>
      <trkpt lat="45.10528" lon="4.74633">
        <ele>465.5119934082</ele>
        <time>2010-03-17T14:19:25Z</time>
      </trkpt>
      <trkpt lat="45.10516" lon="4.74593">
        <ele>466.63000488281</ele>
        <time>2010-03-17T14:19:33Z</time>
      </trkpt>
      <trkpt lat="45.10503" lon="4.74543">
        <ele>467.93798828125</ele>
        <time>2010-03-17T14:19:42Z</time>
      </trkpt>
      <trkpt lat="45.10495" lon="4.745">
        <ele>467.25601196289</ele>
        <time>2010-03-17T14:19:50Z</time>
      </trkpt>
      <trkpt lat="45.10493" lon="4.74488">
        <ele>465.81799316406</ele>
        <time>2010-03-17T14:19:52Z</time>
      </trkpt>
      <trkpt lat="45.10489" lon="4.7447">
        <ele>465.00601196289</ele>
        <time>2010-03-17T14:19:55Z</time>
      </trkpt>
      <trkpt lat="45.10484" lon="4.74458">
        <ele>464.27801513672</ele>
        <time>2010-03-17T14:19:57Z</time>
      </trkpt>
      <trkpt lat="45.10466" lon="4.74432">
        <ele>462.82000732422</ele>
        <time>2010-03-17T14:20:02Z</time>
      </trkpt>
      <trkpt lat="45.10453" lon="4.74415">
        <ele>461.29400634766</ele>
        <time>2010-03-17T14:20:05Z</time>
      </trkpt>
      <trkpt lat="45.10421" lon="4.74373">
        <ele>459.23300170898</ele>
        <time>2010-03-17T14:20:12Z</time>
      </trkpt>
      <trkpt lat="45.104" lon="4.74325">
        <ele>457.54400634766</ele>
        <time>2010-03-17T14:20:18Z</time>
      </trkpt>
      <trkpt lat="45.10376" lon="4.74275">
        <ele>457.32000732422</ele>
        <time>2010-03-17T14:20:25Z</time>
      </trkpt>
      <trkpt lat="45.10358" lon="4.74237">
        <ele>457.30200195312</ele>
        <time>2010-03-17T14:20:31Z</time>
      </trkpt>
      <trkpt lat="45.10353" lon="4.74224">
        <ele>457.02700805664</ele>
        <time>2010-03-17T14:20:33Z</time>
      </trkpt>
      <trkpt lat="45.10345" lon="4.74176">
        <ele>457.72100830078</ele>
        <time>2010-03-17T14:20:40Z</time>
      </trkpt>
      <trkpt lat="45.10343" lon="4.74124">
        <ele>455.91799926758</ele>
        <time>2010-03-17T14:20:46Z</time>
      </trkpt>
      <trkpt lat="45.10342" lon="4.74114">
        <ele>455.71899414062</ele>
        <time>2010-03-17T14:20:47Z</time>
      </trkpt>
      <trkpt lat="45.10342" lon="4.74105">
        <ele>454.5719909668</ele>
        <time>2010-03-17T14:20:48Z</time>
      </trkpt>
      <trkpt lat="45.10339" lon="4.74088">
        <ele>454.25100708008</ele>
        <time>2010-03-17T14:20:50Z</time>
      </trkpt>
      <trkpt lat="45.10326" lon="4.74032">
        <ele>452.11499023438</ele>
        <time>2010-03-17T14:20:57Z</time>
      </trkpt>
      <trkpt lat="45.10325" lon="4.74013">
        <ele>450.76699829102</ele>
        <time>2010-03-17T14:20:59Z</time>
      </trkpt>
      <trkpt lat="45.10334" lon="4.73981">
        <ele>448.6960144043</ele>
        <time>2010-03-17T14:21:02Z</time>
      </trkpt>
      <trkpt lat="45.10349" lon="4.73949">
        <ele>448.32800292969</ele>
        <time>2010-03-17T14:21:06Z</time>
      </trkpt>
      <trkpt lat="45.10357" lon="4.73922">
        <ele>447.6969909668</ele>
        <time>2010-03-17T14:21:12Z</time>
      </trkpt>
      <trkpt lat="45.1036" lon="4.73899">
        <ele>447.38800048828</ele>
        <time>2010-03-17T14:21:20Z</time>
      </trkpt>
      <trkpt lat="45.10364" lon="4.7388">
        <ele>447.125</ele>
        <time>2010-03-17T14:21:29Z</time>
      </trkpt>
      <trkpt lat="45.10366" lon="4.73868">
        <ele>447.10699462891</ele>
        <time>2010-03-17T14:21:36Z</time>
      </trkpt>
      <trkpt lat="45.10365" lon="4.73852">
        <ele>446.70001220703</ele>
        <time>2010-03-17T14:21:46Z</time>
      </trkpt>
      <trkpt lat="45.10361" lon="4.7384">
        <ele>446.24600219727</ele>
        <time>2010-03-17T14:21:54Z</time>
      </trkpt>
      <trkpt lat="45.10356" lon="4.73831">
        <ele>446.51800537109</ele>
        <time>2010-03-17T14:22:00Z</time>
      </trkpt>
      <trkpt lat="45.10348" lon="4.73822">
        <ele>446.71499633789</ele>
        <time>2010-03-17T14:22:07Z</time>
      </trkpt>
      <trkpt lat="45.10339" lon="4.73812">
        <ele>447.83401489258</ele>
        <time>2010-03-17T14:22:15Z</time>
      </trkpt>
      <trkpt lat="45.10335" lon="4.73803">
        <ele>448.21099853516</ele>
        <time>2010-03-17T14:22:20Z</time>
      </trkpt>
      <trkpt lat="45.10335" lon="4.73801">
        <ele>448.52600097656</ele>
        <time>2010-03-17T14:22:21Z</time>
      </trkpt>
      <trkpt lat="45.10336" lon="4.73789">
        <ele>449.93301391602</ele>
        <time>2010-03-17T14:22:27Z</time>
      </trkpt>
      <trkpt lat="45.10334" lon="4.73788">
        <ele>449.18798828125</ele>
        <time>2010-03-17T14:22:31Z</time>
      </trkpt>
      <trkpt lat="45.10334" lon="4.73808">
        <ele>448.6960144043</ele>
        <time>2010-03-17T14:22:40Z</time>
      </trkpt>
      <trkpt lat="45.10342" lon="4.73818">
        <ele>447.76400756836</ele>
        <time>2010-03-17T14:22:48Z</time>
      </trkpt>
      <trkpt lat="45.1035" lon="4.73827">
        <ele>446.7080078125</ele>
        <time>2010-03-17T14:22:57Z</time>
      </trkpt>
      <trkpt lat="45.10358" lon="4.73837">
        <ele>446.8219909668</ele>
        <time>2010-03-17T14:23:07Z</time>
      </trkpt>
      <trkpt lat="45.10363" lon="4.73848">
        <ele>446.68600463867</ele>
        <time>2010-03-17T14:23:15Z</time>
      </trkpt>
      <trkpt lat="45.10366" lon="4.73865">
        <ele>445.94799804688</ele>
        <time>2010-03-17T14:23:24Z</time>
      </trkpt>
      <trkpt lat="45.10365" lon="4.73876">
        <ele>446.28900146484</ele>
        <time>2010-03-17T14:23:29Z</time>
      </trkpt>
      <trkpt lat="45.10363" lon="4.73883">
        <ele>446.42098999023</ele>
        <time>2010-03-17T14:23:34Z</time>
      </trkpt>
      <trkpt lat="45.10364" lon="4.73885">
        <ele>446.51400756836</ele>
        <time>2010-03-17T14:23:37Z</time>
      </trkpt>
      <trkpt lat="45.10369" lon="4.73877">
        <ele>446.29699707031</ele>
        <time>2010-03-17T14:23:43Z</time>
      </trkpt>
      <trkpt lat="45.10368" lon="4.73865">
        <ele>446.12799072266</ele>
        <time>2010-03-17T14:23:48Z</time>
      </trkpt>
      <trkpt lat="45.10366" lon="4.73852">
        <ele>446.22698974609</ele>
        <time>2010-03-17T14:23:55Z</time>
      </trkpt>
      <trkpt lat="45.10361" lon="4.7384">
        <ele>445.89999389648</ele>
        <time>2010-03-17T14:24:02Z</time>
      </trkpt>
      <trkpt lat="45.10356" lon="4.73832">
        <ele>446.38400268555</ele>
        <time>2010-03-17T14:24:08Z</time>
      </trkpt>
      <trkpt lat="45.10349" lon="4.73825">
        <ele>446.19000244141</ele>
        <time>2010-03-17T14:24:14Z</time>
      </trkpt>
      <trkpt lat="45.10338" lon="4.73812">
        <ele>446.74301147461</ele>
        <time>2010-03-17T14:24:21Z</time>
      </trkpt>
      <trkpt lat="45.10334" lon="4.73803">
        <ele>447.90798950195</ele>
        <time>2010-03-17T14:24:24Z</time>
      </trkpt>
      <trkpt lat="45.10338" lon="4.73787">
        <ele>449.71301269531</ele>
        <time>2010-03-17T14:24:29Z</time>
      </trkpt>
      <trkpt lat="45.10345" lon="4.73774">
        <ele>450.39199829102</ele>
        <time>2010-03-17T14:24:33Z</time>
      </trkpt>
      <trkpt lat="45.10351" lon="4.73768">
        <ele>450.81399536133</ele>
        <time>2010-03-17T14:24:35Z</time>
      </trkpt>
      <trkpt lat="45.10379" lon="4.73738">
        <ele>450.82400512695</ele>
        <time>2010-03-17T14:24:43Z</time>
      </trkpt>
      <trkpt lat="45.10387" lon="4.73728">
        <ele>450.19299316406</ele>
        <time>2010-03-17T14:24:45Z</time>
      </trkpt>
      <trkpt lat="45.10405" lon="4.73692">
        <ele>448.72799682617</ele>
        <time>2010-03-17T14:24:50Z</time>
      </trkpt>
      <trkpt lat="45.10415" lon="4.73665">
        <ele>447.45098876953</ele>
        <time>2010-03-17T14:24:53Z</time>
      </trkpt>
      <trkpt lat="45.10442" lon="4.736">
        <ele>446.37701416016</ele>
        <time>2010-03-17T14:25:00Z</time>
      </trkpt>
      <trkpt lat="45.10466" lon="4.73571">
        <ele>445.84201049805</ele>
        <time>2010-03-17T14:25:04Z</time>
      </trkpt>
      <trkpt lat="45.10478" lon="4.73553">
        <ele>445.55200195312</ele>
        <time>2010-03-17T14:25:07Z</time>
      </trkpt>
      <trkpt lat="45.10477" lon="4.7353">
        <ele>445.88198852539</ele>
        <time>2010-03-17T14:25:10Z</time>
      </trkpt>
      <trkpt lat="45.10463" lon="4.73477">
        <ele>445.31201171875</ele>
        <time>2010-03-17T14:25:16Z</time>
      </trkpt>
      <trkpt lat="45.1046" lon="4.73468">
        <ele>446.4580078125</ele>
        <time>2010-03-17T14:25:17Z</time>
      </trkpt>
      <trkpt lat="45.10453" lon="4.73452">
        <ele>447.28399658203</ele>
        <time>2010-03-17T14:25:19Z</time>
      </trkpt>
      <trkpt lat="45.10438" lon="4.73424">
        <ele>448.62899780273</ele>
        <time>2010-03-17T14:25:23Z</time>
      </trkpt>
      <trkpt lat="45.10434" lon="4.73416">
        <ele>449.08200073242</ele>
        <time>2010-03-17T14:25:24Z</time>
      </trkpt>
      <trkpt lat="45.10429" lon="4.734">
        <ele>450.33599853516</ele>
        <time>2010-03-17T14:25:26Z</time>
      </trkpt>
      <trkpt lat="45.10424" lon="4.73358">
        <ele>452.32699584961</ele>
        <time>2010-03-17T14:25:31Z</time>
      </trkpt>
      <trkpt lat="45.10425" lon="4.73313">
        <ele>454.32000732422</ele>
        <time>2010-03-17T14:25:37Z</time>
      </trkpt>
      <trkpt lat="45.10424" lon="4.73282">
        <ele>456.31298828125</ele>
        <time>2010-03-17T14:25:42Z</time>
      </trkpt>
      <trkpt lat="45.10423" lon="4.7327">
        <ele>456.31100463867</ele>
        <time>2010-03-17T14:25:44Z</time>
      </trkpt>
      <trkpt lat="45.10424" lon="4.73211">
        <ele>459.11401367188</ele>
        <time>2010-03-17T14:25:54Z</time>
      </trkpt>
      <trkpt lat="45.10424" lon="4.73205">
        <ele>459.43899536133</ele>
        <time>2010-03-17T14:25:55Z</time>
      </trkpt>
      <trkpt lat="45.10416" lon="4.73152">
        <ele>461.59799194336</ele>
        <time>2010-03-17T14:26:03Z</time>
      </trkpt>
      <trkpt lat="45.104" lon="4.73107">
        <ele>462.66101074219</ele>
        <time>2010-03-17T14:26:10Z</time>
      </trkpt>
      <trkpt lat="45.1038" lon="4.73058">
        <ele>464.83200073242</ele>
        <time>2010-03-17T14:26:18Z</time>
      </trkpt>
      <trkpt lat="45.10362" lon="4.73012">
        <ele>466.48999023438</ele>
        <time>2010-03-17T14:26:26Z</time>
      </trkpt>
      <trkpt lat="45.10348" lon="4.72976">
        <ele>467.80200195312</ele>
        <time>2010-03-17T14:26:34Z</time>
      </trkpt>
      <trkpt lat="45.10337" lon="4.72946">
        <ele>468.11099243164</ele>
        <time>2010-03-17T14:26:42Z</time>
      </trkpt>
      <trkpt lat="45.10328" lon="4.72924">
        <ele>468.33099365234</ele>
        <time>2010-03-17T14:26:49Z</time>
      </trkpt>
      <trkpt lat="45.10313" lon="4.72896">
        <ele>470.97100830078</ele>
        <time>2010-03-17T14:26:58Z</time>
      </trkpt>
      <trkpt lat="45.103" lon="4.72878">
        <ele>472.7380065918</ele>
        <time>2010-03-17T14:27:05Z</time>
      </trkpt>
      <trkpt lat="45.10291" lon="4.72865">
        <ele>474.32299804688</ele>
        <time>2010-03-17T14:27:10Z</time>
      </trkpt>
      <trkpt lat="45.10277" lon="4.72848">
        <ele>475.41299438477</ele>
        <time>2010-03-17T14:27:17Z</time>
      </trkpt>
      <trkpt lat="45.10261" lon="4.72829">
        <ele>476.70700073242</ele>
        <time>2010-03-17T14:27:25Z</time>
      </trkpt>
      <trkpt lat="45.10247" lon="4.7281">
        <ele>478.45300292969</ele>
        <time>2010-03-17T14:27:32Z</time>
      </trkpt>
      <trkpt lat="45.10228" lon="4.72784">
        <ele>480.06698608398</ele>
        <time>2010-03-17T14:27:42Z</time>
      </trkpt>
      <trkpt lat="45.10216" lon="4.72768">
        <ele>481.40200805664</ele>
        <time>2010-03-17T14:27:49Z</time>
      </trkpt>
      <trkpt lat="45.10202" lon="4.72752">
        <ele>482.95199584961</ele>
        <time>2010-03-17T14:27:57Z</time>
      </trkpt>
      <trkpt lat="45.10192" lon="4.72738">
        <ele>483.90798950195</ele>
        <time>2010-03-17T14:28:04Z</time>
      </trkpt>
      <trkpt lat="45.10187" lon="4.7273">
        <ele>485.45599365234</ele>
        <time>2010-03-17T14:28:07Z</time>
      </trkpt>
      <trkpt lat="45.10175" lon="4.72713">
        <ele>486.67700195312</ele>
        <time>2010-03-17T14:28:15Z</time>
      </trkpt>
      <trkpt lat="45.10166" lon="4.72698">
        <ele>488.31298828125</ele>
        <time>2010-03-17T14:28:21Z</time>
      </trkpt>
      <trkpt lat="45.10159" lon="4.72682">
        <ele>488.60900878906</ele>
        <time>2010-03-17T14:28:27Z</time>
      </trkpt>
      <trkpt lat="45.10149" lon="4.72661">
        <ele>489.63598632812</ele>
        <time>2010-03-17T14:28:34Z</time>
      </trkpt>
      <trkpt lat="45.1014" lon="4.72646">
        <ele>490.1789855957</ele>
        <time>2010-03-17T14:28:40Z</time>
      </trkpt>
      <trkpt lat="45.10131" lon="4.72619">
        <ele>492.06600952148</ele>
        <time>2010-03-17T14:28:48Z</time>
      </trkpt>
      <trkpt lat="45.10128" lon="4.72597">
        <ele>492.45401000977</ele>
        <time>2010-03-17T14:28:53Z</time>
      </trkpt>
      <trkpt lat="45.1013" lon="4.72567">
        <ele>493.38198852539</ele>
        <time>2010-03-17T14:29:01Z</time>
      </trkpt>
      <trkpt lat="45.10125" lon="4.7254">
        <ele>493.37100219727</ele>
        <time>2010-03-17T14:29:08Z</time>
      </trkpt>
      <trkpt lat="45.10119" lon="4.72529">
        <ele>493.34399414062</ele>
        <time>2010-03-17T14:29:12Z</time>
      </trkpt>
      <trkpt lat="45.10117" lon="4.72526">
        <ele>493.23901367188</ele>
        <time>2010-03-17T14:29:13Z</time>
      </trkpt>
      <trkpt lat="45.10106" lon="4.72517">
        <ele>493.34100341797</ele>
        <time>2010-03-17T14:29:18Z</time>
      </trkpt>
      <trkpt lat="45.10087" lon="4.72508">
        <ele>493.89199829102</ele>
        <time>2010-03-17T14:29:25Z</time>
      </trkpt>
      <trkpt lat="45.1006" lon="4.72494">
        <ele>493.94900512695</ele>
        <time>2010-03-17T14:29:34Z</time>
      </trkpt>
      <trkpt lat="45.10045" lon="4.7248">
        <ele>493.47900390625</ele>
        <time>2010-03-17T14:29:40Z</time>
      </trkpt>
      <trkpt lat="45.10038" lon="4.72472">
        <ele>495.31201171875</ele>
        <time>2010-03-17T14:29:43Z</time>
      </trkpt>
      <trkpt lat="45.1003" lon="4.72452">
        <ele>496.77899169922</ele>
        <time>2010-03-17T14:29:49Z</time>
      </trkpt>
      <trkpt lat="45.10021" lon="4.72425">
        <ele>498.01998901367</ele>
        <time>2010-03-17T14:29:57Z</time>
      </trkpt>
      <trkpt lat="45.10011" lon="4.72413">
        <ele>498.78298950195</ele>
        <time>2010-03-17T14:30:03Z</time>
      </trkpt>
      <trkpt lat="45.1" lon="4.724">
        <ele>499.66500854492</ele>
        <time>2010-03-17T14:30:09Z</time>
      </trkpt>
      <trkpt lat="45.09985" lon="4.7238">
        <ele>499.54699707031</ele>
        <time>2010-03-17T14:30:17Z</time>
      </trkpt>
      <trkpt lat="45.09975" lon="4.72367">
        <ele>500.47601318359</ele>
        <time>2010-03-17T14:30:23Z</time>
      </trkpt>
      <trkpt lat="45.09966" lon="4.72353">
        <ele>501.93701171875</ele>
        <time>2010-03-17T14:30:29Z</time>
      </trkpt>
      <trkpt lat="45.09958" lon="4.72329">
        <ele>502.80999755859</ele>
        <time>2010-03-17T14:30:37Z</time>
      </trkpt>
      <trkpt lat="45.09951" lon="4.72305">
        <ele>503.78799438477</ele>
        <time>2010-03-17T14:30:45Z</time>
      </trkpt>
      <trkpt lat="45.09943" lon="4.72283">
        <ele>504.2380065918</ele>
        <time>2010-03-17T14:30:53Z</time>
      </trkpt>
      <trkpt lat="45.09936" lon="4.72262">
        <ele>504.7080078125</ele>
        <time>2010-03-17T14:31:00Z</time>
      </trkpt>
      <trkpt lat="45.09926" lon="4.72233">
        <ele>505.79000854492</ele>
        <time>2010-03-17T14:31:09Z</time>
      </trkpt>
      <trkpt lat="45.09919" lon="4.72213">
        <ele>504.89001464844</ele>
        <time>2010-03-17T14:31:15Z</time>
      </trkpt>
      <trkpt lat="45.09913" lon="4.72191">
        <ele>504.22399902344</ele>
        <time>2010-03-17T14:31:20Z</time>
      </trkpt>
      <trkpt lat="45.09908" lon="4.72156">
        <ele>503.83099365234</ele>
        <time>2010-03-17T14:31:26Z</time>
      </trkpt>
      <trkpt lat="45.09906" lon="4.72137">
        <ele>503.07998657227</ele>
        <time>2010-03-17T14:31:29Z</time>
      </trkpt>
      <trkpt lat="45.09901" lon="4.72089">
        <ele>503.1669921875</ele>
        <time>2010-03-17T14:31:37Z</time>
      </trkpt>
      <trkpt lat="45.09901" lon="4.72083">
        <ele>503.79901123047</ele>
        <time>2010-03-17T14:31:38Z</time>
      </trkpt>
      <trkpt lat="45.09895" lon="4.72037">
        <ele>505.29699707031</ele>
        <time>2010-03-17T14:31:46Z</time>
      </trkpt>
      <trkpt lat="45.09894" lon="4.72027">
        <ele>506.28799438477</ele>
        <time>2010-03-17T14:31:48Z</time>
      </trkpt>
      <trkpt lat="45.09888" lon="4.71997">
        <ele>506.49499511719</ele>
        <time>2010-03-17T14:31:54Z</time>
      </trkpt>
      <trkpt lat="45.09885" lon="4.7196">
        <ele>507.19799804688</ele>
        <time>2010-03-17T14:32:01Z</time>
      </trkpt>
      <trkpt lat="45.09888" lon="4.71926">
        <ele>508.49899291992</ele>
        <time>2010-03-17T14:32:08Z</time>
      </trkpt>
      <trkpt lat="45.09893" lon="4.71894">
        <ele>507.19799804688</ele>
        <time>2010-03-17T14:32:15Z</time>
      </trkpt>
      <trkpt lat="45.09893" lon="4.71861">
        <ele>507.42001342773</ele>
        <time>2010-03-17T14:32:21Z</time>
      </trkpt>
      <trkpt lat="45.09892" lon="4.71843">
        <ele>507.30801391602</ele>
        <time>2010-03-17T14:32:24Z</time>
      </trkpt>
      <trkpt lat="45.09898" lon="4.71809">
        <ele>505.56698608398</ele>
        <time>2010-03-17T14:32:29Z</time>
      </trkpt>
      <trkpt lat="45.0992" lon="4.71766">
        <ele>500.14099121094</ele>
        <time>2010-03-17T14:32:34Z</time>
      </trkpt>
      <trkpt lat="45.09945" lon="4.71723">
        <ele>497.08401489258</ele>
        <time>2010-03-17T14:32:38Z</time>
      </trkpt>
      <trkpt lat="45.09959" lon="4.71675">
        <ele>498.95901489258</ele>
        <time>2010-03-17T14:32:42Z</time>
      </trkpt>
      <trkpt lat="45.09958" lon="4.71656">
        <ele>499.15301513672</ele>
        <time>2010-03-17T14:32:44Z</time>
      </trkpt>
      <trkpt lat="45.09945" lon="4.71596">
        <ele>493.20599365234</ele>
        <time>2010-03-17T14:32:49Z</time>
      </trkpt>
      <trkpt lat="45.09942" lon="4.71551">
        <ele>489.73001098633</ele>
        <time>2010-03-17T14:32:52Z</time>
      </trkpt>
      <trkpt lat="45.09931" lon="4.71482">
        <ele>483.13198852539</ele>
        <time>2010-03-17T14:32:56Z</time>
      </trkpt>
      <trkpt lat="45.0992" lon="4.71453">
        <ele>486.32299804688</ele>
        <time>2010-03-17T14:32:59Z</time>
      </trkpt>
      <trkpt lat="45.09917" lon="4.71445">
        <ele>487.92599487305</ele>
        <time>2010-03-17T14:33:02Z</time>
      </trkpt>
      <trkpt lat="45.09915" lon="4.71429">
        <ele>488.01800537109</ele>
        <time>2010-03-17T14:33:07Z</time>
      </trkpt>
      <trkpt lat="45.09919" lon="4.71407">
        <ele>489.69400024414</ele>
        <time>2010-03-17T14:33:11Z</time>
      </trkpt>
      <trkpt lat="45.09921" lon="4.71401">
        <ele>490.41400146484</ele>
        <time>2010-03-17T14:33:12Z</time>
      </trkpt>
      <trkpt lat="45.09925" lon="4.7139">
        <ele>491.18399047852</ele>
        <time>2010-03-17T14:33:14Z</time>
      </trkpt>
      <trkpt lat="45.0993" lon="4.71363">
        <ele>492.68600463867</ele>
        <time>2010-03-17T14:33:18Z</time>
      </trkpt>
      <trkpt lat="45.09935" lon="4.71339">
        <ele>493.7619934082</ele>
        <time>2010-03-17T14:33:21Z</time>
      </trkpt>
      <trkpt lat="45.09946" lon="4.71306">
        <ele>494.13400268555</ele>
        <time>2010-03-17T14:33:25Z</time>
      </trkpt>
      <trkpt lat="45.09949" lon="4.71278">
        <ele>492.32998657227</ele>
        <time>2010-03-17T14:33:28Z</time>
      </trkpt>
      <trkpt lat="45.09964" lon="4.71233">
        <ele>487.50698852539</ele>
        <time>2010-03-17T14:33:32Z</time>
      </trkpt>
      <trkpt lat="45.09988" lon="4.71203">
        <ele>482.28201293945</ele>
        <time>2010-03-17T14:33:35Z</time>
      </trkpt>
      <trkpt lat="45.09998" lon="4.71194">
        <ele>480.97500610352</ele>
        <time>2010-03-17T14:33:36Z</time>
      </trkpt>
      <trkpt lat="45.10019" lon="4.71174">
        <ele>475.47399902344</ele>
        <time>2010-03-17T14:33:38Z</time>
      </trkpt>
      <trkpt lat="45.10037" lon="4.7113">
        <ele>471.78298950195</ele>
        <time>2010-03-17T14:33:41Z</time>
      </trkpt>
      <trkpt lat="45.10031" lon="4.71098">
        <ele>468.90899658203</ele>
        <time>2010-03-17T14:33:43Z</time>
      </trkpt>
      <trkpt lat="45.10015" lon="4.7107">
        <ele>463.99099731445</ele>
        <time>2010-03-17T14:33:45Z</time>
      </trkpt>
      <trkpt lat="45.10005" lon="4.7106">
        <ele>462.66299438477</ele>
        <time>2010-03-17T14:33:46Z</time>
      </trkpt>
      <trkpt lat="45.09994" lon="4.71052">
        <ele>461.09100341797</ele>
        <time>2010-03-17T14:33:47Z</time>
      </trkpt>
      <trkpt lat="45.09972" lon="4.71036">
        <ele>461.34399414062</ele>
        <time>2010-03-17T14:33:49Z</time>
      </trkpt>
      <trkpt lat="45.09962" lon="4.7103">
        <ele>461.51300048828</ele>
        <time>2010-03-17T14:33:50Z</time>
      </trkpt>
      <trkpt lat="45.09945" lon="4.71036">
        <ele>460.57998657227</ele>
        <time>2010-03-17T14:33:52Z</time>
      </trkpt>
      <trkpt lat="45.09938" lon="4.71044">
        <ele>459.58200073242</ele>
        <time>2010-03-17T14:33:53Z</time>
      </trkpt>
      <trkpt lat="45.09924" lon="4.71055">
        <ele>457.60299682617</ele>
        <time>2010-03-17T14:33:55Z</time>
      </trkpt>
      <trkpt lat="45.09908" lon="4.71045">
        <ele>454.29098510742</ele>
        <time>2010-03-17T14:33:57Z</time>
      </trkpt>
      <trkpt lat="45.09899" lon="4.71022">
        <ele>453.06900024414</ele>
        <time>2010-03-17T14:33:59Z</time>
      </trkpt>
      <trkpt lat="45.09895" lon="4.7101">
        <ele>452.84298706055</ele>
        <time>2010-03-17T14:34:00Z</time>
      </trkpt>
      <trkpt lat="45.09884" lon="4.70971">
        <ele>448.33700561523</ele>
        <time>2010-03-17T14:34:03Z</time>
      </trkpt>
      <trkpt lat="45.09884" lon="4.70955">
        <ele>446.26400756836</ele>
        <time>2010-03-17T14:34:04Z</time>
      </trkpt>
      <trkpt lat="45.09886" lon="4.70886">
        <ele>450.12701416016</ele>
        <time>2010-03-17T14:34:09Z</time>
      </trkpt>
      <trkpt lat="45.09887" lon="4.70877">
        <ele>451.28900146484</ele>
        <time>2010-03-17T14:34:10Z</time>
      </trkpt>
      <trkpt lat="45.09896" lon="4.7083">
        <ele>454.83898925781</ele>
        <time>2010-03-17T14:34:17Z</time>
      </trkpt>
      <trkpt lat="45.09904" lon="4.70783">
        <ele>457.29400634766</ele>
        <time>2010-03-17T14:34:26Z</time>
      </trkpt>
      <trkpt lat="45.09908" lon="4.70761">
        <ele>457.79598999023</ele>
        <time>2010-03-17T14:34:31Z</time>
      </trkpt>
      <trkpt lat="45.09914" lon="4.70729">
        <ele>458.65200805664</ele>
        <time>2010-03-17T14:34:38Z</time>
      </trkpt>
      <trkpt lat="45.09919" lon="4.70692">
        <ele>459.78799438477</ele>
        <time>2010-03-17T14:34:46Z</time>
      </trkpt>
      <trkpt lat="45.0992" lon="4.70664">
        <ele>460.90200805664</ele>
        <time>2010-03-17T14:34:52Z</time>
      </trkpt>
      <trkpt lat="45.09916" lon="4.70643">
        <ele>462.5530090332</ele>
        <time>2010-03-17T14:34:58Z</time>
      </trkpt>
      <trkpt lat="45.09903" lon="4.70619">
        <ele>463.60299682617</ele>
        <time>2010-03-17T14:35:06Z</time>
      </trkpt>
      <trkpt lat="45.09892" lon="4.70595">
        <ele>465.29000854492</ele>
        <time>2010-03-17T14:35:14Z</time>
      </trkpt>
      <trkpt lat="45.09884" lon="4.70579">
        <ele>466.02700805664</ele>
        <time>2010-03-17T14:35:20Z</time>
      </trkpt>
      <trkpt lat="45.09872" lon="4.7055">
        <ele>467.88598632812</ele>
        <time>2010-03-17T14:35:29Z</time>
      </trkpt>
      <trkpt lat="45.09864" lon="4.70527">
        <ele>469.51699829102</ele>
        <time>2010-03-17T14:35:37Z</time>
      </trkpt>
      <trkpt lat="45.09862" lon="4.70514">
        <ele>471.64300537109</ele>
        <time>2010-03-17T14:35:41Z</time>
      </trkpt>
      <trkpt lat="45.09859" lon="4.70496">
        <ele>472.36999511719</ele>
        <time>2010-03-17T14:35:46Z</time>
      </trkpt>
      <trkpt lat="45.09858" lon="4.70487">
        <ele>473.13198852539</ele>
        <time>2010-03-17T14:35:48Z</time>
      </trkpt>
      <trkpt lat="45.09853" lon="4.70459">
        <ele>474.33200073242</ele>
        <time>2010-03-17T14:35:53Z</time>
      </trkpt>
      <trkpt lat="45.09847" lon="4.70423">
        <ele>475.91000366211</ele>
        <time>2010-03-17T14:35:59Z</time>
      </trkpt>
      <trkpt lat="45.09842" lon="4.70394">
        <ele>476.89498901367</ele>
        <time>2010-03-17T14:36:05Z</time>
      </trkpt>
      <trkpt lat="45.09837" lon="4.70359">
        <ele>479.61898803711</ele>
        <time>2010-03-17T14:36:13Z</time>
      </trkpt>
      <trkpt lat="45.09836" lon="4.70353">
        <ele>479.54000854492</ele>
        <time>2010-03-17T14:36:17Z</time>
      </trkpt>
      <trkpt lat="45.09836" lon="4.70361">
        <ele>479.64199829102</ele>
        <time>2010-03-17T14:37:22Z</time>
      </trkpt>
      <trkpt lat="45.09838" lon="4.70375">
        <ele>480.13198852539</ele>
        <time>2010-03-17T14:37:27Z</time>
      </trkpt>
      <trkpt lat="45.09839" lon="4.70379">
        <ele>479.79400634766</ele>
        <time>2010-03-17T14:37:28Z</time>
      </trkpt>
      <trkpt lat="45.09841" lon="4.70391">
        <ele>477.89599609375</ele>
        <time>2010-03-17T14:37:30Z</time>
      </trkpt>
      <trkpt lat="45.09849" lon="4.70438">
        <ele>475.72299194336</ele>
        <time>2010-03-17T14:37:36Z</time>
      </trkpt>
      <trkpt lat="45.0986" lon="4.70507">
        <ele>471.97500610352</ele>
        <time>2010-03-17T14:37:43Z</time>
      </trkpt>
      <trkpt lat="45.09866" lon="4.70537">
        <ele>469.08700561523</ele>
        <time>2010-03-17T14:37:46Z</time>
      </trkpt>
      <trkpt lat="45.09885" lon="4.70589">
        <ele>465.27899169922</ele>
        <time>2010-03-17T14:37:51Z</time>
      </trkpt>
      <trkpt lat="45.0991" lon="4.70641">
        <ele>462.35400390625</ele>
        <time>2010-03-17T14:37:57Z</time>
      </trkpt>
      <trkpt lat="45.09918" lon="4.70678">
        <ele>458.97799682617</ele>
        <time>2010-03-17T14:38:01Z</time>
      </trkpt>
      <trkpt lat="45.09916" lon="4.70701">
        <ele>458.25</ele>
        <time>2010-03-17T14:38:03Z</time>
      </trkpt>
      <trkpt lat="45.09905" lon="4.7077">
        <ele>455.51998901367</ele>
        <time>2010-03-17T14:38:09Z</time>
      </trkpt>
      <trkpt lat="45.09892" lon="4.70859">
        <ele>452.38000488281</ele>
        <time>2010-03-17T14:38:17Z</time>
      </trkpt>
      <trkpt lat="45.09887" lon="4.70889">
        <ele>451.44900512695</ele>
        <time>2010-03-17T14:38:20Z</time>
      </trkpt>
      <trkpt lat="45.09885" lon="4.7093">
        <ele>449.13198852539</ele>
        <time>2010-03-17T14:38:26Z</time>
      </trkpt>
      <trkpt lat="45.09885" lon="4.70938">
        <ele>448.55499267578</ele>
        <time>2010-03-17T14:38:29Z</time>
      </trkpt>
      <trkpt lat="45.09887" lon="4.7094">
        <ele>448.12799072266</ele>
        <time>2010-03-17T14:38:33Z</time>
      </trkpt>
      <trkpt lat="45.09888" lon="4.70931">
        <ele>449.16299438477</ele>
        <time>2010-03-17T14:45:49Z</time>
      </trkpt>
      <trkpt lat="45.09888" lon="4.7093">
        <ele>449.15100097656</ele>
        <time>2010-03-17T14:45:50Z</time>
      </trkpt>
      <trkpt lat="45.09886" lon="4.70929">
        <ele>448.91500854492</ele>
        <time>2010-03-17T14:48:38Z</time>
      </trkpt>
      <trkpt lat="45.09885" lon="4.70924">
        <ele>449.36801147461</ele>
        <time>2010-03-17T14:49:22Z</time>
      </trkpt>
      <trkpt lat="45.09885" lon="4.70912">
        <ele>450.07400512695</ele>
        <time>2010-03-17T14:49:28Z</time>
      </trkpt>
      <trkpt lat="45.09884" lon="4.70901">
        <ele>451.13198852539</ele>
        <time>2010-03-17T14:49:33Z</time>
      </trkpt>
      <trkpt lat="45.09884" lon="4.70894">
        <ele>451.36700439453</ele>
        <time>2010-03-17T14:49:36Z</time>
      </trkpt>
      <trkpt lat="45.09885" lon="4.70881">
        <ele>452.56201171875</ele>
        <time>2010-03-17T14:49:41Z</time>
      </trkpt>
      <trkpt lat="45.09887" lon="4.70868">
        <ele>453.1960144043</ele>
        <time>2010-03-17T14:49:46Z</time>
      </trkpt>
      <trkpt lat="45.09891" lon="4.70846">
        <ele>454.0119934082</ele>
        <time>2010-03-17T14:49:53Z</time>
      </trkpt>
      <trkpt lat="45.09897" lon="4.70821">
        <ele>455.10400390625</ele>
        <time>2010-03-17T14:50:02Z</time>
      </trkpt>
      <trkpt lat="45.099" lon="4.70802">
        <ele>456.07000732422</ele>
        <time>2010-03-17T14:50:08Z</time>
      </trkpt>
      <trkpt lat="45.09905" lon="4.70777">
        <ele>457.01599121094</ele>
        <time>2010-03-17T14:50:15Z</time>
      </trkpt>
      <trkpt lat="45.09909" lon="4.70751">
        <ele>457.79901123047</ele>
        <time>2010-03-17T14:50:22Z</time>
      </trkpt>
      <trkpt lat="45.09912" lon="4.70728">
        <ele>458.27301025391</ele>
        <time>2010-03-17T14:50:28Z</time>
      </trkpt>
      <trkpt lat="45.09917" lon="4.70698">
        <ele>459.4169921875</ele>
        <time>2010-03-17T14:50:36Z</time>
      </trkpt>
      <trkpt lat="45.09919" lon="4.70669">
        <ele>460.31500244141</ele>
        <time>2010-03-17T14:50:44Z</time>
      </trkpt>
      <trkpt lat="45.09916" lon="4.70647">
        <ele>461.79098510742</ele>
        <time>2010-03-17T14:50:50Z</time>
      </trkpt>
      <trkpt lat="45.09903" lon="4.7062">
        <ele>463.125</ele>
        <time>2010-03-17T14:50:58Z</time>
      </trkpt>
      <trkpt lat="45.09894" lon="4.70601">
        <ele>464.2799987793</ele>
        <time>2010-03-17T14:51:04Z</time>
      </trkpt>
      <trkpt lat="45.09881" lon="4.70572">
        <ele>465.2200012207</ele>
        <time>2010-03-17T14:51:13Z</time>
      </trkpt>
      <trkpt lat="45.09871" lon="4.70546">
        <ele>467.08499145508</ele>
        <time>2010-03-17T14:51:21Z</time>
      </trkpt>
      <trkpt lat="45.09864" lon="4.70525">
        <ele>469.09698486328</ele>
        <time>2010-03-17T14:51:28Z</time>
      </trkpt>
      <trkpt lat="45.09859" lon="4.70494">
        <ele>471.10400390625</ele>
        <time>2010-03-17T14:51:37Z</time>
      </trkpt>
      <trkpt lat="45.09854" lon="4.70466">
        <ele>472.47601318359</ele>
        <time>2010-03-17T14:51:45Z</time>
      </trkpt>
      <trkpt lat="45.09851" lon="4.70446">
        <ele>473.90701293945</ele>
        <time>2010-03-17T14:51:51Z</time>
      </trkpt>
      <trkpt lat="45.09847" lon="4.70427">
        <ele>474.6780090332</ele>
        <time>2010-03-17T14:51:57Z</time>
      </trkpt>
      <trkpt lat="45.09843" lon="4.70407">
        <ele>475.33401489258</ele>
        <time>2010-03-17T14:52:03Z</time>
      </trkpt>
      <trkpt lat="45.09838" lon="4.7038">
        <ele>477.00601196289</ele>
        <time>2010-03-17T14:52:11Z</time>
      </trkpt>
      <trkpt lat="45.09836" lon="4.70365">
        <ele>477.59899902344</ele>
        <time>2010-03-17T14:52:17Z</time>
      </trkpt>
      <trkpt lat="45.09834" lon="4.70351">
        <ele>477.88400268555</ele>
        <time>2010-03-17T14:52:23Z</time>
      </trkpt>
      <trkpt lat="45.09832" lon="4.70333">
        <ele>479.50799560547</ele>
        <time>2010-03-17T14:52:31Z</time>
      </trkpt>
      <trkpt lat="45.0983" lon="4.70312">
        <ele>480.56399536133</ele>
        <time>2010-03-17T14:52:40Z</time>
      </trkpt>
      <trkpt lat="45.09828" lon="4.70294">
        <ele>481.5950012207</ele>
        <time>2010-03-17T14:52:47Z</time>
      </trkpt>
      <trkpt lat="45.09827" lon="4.7028">
        <ele>482.42401123047</ele>
        <time>2010-03-17T14:52:53Z</time>
      </trkpt>
      <trkpt lat="45.09825" lon="4.70261">
        <ele>483.36199951172</ele>
        <time>2010-03-17T14:53:01Z</time>
      </trkpt>
      <trkpt lat="45.09824" lon="4.7024">
        <ele>483.74798583984</ele>
        <time>2010-03-17T14:53:10Z</time>
      </trkpt>
      <trkpt lat="45.09821" lon="4.70223">
        <ele>485.59698486328</ele>
        <time>2010-03-17T14:53:17Z</time>
      </trkpt>
      <trkpt lat="45.09819" lon="4.70203">
        <ele>487.13198852539</ele>
        <time>2010-03-17T14:53:25Z</time>
      </trkpt>
      <trkpt lat="45.09815" lon="4.70185">
        <ele>487.89999389648</ele>
        <time>2010-03-17T14:53:33Z</time>
      </trkpt>
      <trkpt lat="45.09813" lon="4.70169">
        <ele>489.4169921875</ele>
        <time>2010-03-17T14:53:40Z</time>
      </trkpt>
      <trkpt lat="45.09809" lon="4.70146">
        <ele>490.88400268555</ele>
        <time>2010-03-17T14:53:50Z</time>
      </trkpt>
      <trkpt lat="45.09807" lon="4.70132">
        <ele>492.50500488281</ele>
        <time>2010-03-17T14:53:56Z</time>
      </trkpt>
      <trkpt lat="45.09804" lon="4.70112">
        <ele>493.08499145508</ele>
        <time>2010-03-17T14:54:04Z</time>
      </trkpt>
      <trkpt lat="45.09802" lon="4.70095">
        <ele>494.54699707031</ele>
        <time>2010-03-17T14:54:11Z</time>
      </trkpt>
      <trkpt lat="45.09801" lon="4.70075">
        <ele>495.00799560547</ele>
        <time>2010-03-17T14:54:19Z</time>
      </trkpt>
      <trkpt lat="45.09798" lon="4.70051">
        <ele>496.54501342773</ele>
        <time>2010-03-17T14:54:27Z</time>
      </trkpt>
      <trkpt lat="45.09796" lon="4.70026">
        <ele>497.84899902344</ele>
        <time>2010-03-17T14:54:35Z</time>
      </trkpt>
      <trkpt lat="45.09794" lon="4.70006">
        <ele>498.7380065918</ele>
        <time>2010-03-17T14:54:42Z</time>
      </trkpt>
      <trkpt lat="45.09792" lon="4.69985">
        <ele>500.53799438477</ele>
        <time>2010-03-17T14:54:49Z</time>
      </trkpt>
      <trkpt lat="45.09791" lon="4.69973">
        <ele>502.11801147461</ele>
        <time>2010-03-17T14:54:53Z</time>
      </trkpt>
      <trkpt lat="45.09789" lon="4.69944">
        <ele>502.88101196289</ele>
        <time>2010-03-17T14:55:03Z</time>
      </trkpt>
      <trkpt lat="45.09788" lon="4.69926">
        <ele>504.9280090332</ele>
        <time>2010-03-17T14:55:10Z</time>
      </trkpt>
      <trkpt lat="45.09788" lon="4.69909">
        <ele>505.49398803711</ele>
        <time>2010-03-17T14:55:16Z</time>
      </trkpt>
      <trkpt lat="45.09788" lon="4.69894">
        <ele>507.21899414062</ele>
        <time>2010-03-17T14:55:21Z</time>
      </trkpt>
      <trkpt lat="45.09788" lon="4.69889">
        <ele>507.54098510742</ele>
        <time>2010-03-17T14:55:23Z</time>
      </trkpt>
      <trkpt lat="45.09788" lon="4.69877">
        <ele>508.23699951172</ele>
        <time>2010-03-17T14:55:29Z</time>
      </trkpt>
      <trkpt lat="45.09788" lon="4.69876">
        <ele>508.33401489258</ele>
        <time>2010-03-17T14:55:33Z</time>
      </trkpt>
      <trkpt lat="45.09787" lon="4.69876">
        <ele>508.66400146484</ele>
        <time>2010-03-17T14:55:35Z</time>
      </trkpt>
      <trkpt lat="45.09785" lon="4.69881">
        <ele>508.09399414062</ele>
        <time>2010-03-17T14:55:59Z</time>
      </trkpt>
      <trkpt lat="45.09784" lon="4.69891">
        <ele>506.79400634766</ele>
        <time>2010-03-17T14:56:02Z</time>
      </trkpt>
      <trkpt lat="45.09783" lon="4.6991">
        <ele>505.46701049805</ele>
        <time>2010-03-17T14:56:05Z</time>
      </trkpt>
      <trkpt lat="45.09784" lon="4.69936">
        <ele>503.22601318359</ele>
        <time>2010-03-17T14:56:08Z</time>
      </trkpt>
      <trkpt lat="45.09788" lon="4.69981">
        <ele>499.65200805664</ele>
        <time>2010-03-17T14:56:12Z</time>
      </trkpt>
      <trkpt lat="45.09794" lon="4.70048">
        <ele>496.75601196289</ele>
        <time>2010-03-17T14:56:17Z</time>
      </trkpt>
      <trkpt lat="45.09802" lon="4.70117">
        <ele>494.16598510742</ele>
        <time>2010-03-17T14:56:22Z</time>
      </trkpt>
      <trkpt lat="45.09807" lon="4.70152">
        <ele>491.88800048828</ele>
        <time>2010-03-17T14:56:26Z</time>
      </trkpt>
      <trkpt lat="45.09812" lon="4.70181">
        <ele>489.64700317383</ele>
        <time>2010-03-17T14:56:30Z</time>
      </trkpt>
      <trkpt lat="45.09815" lon="4.70199">
        <ele>488.40200805664</ele>
        <time>2010-03-17T14:56:34Z</time>
      </trkpt>
      <trkpt lat="45.0982" lon="4.70222">
        <ele>486.51800537109</ele>
        <time>2010-03-17T14:56:39Z</time>
      </trkpt>
      <trkpt lat="45.09821" lon="4.70229">
        <ele>486.27301025391</ele>
        <time>2010-03-17T14:56:40Z</time>
      </trkpt>
      <trkpt lat="45.09826" lon="4.70267">
        <ele>482.82901000977</ele>
        <time>2010-03-17T14:56:44Z</time>
      </trkpt>
      <trkpt lat="45.0983" lon="4.70319">
        <ele>480.20199584961</ele>
        <time>2010-03-17T14:56:49Z</time>
      </trkpt>
      <trkpt lat="45.09832" lon="4.70341">
        <ele>479.20199584961</ele>
        <time>2010-03-17T14:56:52Z</time>
      </trkpt>
      <trkpt lat="45.09833" lon="4.70353">
        <ele>478.48498535156</ele>
        <time>2010-03-17T14:56:54Z</time>
      </trkpt>
      <trkpt lat="45.09847" lon="4.70371">
        <ele>477.35000610352</ele>
        <time>2010-03-17T14:56:58Z</time>
      </trkpt>
      <trkpt lat="45.09852" lon="4.70373">
        <ele>477.27099609375</ele>
        <time>2010-03-17T14:56:59Z</time>
      </trkpt>
      <trkpt lat="45.09875" lon="4.70377">
        <ele>476.70498657227</ele>
        <time>2010-03-17T14:57:03Z</time>
      </trkpt>
      <trkpt lat="45.09907" lon="4.70384">
        <ele>476.35198974609</ele>
        <time>2010-03-17T14:57:08Z</time>
      </trkpt>
      <trkpt lat="45.09927" lon="4.70388">
        <ele>475.90301513672</ele>
        <time>2010-03-17T14:57:11Z</time>
      </trkpt>
      <trkpt lat="45.09988" lon="4.70401">
        <ele>474.34201049805</ele>
        <time>2010-03-17T14:57:19Z</time>
      </trkpt>
      <trkpt lat="45.10038" lon="4.7041">
        <ele>473.49600219727</ele>
        <time>2010-03-17T14:57:25Z</time>
      </trkpt>
      <trkpt lat="45.10082" lon="4.70421">
        <ele>474.23400878906</ele>
        <time>2010-03-17T14:57:31Z</time>
      </trkpt>
      <trkpt lat="45.10126" lon="4.7043">
        <ele>474.90200805664</ele>
        <time>2010-03-17T14:57:37Z</time>
      </trkpt>
      <trkpt lat="45.10186" lon="4.70434">
        <ele>474.90899658203</ele>
        <time>2010-03-17T14:57:45Z</time>
      </trkpt>
      <trkpt lat="45.10236" lon="4.70429">
        <ele>474.81201171875</ele>
        <time>2010-03-17T14:57:52Z</time>
      </trkpt>
      <trkpt lat="45.10274" lon="4.7042">
        <ele>473.72299194336</ele>
        <time>2010-03-17T14:57:57Z</time>
      </trkpt>
      <trkpt lat="45.1031" lon="4.70404">
        <ele>474.18200683594</ele>
        <time>2010-03-17T14:58:02Z</time>
      </trkpt>
      <trkpt lat="45.1034" lon="4.70373">
        <ele>473.87298583984</ele>
        <time>2010-03-17T14:58:07Z</time>
      </trkpt>
      <trkpt lat="45.10377" lon="4.70323">
        <ele>474.47399902344</ele>
        <time>2010-03-17T14:58:14Z</time>
      </trkpt>
      <trkpt lat="45.1041" lon="4.70301">
        <ele>473.89001464844</ele>
        <time>2010-03-17T14:58:19Z</time>
      </trkpt>
      <trkpt lat="45.10418" lon="4.70299">
        <ele>473.65899658203</ele>
        <time>2010-03-17T14:58:20Z</time>
      </trkpt>
      <trkpt lat="45.10453" lon="4.703">
        <ele>475.37799072266</ele>
        <time>2010-03-17T14:58:25Z</time>
      </trkpt>
      <trkpt lat="45.10459" lon="4.70303">
        <ele>475.38000488281</ele>
        <time>2010-03-17T14:58:26Z</time>
      </trkpt>
      <trkpt lat="45.10507" lon="4.70333">
        <ele>476.08599853516</ele>
        <time>2010-03-17T14:58:34Z</time>
      </trkpt>
      <trkpt lat="45.10551" lon="4.70349">
        <ele>476.34201049805</ele>
        <time>2010-03-17T14:58:41Z</time>
      </trkpt>
      <trkpt lat="45.10595" lon="4.70361">
        <ele>477.40798950195</ele>
        <time>2010-03-17T14:58:48Z</time>
      </trkpt>
      <trkpt lat="45.10613" lon="4.70363">
        <ele>477.60198974609</ele>
        <time>2010-03-17T14:58:51Z</time>
      </trkpt>
      <trkpt lat="45.1065" lon="4.70348">
        <ele>477.36898803711</ele>
        <time>2010-03-17T14:58:57Z</time>
      </trkpt>
      <trkpt lat="45.10667" lon="4.70335">
        <ele>477.50299072266</ele>
        <time>2010-03-17T14:59:00Z</time>
      </trkpt>
      <trkpt lat="45.10678" lon="4.70328">
        <ele>477.78601074219</ele>
        <time>2010-03-17T14:59:02Z</time>
      </trkpt>
      <trkpt lat="45.1071" lon="4.70323">
        <ele>477.48001098633</ele>
        <time>2010-03-17T14:59:07Z</time>
      </trkpt>
      <trkpt lat="45.10727" lon="4.70332">
        <ele>478.18600463867</ele>
        <time>2010-03-17T14:59:10Z</time>
      </trkpt>
      <trkpt lat="45.10751" lon="4.70359">
        <ele>480.03100585938</ele>
        <time>2010-03-17T14:59:16Z</time>
      </trkpt>
      <trkpt lat="45.1076" lon="4.70373">
        <ele>480.67401123047</ele>
        <time>2010-03-17T14:59:19Z</time>
      </trkpt>
      <trkpt lat="45.10775" lon="4.70394">
        <ele>481.85299682617</ele>
        <time>2010-03-17T14:59:24Z</time>
      </trkpt>
      <trkpt lat="45.10801" lon="4.70408">
        <ele>482.99398803711</ele>
        <time>2010-03-17T14:59:31Z</time>
      </trkpt>
      <trkpt lat="45.1083" lon="4.70406">
        <ele>484.37899780273</ele>
        <time>2010-03-17T14:59:39Z</time>
      </trkpt>
      <trkpt lat="45.10852" lon="4.70398">
        <ele>485.17401123047</ele>
        <time>2010-03-17T14:59:45Z</time>
      </trkpt>
      <trkpt lat="45.10876" lon="4.70384">
        <ele>485.92498779297</ele>
        <time>2010-03-17T14:59:52Z</time>
      </trkpt>
      <trkpt lat="45.10904" lon="4.70361">
        <ele>487.35000610352</ele>
        <time>2010-03-17T15:00:00Z</time>
      </trkpt>
      <trkpt lat="45.10918" lon="4.70346">
        <ele>488.07998657227</ele>
        <time>2010-03-17T15:00:05Z</time>
      </trkpt>
      <trkpt lat="45.10937" lon="4.70322">
        <ele>489.51901245117</ele>
        <time>2010-03-17T15:00:12Z</time>
      </trkpt>
      <trkpt lat="45.10956" lon="4.70292">
        <ele>490.3330078125</ele>
        <time>2010-03-17T15:00:20Z</time>
      </trkpt>
      <trkpt lat="45.10978" lon="4.70262">
        <ele>491.29800415039</ele>
        <time>2010-03-17T15:00:28Z</time>
      </trkpt>
      <trkpt lat="45.11008" lon="4.7023">
        <ele>493.21701049805</ele>
        <time>2010-03-17T15:00:38Z</time>
      </trkpt>
      <trkpt lat="45.1103" lon="4.70207">
        <ele>494.65100097656</ele>
        <time>2010-03-17T15:00:45Z</time>
      </trkpt>
      <trkpt lat="45.11055" lon="4.70186">
        <ele>495.97100830078</ele>
        <time>2010-03-17T15:00:52Z</time>
      </trkpt>
      <trkpt lat="45.11084" lon="4.70166">
        <ele>497.21398925781</ele>
        <time>2010-03-17T15:01:00Z</time>
      </trkpt>
      <trkpt lat="45.11116" lon="4.70153">
        <ele>498.61801147461</ele>
        <time>2010-03-17T15:01:08Z</time>
      </trkpt>
      <trkpt lat="45.11143" lon="4.70147">
        <ele>499.83599853516</ele>
        <time>2010-03-17T15:01:15Z</time>
      </trkpt>
      <trkpt lat="45.11175" lon="4.70146">
        <ele>500.93301391602</ele>
        <time>2010-03-17T15:01:23Z</time>
      </trkpt>
      <trkpt lat="45.11205" lon="4.70158">
        <ele>503.14999389648</ele>
        <time>2010-03-17T15:01:31Z</time>
      </trkpt>
      <trkpt lat="45.11233" lon="4.70175">
        <ele>504.96301269531</ele>
        <time>2010-03-17T15:01:39Z</time>
      </trkpt>
      <trkpt lat="45.11256" lon="4.70176">
        <ele>504.32699584961</ele>
        <time>2010-03-17T15:01:45Z</time>
      </trkpt>
      <trkpt lat="45.11279" lon="4.70164">
        <ele>506.07998657227</ele>
        <time>2010-03-17T15:01:51Z</time>
      </trkpt>
      <trkpt lat="45.11301" lon="4.70147">
        <ele>506.92700195312</ele>
        <time>2010-03-17T15:01:57Z</time>
      </trkpt>
      <trkpt lat="45.11327" lon="4.7013">
        <ele>506.79901123047</ele>
        <time>2010-03-17T15:02:03Z</time>
      </trkpt>
      <trkpt lat="45.11345" lon="4.70136">
        <ele>507.29501342773</ele>
        <time>2010-03-17T15:02:07Z</time>
      </trkpt>
      <trkpt lat="45.1135" lon="4.70148">
        <ele>508.27499389648</ele>
        <time>2010-03-17T15:02:09Z</time>
      </trkpt>
      <trkpt lat="45.11362" lon="4.70198">
        <ele>508.9169921875</ele>
        <time>2010-03-17T15:02:16Z</time>
      </trkpt>
      <trkpt lat="45.11364" lon="4.70253">
        <ele>510.2080078125</ele>
        <time>2010-03-17T15:02:23Z</time>
      </trkpt>
      <trkpt lat="45.11371" lon="4.70318">
        <ele>511.60000610352</ele>
        <time>2010-03-17T15:02:31Z</time>
      </trkpt>
      <trkpt lat="45.1139" lon="4.70383">
        <ele>513.15997314453</ele>
        <time>2010-03-17T15:02:39Z</time>
      </trkpt>
      <trkpt lat="45.11409" lon="4.70449">
        <ele>514.84399414062</ele>
        <time>2010-03-17T15:02:47Z</time>
      </trkpt>
      <trkpt lat="45.11434" lon="4.70528">
        <ele>516.73602294922</ele>
        <time>2010-03-17T15:02:57Z</time>
      </trkpt>
      <trkpt lat="45.1146" lon="4.70584">
        <ele>518.61499023438</ele>
        <time>2010-03-17T15:03:05Z</time>
      </trkpt>
      <trkpt lat="45.11493" lon="4.7065">
        <ele>520.30200195312</ele>
        <time>2010-03-17T15:03:14Z</time>
      </trkpt>
      <trkpt lat="45.11522" lon="4.70707">
        <ele>521.71600341797</ele>
        <time>2010-03-17T15:03:22Z</time>
      </trkpt>
      <trkpt lat="45.11544" lon="4.70758">
        <ele>523.15802001953</ele>
        <time>2010-03-17T15:03:29Z</time>
      </trkpt>
      <trkpt lat="45.11555" lon="4.70826">
        <ele>524.81402587891</ele>
        <time>2010-03-17T15:03:37Z</time>
      </trkpt>
      <trkpt lat="45.11555" lon="4.70886">
        <ele>525.7919921875</ele>
        <time>2010-03-17T15:03:44Z</time>
      </trkpt>
      <trkpt lat="45.11554" lon="4.70962">
        <ele>528.14599609375</ele>
        <time>2010-03-17T15:03:53Z</time>
      </trkpt>
      <trkpt lat="45.11562" lon="4.71027">
        <ele>529.91998291016</ele>
        <time>2010-03-17T15:04:01Z</time>
      </trkpt>
      <trkpt lat="45.11577" lon="4.71073">
        <ele>531.82897949219</ele>
        <time>2010-03-17T15:04:07Z</time>
      </trkpt>
      <trkpt lat="45.11609" lon="4.71139">
        <ele>532.61102294922</ele>
        <time>2010-03-17T15:04:16Z</time>
      </trkpt>
      <trkpt lat="45.11627" lon="4.71192">
        <ele>531.97601318359</ele>
        <time>2010-03-17T15:04:22Z</time>
      </trkpt>
      <trkpt lat="45.11647" lon="4.71267">
        <ele>530.49298095703</ele>
        <time>2010-03-17T15:04:29Z</time>
      </trkpt>
      <trkpt lat="45.11659" lon="4.71314">
        <ele>528.69598388672</ele>
        <time>2010-03-17T15:04:33Z</time>
      </trkpt>
      <trkpt lat="45.11686" lon="4.7142">
        <ele>525.93597412109</ele>
        <time>2010-03-17T15:04:41Z</time>
      </trkpt>
      <trkpt lat="45.11702" lon="4.71501">
        <ele>524.27600097656</ele>
        <time>2010-03-17T15:04:47Z</time>
      </trkpt>
      <trkpt lat="45.11705" lon="4.71543">
        <ele>522.50500488281</ele>
        <time>2010-03-17T15:04:50Z</time>
      </trkpt>
      <trkpt lat="45.11708" lon="4.71663">
        <ele>518.86499023438</ele>
        <time>2010-03-17T15:04:58Z</time>
      </trkpt>
      <trkpt lat="45.11709" lon="4.71694">
        <ele>517.84899902344</ele>
        <time>2010-03-17T15:05:00Z</time>
      </trkpt>
      <trkpt lat="45.11711" lon="4.718">
        <ele>516.68499755859</ele>
        <time>2010-03-17T15:05:07Z</time>
      </trkpt>
      <trkpt lat="45.11703" lon="4.71878">
        <ele>513.19702148438</ele>
        <time>2010-03-17T15:05:12Z</time>
      </trkpt>
      <trkpt lat="45.11702" lon="4.7191">
        <ele>511.76998901367</ele>
        <time>2010-03-17T15:05:14Z</time>
      </trkpt>
      <trkpt lat="45.11701" lon="4.71927">
        <ele>511.17098999023</ele>
        <time>2010-03-17T15:05:15Z</time>
      </trkpt>
      <trkpt lat="45.11707" lon="4.72007">
        <ele>509.31799316406</ele>
        <time>2010-03-17T15:05:20Z</time>
      </trkpt>
      <trkpt lat="45.11711" lon="4.72038">
        <ele>508.54699707031</ele>
        <time>2010-03-17T15:05:22Z</time>
      </trkpt>
      <trkpt lat="45.11733" lon="4.72091">
        <ele>507.43499755859</ele>
        <time>2010-03-17T15:05:26Z</time>
      </trkpt>
      <trkpt lat="45.11742" lon="4.72101">
        <ele>507.13598632812</ele>
        <time>2010-03-17T15:05:27Z</time>
      </trkpt>
      <trkpt lat="45.1176" lon="4.7212">
        <ele>506.87701416016</ele>
        <time>2010-03-17T15:05:29Z</time>
      </trkpt>
      <trkpt lat="45.11768" lon="4.72129">
        <ele>505.28500366211</ele>
        <time>2010-03-17T15:05:30Z</time>
      </trkpt>
      <trkpt lat="45.11777" lon="4.72139">
        <ele>504.99398803711</ele>
        <time>2010-03-17T15:05:31Z</time>
      </trkpt>
      <trkpt lat="45.11794" lon="4.7216">
        <ele>503.86700439453</ele>
        <time>2010-03-17T15:05:33Z</time>
      </trkpt>
      <trkpt lat="45.11802" lon="4.72171">
        <ele>503.58099365234</ele>
        <time>2010-03-17T15:05:34Z</time>
      </trkpt>
      <trkpt lat="45.11826" lon="4.72203">
        <ele>502.65600585938</ele>
        <time>2010-03-17T15:05:37Z</time>
      </trkpt>
      <trkpt lat="45.11855" lon="4.72269">
        <ele>499.88900756836</ele>
        <time>2010-03-17T15:05:42Z</time>
      </trkpt>
      <trkpt lat="45.11861" lon="4.72298">
        <ele>500.38500976562</ele>
        <time>2010-03-17T15:05:44Z</time>
      </trkpt>
      <trkpt lat="45.11866" lon="4.7238">
        <ele>497.76300048828</ele>
        <time>2010-03-17T15:05:50Z</time>
      </trkpt>
      <trkpt lat="45.11855" lon="4.72447">
        <ele>496.42199707031</ele>
        <time>2010-03-17T15:05:55Z</time>
      </trkpt>
      <trkpt lat="45.11832" lon="4.72546">
        <ele>496.08200073242</ele>
        <time>2010-03-17T15:06:03Z</time>
      </trkpt>
      <trkpt lat="45.11817" lon="4.7261">
        <ele>496.3630065918</ele>
        <time>2010-03-17T15:06:09Z</time>
      </trkpt>
      <trkpt lat="45.11802" lon="4.72678">
        <ele>496.79299926758</ele>
        <time>2010-03-17T15:06:16Z</time>
      </trkpt>
      <trkpt lat="45.11781" lon="4.72764">
        <ele>497.01501464844</ele>
        <time>2010-03-17T15:06:25Z</time>
      </trkpt>
      <trkpt lat="45.11748" lon="4.72823">
        <ele>494.47799682617</ele>
        <time>2010-03-17T15:06:32Z</time>
      </trkpt>
      <trkpt lat="45.11714" lon="4.7288">
        <ele>491.64498901367</ele>
        <time>2010-03-17T15:06:38Z</time>
      </trkpt>
      <trkpt lat="45.11669" lon="4.7295">
        <ele>489.25299072266</ele>
        <time>2010-03-17T15:06:45Z</time>
      </trkpt>
      <trkpt lat="45.11636" lon="4.72979">
        <ele>488.62600708008</ele>
        <time>2010-03-17T15:06:49Z</time>
      </trkpt>
      <trkpt lat="45.11556" lon="4.7304">
        <ele>486.88101196289</ele>
        <time>2010-03-17T15:06:59Z</time>
      </trkpt>
      <trkpt lat="45.11541" lon="4.73051">
        <ele>486.20300292969</ele>
        <time>2010-03-17T15:07:01Z</time>
      </trkpt>
      <trkpt lat="45.11482" lon="4.73097">
        <ele>486.66799926758</ele>
        <time>2010-03-17T15:07:09Z</time>
      </trkpt>
      <trkpt lat="45.11446" lon="4.73124">
        <ele>485.54699707031</ele>
        <time>2010-03-17T15:07:14Z</time>
      </trkpt>
      <trkpt lat="45.11389" lon="4.73174">
        <ele>483.94900512695</ele>
        <time>2010-03-17T15:07:22Z</time>
      </trkpt>
      <trkpt lat="45.11337" lon="4.73227">
        <ele>481.76000976562</ele>
        <time>2010-03-17T15:07:29Z</time>
      </trkpt>
      <trkpt lat="45.11291" lon="4.7327">
        <ele>480.10198974609</ele>
        <time>2010-03-17T15:07:35Z</time>
      </trkpt>
      <trkpt lat="45.11218" lon="4.73342">
        <ele>476.68499755859</ele>
        <time>2010-03-17T15:07:44Z</time>
      </trkpt>
      <trkpt lat="45.11193" lon="4.73367">
        <ele>475.39199829102</ele>
        <time>2010-03-17T15:07:47Z</time>
      </trkpt>
      <trkpt lat="45.11096" lon="4.73461">
        <ele>471.14498901367</ele>
        <time>2010-03-17T15:07:58Z</time>
      </trkpt>
      <trkpt lat="45.11023" lon="4.73536">
        <ele>469.28698730469</ele>
        <time>2010-03-17T15:08:07Z</time>
      </trkpt>
      <trkpt lat="45.10991" lon="4.73583">
        <ele>469.87399291992</ele>
        <time>2010-03-17T15:08:12Z</time>
      </trkpt>
      <trkpt lat="45.10962" lon="4.73645">
        <ele>470.37799072266</ele>
        <time>2010-03-17T15:08:18Z</time>
      </trkpt>
      <trkpt lat="45.10925" lon="4.73737">
        <ele>470.72698974609</ele>
        <time>2010-03-17T15:08:27Z</time>
      </trkpt>
      <trkpt lat="45.10904" lon="4.73791">
        <ele>472.15701293945</ele>
        <time>2010-03-17T15:08:33Z</time>
      </trkpt>
      <trkpt lat="45.1088" lon="4.73849">
        <ele>470.4460144043</ele>
        <time>2010-03-17T15:08:40Z</time>
      </trkpt>
      <trkpt lat="45.10872" lon="4.73871">
        <ele>471.76098632812</ele>
        <time>2010-03-17T15:08:43Z</time>
      </trkpt>
      <trkpt lat="45.10855" lon="4.73885">
        <ele>474.97100830078</ele>
        <time>2010-03-17T15:08:47Z</time>
      </trkpt>
      <trkpt lat="45.10844" lon="4.73872">
        <ele>474.4580078125</ele>
        <time>2010-03-17T15:08:50Z</time>
      </trkpt>
      <trkpt lat="45.10842" lon="4.73865">
        <ele>474.05599975586</ele>
        <time>2010-03-17T15:08:51Z</time>
      </trkpt>
      <trkpt lat="45.10822" lon="4.73822">
        <ele>471.23400878906</ele>
        <time>2010-03-17T15:08:57Z</time>
      </trkpt>
      <trkpt lat="45.10783" lon="4.73771">
        <ele>466.89498901367</ele>
        <time>2010-03-17T15:09:04Z</time>
      </trkpt>
      <trkpt lat="45.10756" lon="4.73739">
        <ele>464.87200927734</ele>
        <time>2010-03-17T15:09:08Z</time>
      </trkpt>
      <trkpt lat="45.10728" lon="4.73705">
        <ele>463.45001220703</ele>
        <time>2010-03-17T15:09:12Z</time>
      </trkpt>
      <trkpt lat="45.10696" lon="4.7367">
        <ele>459.29299926758</ele>
        <time>2010-03-17T15:09:16Z</time>
      </trkpt>
      <trkpt lat="45.10652" lon="4.73629">
        <ele>453.76800537109</ele>
        <time>2010-03-17T15:09:21Z</time>
      </trkpt>
      <trkpt lat="45.10642" lon="4.73622">
        <ele>450.93200683594</ele>
        <time>2010-03-17T15:09:22Z</time>
      </trkpt>
      <trkpt lat="45.10599" lon="4.7361">
        <ele>449.33401489258</ele>
        <time>2010-03-17T15:09:26Z</time>
      </trkpt>
      <trkpt lat="45.10578" lon="4.73601">
        <ele>448.0710144043</ele>
        <time>2010-03-17T15:09:28Z</time>
      </trkpt>
      <trkpt lat="45.10567" lon="4.73593">
        <ele>447.83700561523</ele>
        <time>2010-03-17T15:09:29Z</time>
      </trkpt>
      <trkpt lat="45.10548" lon="4.73576">
        <ele>445.58700561523</ele>
        <time>2010-03-17T15:09:31Z</time>
      </trkpt>
      <trkpt lat="45.10505" lon="4.73563">
        <ele>440.96200561523</ele>
        <time>2010-03-17T15:09:35Z</time>
      </trkpt>
      <trkpt lat="45.10496" lon="4.7356">
        <ele>440.42700195312</ele>
        <time>2010-03-17T15:09:36Z</time>
      </trkpt>
      <trkpt lat="45.10471" lon="4.7356">
        <ele>439.40399169922</ele>
        <time>2010-03-17T15:09:39Z</time>
      </trkpt>
      <trkpt lat="45.10463" lon="4.73566">
        <ele>439.9460144043</ele>
        <time>2010-03-17T15:09:40Z</time>
      </trkpt>
      <trkpt lat="45.10451" lon="4.73577">
        <ele>439.58999633789</ele>
        <time>2010-03-17T15:09:42Z</time>
      </trkpt>
      <trkpt lat="45.10432" lon="4.73607">
        <ele>441.54800415039</ele>
        <time>2010-03-17T15:09:47Z</time>
      </trkpt>
      <trkpt lat="45.10424" lon="4.73626">
        <ele>443.08898925781</ele>
        <time>2010-03-17T15:09:50Z</time>
      </trkpt>
      <trkpt lat="45.10419" lon="4.73638">
        <ele>441.96899414062</ele>
        <time>2010-03-17T15:09:52Z</time>
      </trkpt>
      <trkpt lat="45.10409" lon="4.73669">
        <ele>443.85501098633</ele>
        <time>2010-03-17T15:09:57Z</time>
      </trkpt>
      <trkpt lat="45.10395" lon="4.73708">
        <ele>445.07598876953</ele>
        <time>2010-03-17T15:10:04Z</time>
      </trkpt>
      <trkpt lat="45.10382" lon="4.73729">
        <ele>445.52099609375</ele>
        <time>2010-03-17T15:10:09Z</time>
      </trkpt>
      <trkpt lat="45.10359" lon="4.73756">
        <ele>446.14498901367</ele>
        <time>2010-03-17T15:10:17Z</time>
      </trkpt>
      <trkpt lat="45.10348" lon="4.73768">
        <ele>446.35501098633</ele>
        <time>2010-03-17T15:10:22Z</time>
      </trkpt>
      <trkpt lat="45.10339" lon="4.73779">
        <ele>446.00799560547</ele>
        <time>2010-03-17T15:10:29Z</time>
      </trkpt>
      <trkpt lat="45.10337" lon="4.73781">
        <ele>445.84600830078</ele>
        <time>2010-03-17T15:10:31Z</time>
      </trkpt>
      <trkpt lat="45.10333" lon="4.73789">
        <ele>445.19100952148</ele>
        <time>2010-03-17T15:10:37Z</time>
      </trkpt>
      <trkpt lat="45.10332" lon="4.73796">
        <ele>444.78201293945</ele>
        <time>2010-03-17T15:10:42Z</time>
      </trkpt>
      <trkpt lat="45.10331" lon="4.738">
        <ele>444.40100097656</ele>
        <time>2010-03-17T15:10:44Z</time>
      </trkpt>
      <trkpt lat="45.10336" lon="4.73811">
        <ele>443.91598510742</ele>
        <time>2010-03-17T15:10:52Z</time>
      </trkpt>
      <trkpt lat="45.10339" lon="4.73816">
        <ele>443.51901245117</ele>
        <time>2010-03-17T15:10:56Z</time>
      </trkpt>
      <trkpt lat="45.10344" lon="4.73819">
        <ele>442.87100219727</ele>
        <time>2010-03-17T15:11:04Z</time>
      </trkpt>
      <trkpt lat="45.10345" lon="4.7382">
        <ele>442.66598510742</ele>
        <time>2010-03-17T15:11:06Z</time>
      </trkpt>
      <trkpt lat="45.10348" lon="4.73823">
        <ele>442.13299560547</ele>
        <time>2010-03-17T15:11:10Z</time>
      </trkpt>
      <trkpt lat="45.10354" lon="4.7383">
        <ele>442.15399169922</ele>
        <time>2010-03-17T15:11:18Z</time>
      </trkpt>
      <trkpt lat="45.1036" lon="4.73838">
        <ele>442.14300537109</ele>
        <time>2010-03-17T15:11:25Z</time>
      </trkpt>
      <trkpt lat="45.10365" lon="4.73853">
        <ele>441.89401245117</ele>
        <time>2010-03-17T15:11:32Z</time>
      </trkpt>
      <trkpt lat="45.10365" lon="4.73869">
        <ele>441.98901367188</ele>
        <time>2010-03-17T15:11:37Z</time>
      </trkpt>
      <trkpt lat="45.10362" lon="4.73887">
        <ele>442.29400634766</ele>
        <time>2010-03-17T15:11:43Z</time>
      </trkpt>
      <trkpt lat="45.1036" lon="4.739">
        <ele>442.34600830078</ele>
        <time>2010-03-17T15:11:49Z</time>
      </trkpt>
      <trkpt lat="45.10358" lon="4.73914">
        <ele>442.74600219727</ele>
        <time>2010-03-17T15:11:56Z</time>
      </trkpt>
      <trkpt lat="45.10356" lon="4.73924">
        <ele>442.875</ele>
        <time>2010-03-17T15:12:02Z</time>
      </trkpt>
      <trkpt lat="45.10353" lon="4.73936">
        <ele>443.35800170898</ele>
        <time>2010-03-17T15:12:09Z</time>
      </trkpt>
      <trkpt lat="45.1035" lon="4.73949">
        <ele>443.60400390625</ele>
        <time>2010-03-17T15:12:17Z</time>
      </trkpt>
      <trkpt lat="45.10345" lon="4.7396">
        <ele>443.64801025391</ele>
        <time>2010-03-17T15:12:24Z</time>
      </trkpt>
      <trkpt lat="45.10337" lon="4.73977">
        <ele>444.09100341797</ele>
        <time>2010-03-17T15:12:30Z</time>
      </trkpt>
      <trkpt lat="45.1033" lon="4.73995">
        <ele>445.12600708008</ele>
        <time>2010-03-17T15:12:35Z</time>
      </trkpt>
      <trkpt lat="45.10325" lon="4.74012">
        <ele>446.37701416016</ele>
        <time>2010-03-17T15:12:39Z</time>
      </trkpt>
      <trkpt lat="45.10324" lon="4.74024">
        <ele>447.31698608398</ele>
        <time>2010-03-17T15:12:42Z</time>
      </trkpt>
      <trkpt lat="45.10328" lon="4.74047">
        <ele>449.00399780273</ele>
        <time>2010-03-17T15:12:47Z</time>
      </trkpt>
      <trkpt lat="45.10336" lon="4.74072">
        <ele>449.77700805664</ele>
        <time>2010-03-17T15:12:53Z</time>
      </trkpt>
      <trkpt lat="45.10342" lon="4.74096">
        <ele>450.65899658203</ele>
        <time>2010-03-17T15:12:59Z</time>
      </trkpt>
      <trkpt lat="45.10344" lon="4.74118">
        <ele>451.16000366211</ele>
        <time>2010-03-17T15:13:05Z</time>
      </trkpt>
      <trkpt lat="45.10346" lon="4.74133">
        <ele>451.82998657227</ele>
        <time>2010-03-17T15:13:09Z</time>
      </trkpt>
      <trkpt lat="45.10347" lon="4.74162">
        <ele>452.78900146484</ele>
        <time>2010-03-17T15:13:17Z</time>
      </trkpt>
      <trkpt lat="45.10347" lon="4.74177">
        <ele>453.41299438477</ele>
        <time>2010-03-17T15:13:24Z</time>
      </trkpt>
      <trkpt lat="45.10349" lon="4.74197">
        <ele>453.8869934082</ele>
        <time>2010-03-17T15:13:29Z</time>
      </trkpt>
      <trkpt lat="45.10356" lon="4.74229">
        <ele>454.58801269531</ele>
        <time>2010-03-17T15:13:35Z</time>
      </trkpt>
      <trkpt lat="45.10371" lon="4.74266">
        <ele>454.27301025391</ele>
        <time>2010-03-17T15:13:41Z</time>
      </trkpt>
      <trkpt lat="45.10398" lon="4.74323">
        <ele>454.55899047852</ele>
        <time>2010-03-17T15:13:49Z</time>
      </trkpt>
      <trkpt lat="45.10421" lon="4.74375">
        <ele>456.13900756836</ele>
        <time>2010-03-17T15:13:56Z</time>
      </trkpt>
      <trkpt lat="45.10443" lon="4.7441">
        <ele>457.56698608398</ele>
        <time>2010-03-17T15:14:02Z</time>
      </trkpt>
      <trkpt lat="45.10476" lon="4.74447">
        <ele>460.1669921875</ele>
        <time>2010-03-17T15:14:10Z</time>
      </trkpt>
      <trkpt lat="45.10482" lon="4.74458">
        <ele>460.5419921875</ele>
        <time>2010-03-17T15:14:12Z</time>
      </trkpt>
      <trkpt lat="45.10492" lon="4.74483">
        <ele>462.44299316406</ele>
        <time>2010-03-17T15:14:16Z</time>
      </trkpt>
      <trkpt lat="45.10499" lon="4.74525">
        <ele>463.06399536133</ele>
        <time>2010-03-17T15:14:22Z</time>
      </trkpt>
      <trkpt lat="45.10511" lon="4.74575">
        <ele>462.29598999023</ele>
        <time>2010-03-17T15:14:29Z</time>
      </trkpt>
      <trkpt lat="45.10525" lon="4.74627">
        <ele>460.97698974609</ele>
        <time>2010-03-17T15:14:35Z</time>
      </trkpt>
      <trkpt lat="45.10546" lon="4.7469">
        <ele>460.06399536133</ele>
        <time>2010-03-17T15:14:42Z</time>
      </trkpt>
      <trkpt lat="45.10555" lon="4.74707">
        <ele>459.24600219727</ele>
        <time>2010-03-17T15:14:44Z</time>
      </trkpt>
      <trkpt lat="45.10595" lon="4.74763">
        <ele>454.53201293945</ele>
        <time>2010-03-17T15:14:50Z</time>
      </trkpt>
      <trkpt lat="45.10616" lon="4.74797">
        <ele>453.07000732422</ele>
        <time>2010-03-17T15:14:53Z</time>
      </trkpt>
      <trkpt lat="45.10639" lon="4.74847">
        <ele>453.13800048828</ele>
        <time>2010-03-17T15:14:57Z</time>
      </trkpt>
      <trkpt lat="45.10664" lon="4.74902">
        <ele>453.51998901367</ele>
        <time>2010-03-17T15:15:02Z</time>
      </trkpt>
      <trkpt lat="45.10669" lon="4.74912">
        <ele>454.02200317383</ele>
        <time>2010-03-17T15:15:03Z</time>
      </trkpt>
      <trkpt lat="45.10676" lon="4.74945">
        <ele>454.37399291992</ele>
        <time>2010-03-17T15:15:06Z</time>
      </trkpt>
      <trkpt lat="45.10669" lon="4.74964">
        <ele>454.49600219727</ele>
        <time>2010-03-17T15:15:08Z</time>
      </trkpt>
      <trkpt lat="45.10656" lon="4.74992">
        <ele>455.76501464844</ele>
        <time>2010-03-17T15:15:11Z</time>
      </trkpt>
      <trkpt lat="45.10624" lon="4.75069">
        <ele>456.03900146484</ele>
        <time>2010-03-17T15:15:19Z</time>
      </trkpt>
      <trkpt lat="45.106" lon="4.75125">
        <ele>455.20498657227</ele>
        <time>2010-03-17T15:15:25Z</time>
      </trkpt>
      <trkpt lat="45.10576" lon="4.75186">
        <ele>456.85501098633</ele>
        <time>2010-03-17T15:15:32Z</time>
      </trkpt>
      <trkpt lat="45.10561" lon="4.75251">
        <ele>456.93301391602</ele>
        <time>2010-03-17T15:15:39Z</time>
      </trkpt>
      <trkpt lat="45.10556" lon="4.7528">
        <ele>457.04901123047</ele>
        <time>2010-03-17T15:15:42Z</time>
      </trkpt>
      <trkpt lat="45.10547" lon="4.75306">
        <ele>457.11499023438</ele>
        <time>2010-03-17T15:15:45Z</time>
      </trkpt>
      <trkpt lat="45.10521" lon="4.75344">
        <ele>457.03399658203</ele>
        <time>2010-03-17T15:15:51Z</time>
      </trkpt>
      <trkpt lat="45.10493" lon="4.75377">
        <ele>459.04699707031</ele>
        <time>2010-03-17T15:15:58Z</time>
      </trkpt>
      <trkpt lat="45.10468" lon="4.7542">
        <ele>460.31698608398</ele>
        <time>2010-03-17T15:16:06Z</time>
      </trkpt>
      <trkpt lat="45.10449" lon="4.75462">
        <ele>459.58401489258</ele>
        <time>2010-03-17T15:16:13Z</time>
      </trkpt>
      <trkpt lat="45.10427" lon="4.7552">
        <ele>459.57598876953</ele>
        <time>2010-03-17T15:16:21Z</time>
      </trkpt>
      <trkpt lat="45.10402" lon="4.75586">
        <ele>458.69299316406</ele>
        <time>2010-03-17T15:16:30Z</time>
      </trkpt>
      <trkpt lat="45.10374" lon="4.75657">
        <ele>458.05899047852</ele>
        <time>2010-03-17T15:16:39Z</time>
      </trkpt>
      <trkpt lat="45.10345" lon="4.75717">
        <ele>457.8030090332</ele>
        <time>2010-03-17T15:16:46Z</time>
      </trkpt>
      <trkpt lat="45.10308" lon="4.75782">
        <ele>456.87399291992</ele>
        <time>2010-03-17T15:16:54Z</time>
      </trkpt>
      <trkpt lat="45.10287" lon="4.75839">
        <ele>455.73300170898</ele>
        <time>2010-03-17T15:17:00Z</time>
      </trkpt>
      <trkpt lat="45.10277" lon="4.75871">
        <ele>454.28900146484</ele>
        <time>2010-03-17T15:17:03Z</time>
      </trkpt>
      <trkpt lat="45.10252" lon="4.75921">
        <ele>453.06201171875</ele>
        <time>2010-03-17T15:17:08Z</time>
      </trkpt>
      <trkpt lat="45.10212" lon="4.7597">
        <ele>451.30700683594</ele>
        <time>2010-03-17T15:17:14Z</time>
      </trkpt>
      <trkpt lat="45.10157" lon="4.76034">
        <ele>450.26901245117</ele>
        <time>2010-03-17T15:17:22Z</time>
      </trkpt>
      <trkpt lat="45.10118" lon="4.76065">
        <ele>449.03500366211</ele>
        <time>2010-03-17T15:17:27Z</time>
      </trkpt>
      <trkpt lat="45.1007" lon="4.76089">
        <ele>447.82598876953</ele>
        <time>2010-03-17T15:17:33Z</time>
      </trkpt>
      <trkpt lat="45.10054" lon="4.76095">
        <ele>446.74200439453</ele>
        <time>2010-03-17T15:17:35Z</time>
      </trkpt>
      <trkpt lat="45.10005" lon="4.76095">
        <ele>447.33801269531</ele>
        <time>2010-03-17T15:17:41Z</time>
      </trkpt>
      <trkpt lat="45.09951" lon="4.76079">
        <ele>446.77301025391</ele>
        <time>2010-03-17T15:17:48Z</time>
      </trkpt>
      <trkpt lat="45.09907" lon="4.76049">
        <ele>448.41500854492</ele>
        <time>2010-03-17T15:17:55Z</time>
      </trkpt>
      <trkpt lat="45.0984" lon="4.76002">
        <ele>446.40600585938</ele>
        <time>2010-03-17T15:18:06Z</time>
      </trkpt>
      <trkpt lat="45.098" lon="4.75975">
        <ele>445.03601074219</ele>
        <time>2010-03-17T15:18:12Z</time>
      </trkpt>
      <trkpt lat="45.09776" lon="4.75963">
        <ele>443.5950012207</ele>
        <time>2010-03-17T15:18:15Z</time>
      </trkpt>
      <trkpt lat="45.09715" lon="4.75947">
        <ele>441.57299804688</ele>
        <time>2010-03-17T15:18:22Z</time>
      </trkpt>
      <trkpt lat="45.09705" lon="4.75945">
        <ele>441.45599365234</ele>
        <time>2010-03-17T15:18:23Z</time>
      </trkpt>
      <trkpt lat="45.09631" lon="4.75937">
        <ele>438.70599365234</ele>
        <time>2010-03-17T15:18:31Z</time>
      </trkpt>
      <trkpt lat="45.09612" lon="4.7594">
        <ele>437.70999145508</ele>
        <time>2010-03-17T15:18:33Z</time>
      </trkpt>
      <trkpt lat="45.09575" lon="4.75953">
        <ele>437.4880065918</ele>
        <time>2010-03-17T15:18:37Z</time>
      </trkpt>
      <trkpt lat="45.09545" lon="4.7598">
        <ele>437.45999145508</ele>
        <time>2010-03-17T15:18:41Z</time>
      </trkpt>
      <trkpt lat="45.09539" lon="4.75989">
        <ele>437.2799987793</ele>
        <time>2010-03-17T15:18:42Z</time>
      </trkpt>
      <trkpt lat="45.09512" lon="4.76044">
        <ele>435.87100219727</ele>
        <time>2010-03-17T15:18:47Z</time>
      </trkpt>
      <trkpt lat="45.09473" lon="4.76161">
        <ele>431.83700561523</ele>
        <time>2010-03-17T15:18:56Z</time>
      </trkpt>
      <trkpt lat="45.09459" lon="4.76201">
        <ele>429.02700805664</ele>
        <time>2010-03-17T15:18:59Z</time>
      </trkpt>
      <trkpt lat="45.09429" lon="4.76243">
        <ele>426.49301147461</ele>
        <time>2010-03-17T15:19:03Z</time>
      </trkpt>
      <trkpt lat="45.09401" lon="4.76259">
        <ele>425.04098510742</ele>
        <time>2010-03-17T15:19:06Z</time>
      </trkpt>
      <trkpt lat="45.0939" lon="4.76262">
        <ele>425.26000976562</ele>
        <time>2010-03-17T15:19:07Z</time>
      </trkpt>
      <trkpt lat="45.0938" lon="4.76264">
        <ele>424.70599365234</ele>
        <time>2010-03-17T15:19:08Z</time>
      </trkpt>
      <trkpt lat="45.09342" lon="4.76284">
        <ele>423.96398925781</ele>
        <time>2010-03-17T15:19:12Z</time>
      </trkpt>
      <trkpt lat="45.09334" lon="4.76313">
        <ele>423.20001220703</ele>
        <time>2010-03-17T15:19:14Z</time>
      </trkpt>
      <trkpt lat="45.09333" lon="4.76343">
        <ele>422.37200927734</ele>
        <time>2010-03-17T15:19:16Z</time>
      </trkpt>
      <trkpt lat="45.09327" lon="4.76398">
        <ele>419.17700195312</ele>
        <time>2010-03-17T15:19:20Z</time>
      </trkpt>
      <trkpt lat="45.09318" lon="4.76408">
        <ele>418.99499511719</ele>
        <time>2010-03-17T15:19:21Z</time>
      </trkpt>
      <trkpt lat="45.09299" lon="4.76424">
        <ele>418.11199951172</ele>
        <time>2010-03-17T15:19:23Z</time>
      </trkpt>
      <trkpt lat="45.09251" lon="4.76459">
        <ele>415.23699951172</ele>
        <time>2010-03-17T15:19:28Z</time>
      </trkpt>
      <trkpt lat="45.09209" lon="4.76462">
        <ele>412.41799926758</ele>
        <time>2010-03-17T15:19:32Z</time>
      </trkpt>
      <trkpt lat="45.09199" lon="4.76457">
        <ele>412.24398803711</ele>
        <time>2010-03-17T15:19:33Z</time>
      </trkpt>
      <trkpt lat="45.09147" lon="4.76455">
        <ele>411.25201416016</ele>
        <time>2010-03-17T15:19:38Z</time>
      </trkpt>
      <trkpt lat="45.0913" lon="4.76473">
        <ele>409.86999511719</ele>
        <time>2010-03-17T15:19:40Z</time>
      </trkpt>
      <trkpt lat="45.09121" lon="4.765">
        <ele>408.89099121094</ele>
        <time>2010-03-17T15:19:42Z</time>
      </trkpt>
      <trkpt lat="45.09122" lon="4.76531">
        <ele>408.43099975586</ele>
        <time>2010-03-17T15:19:44Z</time>
      </trkpt>
      <trkpt lat="45.09133" lon="4.76558">
        <ele>408.34799194336</ele>
        <time>2010-03-17T15:19:46Z</time>
      </trkpt>
      <trkpt lat="45.09163" lon="4.76608">
        <ele>405.62899780273</ele>
        <time>2010-03-17T15:19:50Z</time>
      </trkpt>
      <trkpt lat="45.09182" lon="4.76667">
        <ele>402.87399291992</ele>
        <time>2010-03-17T15:19:54Z</time>
      </trkpt>
      <trkpt lat="45.09176" lon="4.76699">
        <ele>401.64599609375</ele>
        <time>2010-03-17T15:19:56Z</time>
      </trkpt>
      <trkpt lat="45.0917" lon="4.76712">
        <ele>401.52700805664</ele>
        <time>2010-03-17T15:19:57Z</time>
      </trkpt>
      <trkpt lat="45.09151" lon="4.76754">
        <ele>399.33200073242</ele>
        <time>2010-03-17T15:20:00Z</time>
      </trkpt>
      <trkpt lat="45.09139" lon="4.76816">
        <ele>397.81799316406</ele>
        <time>2010-03-17T15:20:04Z</time>
      </trkpt>
      <trkpt lat="45.0913" lon="4.76881">
        <ele>396.20199584961</ele>
        <time>2010-03-17T15:20:08Z</time>
      </trkpt>
      <trkpt lat="45.09101" lon="4.76955">
        <ele>394.56600952148</ele>
        <time>2010-03-17T15:20:13Z</time>
      </trkpt>
      <trkpt lat="45.09082" lon="4.76998">
        <ele>393.25</ele>
        <time>2010-03-17T15:20:16Z</time>
      </trkpt>
      <trkpt lat="45.09045" lon="4.77085">
        <ele>387.90301513672</ele>
        <time>2010-03-17T15:20:22Z</time>
      </trkpt>
      <trkpt lat="45.09032" lon="4.7716">
        <ele>385.60299682617</ele>
        <time>2010-03-17T15:20:27Z</time>
      </trkpt>
      <trkpt lat="45.09025" lon="4.77188">
        <ele>384.93798828125</ele>
        <time>2010-03-17T15:20:29Z</time>
      </trkpt>
      <trkpt lat="45.09005" lon="4.77218">
        <ele>383.20098876953</ele>
        <time>2010-03-17T15:20:32Z</time>
      </trkpt>
      <trkpt lat="45.08996" lon="4.77224">
        <ele>383.01901245117</ele>
        <time>2010-03-17T15:20:33Z</time>
      </trkpt>
      <trkpt lat="45.08968" lon="4.77227">
        <ele>382.34100341797</ele>
        <time>2010-03-17T15:20:36Z</time>
      </trkpt>
      <trkpt lat="45.08949" lon="4.77222">
        <ele>382.45001220703</ele>
        <time>2010-03-17T15:20:38Z</time>
      </trkpt>
      <trkpt lat="45.08865" lon="4.77185">
        <ele>381.97100830078</ele>
        <time>2010-03-17T15:20:48Z</time>
      </trkpt>
      <trkpt lat="45.0885" lon="4.77178">
        <ele>382.89599609375</ele>
        <time>2010-03-17T15:20:50Z</time>
      </trkpt>
      <trkpt lat="45.08805" lon="4.77158">
        <ele>385.08700561523</ele>
        <time>2010-03-17T15:20:57Z</time>
      </trkpt>
      <trkpt lat="45.08763" lon="4.77142">
        <ele>386.21701049805</ele>
        <time>2010-03-17T15:21:04Z</time>
      </trkpt>
      <trkpt lat="45.08735" lon="4.77148">
        <ele>387.45401000977</ele>
        <time>2010-03-17T15:21:09Z</time>
      </trkpt>
      <trkpt lat="45.0873" lon="4.77152">
        <ele>387.71398925781</ele>
        <time>2010-03-17T15:21:10Z</time>
      </trkpt>
      <trkpt lat="45.08698" lon="4.7719">
        <ele>388.48901367188</ele>
        <time>2010-03-17T15:21:17Z</time>
      </trkpt>
      <trkpt lat="45.08678" lon="4.77221">
        <ele>389.15600585938</ele>
        <time>2010-03-17T15:21:22Z</time>
      </trkpt>
      <trkpt lat="45.08672" lon="4.77253">
        <ele>389.9580078125</ele>
        <time>2010-03-17T15:21:26Z</time>
      </trkpt>
      <trkpt lat="45.08678" lon="4.77275">
        <ele>390.80499267578</ele>
        <time>2010-03-17T15:21:29Z</time>
      </trkpt>
      <trkpt lat="45.08697" lon="4.77296">
        <ele>391.13101196289</ele>
        <time>2010-03-17T15:21:33Z</time>
      </trkpt>
      <trkpt lat="45.08719" lon="4.77313">
        <ele>391.49200439453</ele>
        <time>2010-03-17T15:21:37Z</time>
      </trkpt>
      <trkpt lat="45.08738" lon="4.77349">
        <ele>391.64999389648</ele>
        <time>2010-03-17T15:21:42Z</time>
      </trkpt>
      <trkpt lat="45.0874" lon="4.77357">
        <ele>391.73400878906</ele>
        <time>2010-03-17T15:21:43Z</time>
      </trkpt>
      <trkpt lat="45.0874" lon="4.77408">
        <ele>392.4280090332</ele>
        <time>2010-03-17T15:21:49Z</time>
      </trkpt>
      <trkpt lat="45.08729" lon="4.77464">
        <ele>393.63900756836</ele>
        <time>2010-03-17T15:21:56Z</time>
      </trkpt>
      <trkpt lat="45.0872" lon="4.77494">
        <ele>394.64999389648</ele>
        <time>2010-03-17T15:22:00Z</time>
      </trkpt>
      <trkpt lat="45.08699" lon="4.77522">
        <ele>394.56600952148</ele>
        <time>2010-03-17T15:22:05Z</time>
      </trkpt>
      <trkpt lat="45.08682" lon="4.77529">
        <ele>394.81399536133</ele>
        <time>2010-03-17T15:22:08Z</time>
      </trkpt>
      <trkpt lat="45.08642" lon="4.77532">
        <ele>394.81600952148</ele>
        <time>2010-03-17T15:22:15Z</time>
      </trkpt>
      <trkpt lat="45.08631" lon="4.7753">
        <ele>395.27099609375</ele>
        <time>2010-03-17T15:22:17Z</time>
      </trkpt>
      <trkpt lat="45.08612" lon="4.7752">
        <ele>395.75500488281</ele>
        <time>2010-03-17T15:22:21Z</time>
      </trkpt>
      <trkpt lat="45.08575" lon="4.77477">
        <ele>397.02200317383</ele>
        <time>2010-03-17T15:22:30Z</time>
      </trkpt>
      <trkpt lat="45.08567" lon="4.77468">
        <ele>397.26300048828</ele>
        <time>2010-03-17T15:22:32Z</time>
      </trkpt>
      <trkpt lat="45.08553" lon="4.77456">
        <ele>397.89599609375</ele>
        <time>2010-03-17T15:22:35Z</time>
      </trkpt>
      <trkpt lat="45.08543" lon="4.7745">
        <ele>397.64001464844</ele>
        <time>2010-03-17T15:22:37Z</time>
      </trkpt>
      <trkpt lat="45.08526" lon="4.77444">
        <ele>397.36999511719</ele>
        <time>2010-03-17T15:22:40Z</time>
      </trkpt>
      <trkpt lat="45.08503" lon="4.77443">
        <ele>398.94100952148</ele>
        <time>2010-03-17T15:22:44Z</time>
      </trkpt>
      <trkpt lat="45.08463" lon="4.77438">
        <ele>399.54800415039</ele>
        <time>2010-03-17T15:22:51Z</time>
      </trkpt>
      <trkpt lat="45.08428" lon="4.77429">
        <ele>398.69799804688</ele>
        <time>2010-03-17T15:22:57Z</time>
      </trkpt>
      <trkpt lat="45.08394" lon="4.77419">
        <ele>396.48300170898</ele>
        <time>2010-03-17T15:23:02Z</time>
      </trkpt>
      <trkpt lat="45.08356" lon="4.77419">
        <ele>395.12799072266</ele>
        <time>2010-03-17T15:23:07Z</time>
      </trkpt>
      <trkpt lat="45.08348" lon="4.77422">
        <ele>394.58801269531</ele>
        <time>2010-03-17T15:23:08Z</time>
      </trkpt>
      <trkpt lat="45.08319" lon="4.77437">
        <ele>393.52301025391</ele>
        <time>2010-03-17T15:23:12Z</time>
      </trkpt>
      <trkpt lat="45.08289" lon="4.77438">
        <ele>391.87799072266</ele>
        <time>2010-03-17T15:23:16Z</time>
      </trkpt>
      <trkpt lat="45.0825" lon="4.77423">
        <ele>390.54098510742</ele>
        <time>2010-03-17T15:23:21Z</time>
      </trkpt>
      <trkpt lat="45.08224" lon="4.77391">
        <ele>388.55999755859</ele>
        <time>2010-03-17T15:23:25Z</time>
      </trkpt>
      <trkpt lat="45.082" lon="4.77374">
        <ele>387.75</ele>
        <time>2010-03-17T15:23:28Z</time>
      </trkpt>
      <trkpt lat="45.08186" lon="4.77389">
        <ele>387.60101318359</ele>
        <time>2010-03-17T15:23:30Z</time>
      </trkpt>
      <trkpt lat="45.0818" lon="4.77412">
        <ele>387.23999023438</ele>
        <time>2010-03-17T15:23:32Z</time>
      </trkpt>
      <trkpt lat="45.08184" lon="4.77449">
        <ele>386.95999145508</ele>
        <time>2010-03-17T15:23:35Z</time>
      </trkpt>
      <trkpt lat="45.08187" lon="4.7746">
        <ele>385.96200561523</ele>
        <time>2010-03-17T15:23:36Z</time>
      </trkpt>
      <trkpt lat="45.08197" lon="4.77482">
        <ele>385.2919921875</ele>
        <time>2010-03-17T15:23:38Z</time>
      </trkpt>
      <trkpt lat="45.08222" lon="4.77538">
        <ele>383.70700073242</ele>
        <time>2010-03-17T15:23:43Z</time>
      </trkpt>
      <trkpt lat="45.08226" lon="4.7755">
        <ele>383.48699951172</ele>
        <time>2010-03-17T15:23:44Z</time>
      </trkpt>
      <trkpt lat="45.08231" lon="4.7759">
        <ele>382.24200439453</ele>
        <time>2010-03-17T15:23:47Z</time>
      </trkpt>
      <trkpt lat="45.08217" lon="4.77636">
        <ele>380.54501342773</ele>
        <time>2010-03-17T15:23:51Z</time>
      </trkpt>
      <trkpt lat="45.08206" lon="4.77655">
        <ele>379.45498657227</ele>
        <time>2010-03-17T15:23:53Z</time>
      </trkpt>
      <trkpt lat="45.08189" lon="4.77682">
        <ele>380.17999267578</ele>
        <time>2010-03-17T15:23:56Z</time>
      </trkpt>
      <trkpt lat="45.08175" lon="4.77727">
        <ele>378.4460144043</ele>
        <time>2010-03-17T15:24:00Z</time>
      </trkpt>
      <trkpt lat="45.08163" lon="4.7778">
        <ele>375.98999023438</ele>
        <time>2010-03-17T15:24:04Z</time>
      </trkpt>
      <trkpt lat="45.0816" lon="4.77794">
        <ele>375.3030090332</ele>
        <time>2010-03-17T15:24:05Z</time>
      </trkpt>
      <trkpt lat="45.08139" lon="4.77845">
        <ele>372.10598754883</ele>
        <time>2010-03-17T15:24:09Z</time>
      </trkpt>
      <trkpt lat="45.0811" lon="4.77866">
        <ele>369.97601318359</ele>
        <time>2010-03-17T15:24:12Z</time>
      </trkpt>
      <trkpt lat="45.08068" lon="4.77887">
        <ele>367.03799438477</ele>
        <time>2010-03-17T15:24:16Z</time>
      </trkpt>
      <trkpt lat="45.08042" lon="4.77921">
        <ele>364.97399902344</ele>
        <time>2010-03-17T15:24:19Z</time>
      </trkpt>
      <trkpt lat="45.08035" lon="4.77935">
        <ele>363.5530090332</ele>
        <time>2010-03-17T15:24:20Z</time>
      </trkpt>
      <trkpt lat="45.07996" lon="4.77979">
        <ele>358.60598754883</ele>
        <time>2010-03-17T15:24:24Z</time>
      </trkpt>
      <trkpt lat="45.07983" lon="4.77984">
        <ele>357.36401367188</ele>
        <time>2010-03-17T15:24:25Z</time>
      </trkpt>
      <trkpt lat="45.07909" lon="4.78023">
        <ele>352.13299560547</ele>
        <time>2010-03-17T15:24:31Z</time>
      </trkpt>
      <trkpt lat="45.07898" lon="4.7803">
        <ele>351.0299987793</ele>
        <time>2010-03-17T15:24:32Z</time>
      </trkpt>
      <trkpt lat="45.07862" lon="4.7804">
        <ele>349.42599487305</ele>
        <time>2010-03-17T15:24:35Z</time>
      </trkpt>
      <trkpt lat="45.0779" lon="4.78047">
        <ele>344.73001098633</ele>
        <time>2010-03-17T15:24:41Z</time>
      </trkpt>
      <trkpt lat="45.0773" lon="4.78031">
        <ele>340.73199462891</ele>
        <time>2010-03-17T15:24:46Z</time>
      </trkpt>
      <trkpt lat="45.0766" lon="4.77997">
        <ele>335.20401000977</ele>
        <time>2010-03-17T15:24:52Z</time>
      </trkpt>
      <trkpt lat="45.07648" lon="4.77989">
        <ele>335.46301269531</ele>
        <time>2010-03-17T15:24:53Z</time>
      </trkpt>
      <trkpt lat="45.07626" lon="4.77974">
        <ele>333.96600341797</ele>
        <time>2010-03-17T15:24:55Z</time>
      </trkpt>
      <trkpt lat="45.07547" lon="4.77913">
        <ele>328.79098510742</ele>
        <time>2010-03-17T15:25:02Z</time>
      </trkpt>
      <trkpt lat="45.07501" lon="4.7788">
        <ele>324.19799804688</ele>
        <time>2010-03-17T15:25:06Z</time>
      </trkpt>
      <trkpt lat="45.0749" lon="4.77871">
        <ele>323.91299438477</ele>
        <time>2010-03-17T15:25:07Z</time>
      </trkpt>
      <trkpt lat="45.07469" lon="4.7785">
        <ele>322.60000610352</ele>
        <time>2010-03-17T15:25:09Z</time>
      </trkpt>
      <trkpt lat="45.07435" lon="4.77834">
        <ele>320.5530090332</ele>
        <time>2010-03-17T15:25:12Z</time>
      </trkpt>
      <trkpt lat="45.07412" lon="4.77841">
        <ele>319.35299682617</ele>
        <time>2010-03-17T15:25:14Z</time>
      </trkpt>
      <trkpt lat="45.07346" lon="4.77866">
        <ele>315.04000854492</ele>
        <time>2010-03-17T15:25:20Z</time>
      </trkpt>
      <trkpt lat="45.07274" lon="4.77875">
        <ele>310.95599365234</ele>
        <time>2010-03-17T15:25:26Z</time>
      </trkpt>
      <trkpt lat="45.07224" lon="4.7788">
        <ele>307.56298828125</ele>
        <time>2010-03-17T15:25:30Z</time>
      </trkpt>
      <trkpt lat="45.07174" lon="4.77891">
        <ele>304.27899169922</ele>
        <time>2010-03-17T15:25:34Z</time>
      </trkpt>
      <trkpt lat="45.07138" lon="4.77913">
        <ele>301.42300415039</ele>
        <time>2010-03-17T15:25:37Z</time>
      </trkpt>
      <trkpt lat="45.07088" lon="4.77926">
        <ele>298.86499023438</ele>
        <time>2010-03-17T15:25:41Z</time>
      </trkpt>
      <trkpt lat="45.07057" lon="4.77953">
        <ele>295.35598754883</ele>
        <time>2010-03-17T15:25:44Z</time>
      </trkpt>
      <trkpt lat="45.07053" lon="4.77986">
        <ele>294.59201049805</ele>
        <time>2010-03-17T15:25:46Z</time>
      </trkpt>
      <trkpt lat="45.07066" lon="4.78032">
        <ele>294.08099365234</ele>
        <time>2010-03-17T15:25:49Z</time>
      </trkpt>
      <trkpt lat="45.0708" lon="4.78056">
        <ele>291.57299804688</ele>
        <time>2010-03-17T15:25:51Z</time>
      </trkpt>
      <trkpt lat="45.07115" lon="4.78128">
        <ele>289.30999755859</ele>
        <time>2010-03-17T15:25:56Z</time>
      </trkpt>
      <trkpt lat="45.07131" lon="4.78157">
        <ele>286.15600585938</ele>
        <time>2010-03-17T15:25:58Z</time>
      </trkpt>
      <trkpt lat="45.07154" lon="4.78175">
        <ele>284.61999511719</ele>
        <time>2010-03-17T15:26:00Z</time>
      </trkpt>
      <trkpt lat="45.07188" lon="4.78205">
        <ele>282.14099121094</ele>
        <time>2010-03-17T15:26:03Z</time>
      </trkpt>
      <trkpt lat="45.07199" lon="4.78217">
        <ele>281.36898803711</ele>
        <time>2010-03-17T15:26:04Z</time>
      </trkpt>
      <trkpt lat="45.07228" lon="4.7826">
        <ele>277.76501464844</ele>
        <time>2010-03-17T15:26:07Z</time>
      </trkpt>
      <trkpt lat="45.07271" lon="4.7831">
        <ele>274.5299987793</ele>
        <time>2010-03-17T15:26:11Z</time>
      </trkpt>
      <trkpt lat="45.07296" lon="4.78357">
        <ele>270.71099853516</ele>
        <time>2010-03-17T15:26:14Z</time>
      </trkpt>
      <trkpt lat="45.073" lon="4.78407">
        <ele>272.28799438477</ele>
        <time>2010-03-17T15:26:17Z</time>
      </trkpt>
      <trkpt lat="45.0728" lon="4.78421">
        <ele>269.16000366211</ele>
        <time>2010-03-17T15:26:19Z</time>
      </trkpt>
      <trkpt lat="45.0726" lon="4.78411">
        <ele>267.4049987793</ele>
        <time>2010-03-17T15:26:21Z</time>
      </trkpt>
      <trkpt lat="45.07221" lon="4.78385">
        <ele>264.36099243164</ele>
        <time>2010-03-17T15:26:25Z</time>
      </trkpt>
      <trkpt lat="45.0721" lon="4.78381">
        <ele>264.42300415039</ele>
        <time>2010-03-17T15:26:26Z</time>
      </trkpt>
      <trkpt lat="45.07188" lon="4.7837">
        <ele>261.03900146484</ele>
        <time>2010-03-17T15:26:28Z</time>
      </trkpt>
      <trkpt lat="45.07165" lon="4.78365">
        <ele>260.28900146484</ele>
        <time>2010-03-17T15:26:30Z</time>
      </trkpt>
      <trkpt lat="45.07117" lon="4.78364">
        <ele>257.43600463867</ele>
        <time>2010-03-17T15:26:34Z</time>
      </trkpt>
      <trkpt lat="45.07087" lon="4.78389">
        <ele>254.67599487305</ele>
        <time>2010-03-17T15:26:37Z</time>
      </trkpt>
      <trkpt lat="45.07081" lon="4.78403">
        <ele>254</ele>
        <time>2010-03-17T15:26:38Z</time>
      </trkpt>
      <trkpt lat="45.07065" lon="4.78465">
        <ele>250.61500549316</ele>
        <time>2010-03-17T15:26:42Z</time>
      </trkpt>
      <trkpt lat="45.07058" lon="4.78512">
        <ele>247.90800476074</ele>
        <time>2010-03-17T15:26:45Z</time>
      </trkpt>
      <trkpt lat="45.07032" lon="4.78543">
        <ele>245.83099365234</ele>
        <time>2010-03-17T15:26:48Z</time>
      </trkpt>
      <trkpt lat="45.07011" lon="4.78561">
        <ele>244.42300415039</ele>
        <time>2010-03-17T15:26:50Z</time>
      </trkpt>
      <trkpt lat="45.06991" lon="4.78601">
        <ele>241.25700378418</ele>
        <time>2010-03-17T15:26:53Z</time>
      </trkpt>
      <trkpt lat="45.06989" lon="4.78654">
        <ele>238.80599975586</ele>
        <time>2010-03-17T15:26:56Z</time>
      </trkpt>
      <trkpt lat="45.07" lon="4.78686">
        <ele>238.39999389648</ele>
        <time>2010-03-17T15:26:58Z</time>
      </trkpt>
      <trkpt lat="45.0702" lon="4.78732">
        <ele>234.14300537109</ele>
        <time>2010-03-17T15:27:01Z</time>
      </trkpt>
      <trkpt lat="45.07017" lon="4.78768">
        <ele>230.66499328613</ele>
        <time>2010-03-17T15:27:03Z</time>
      </trkpt>
      <trkpt lat="45.07011" lon="4.78801">
        <ele>230.03100585938</ele>
        <time>2010-03-17T15:27:05Z</time>
      </trkpt>
      <trkpt lat="45.07017" lon="4.78849">
        <ele>228.49499511719</ele>
        <time>2010-03-17T15:27:08Z</time>
      </trkpt>
      <trkpt lat="45.07027" lon="4.78878">
        <ele>228.11599731445</ele>
        <time>2010-03-17T15:27:10Z</time>
      </trkpt>
      <trkpt lat="45.07027" lon="4.78933">
        <ele>226.97900390625</ele>
        <time>2010-03-17T15:27:14Z</time>
      </trkpt>
      <trkpt lat="45.07005" lon="4.78941">
        <ele>223.61000061035</ele>
        <time>2010-03-17T15:27:16Z</time>
      </trkpt>
      <trkpt lat="45.06979" lon="4.78969">
        <ele>222.06799316406</ele>
        <time>2010-03-17T15:27:19Z</time>
      </trkpt>
      <trkpt lat="45.06961" lon="4.79025">
        <ele>219.21000671387</ele>
        <time>2010-03-17T15:27:23Z</time>
      </trkpt>
      <trkpt lat="45.06968" lon="4.79057">
        <ele>217.0950012207</ele>
        <time>2010-03-17T15:27:25Z</time>
      </trkpt>
      <trkpt lat="45.06983" lon="4.79082">
        <ele>216.32200622559</ele>
        <time>2010-03-17T15:27:27Z</time>
      </trkpt>
      <trkpt lat="45.06993" lon="4.79091">
        <ele>215.82800292969</ele>
        <time>2010-03-17T15:27:28Z</time>
      </trkpt>
      <trkpt lat="45.07017" lon="4.79116">
        <ele>216.46499633789</ele>
        <time>2010-03-17T15:27:32Z</time>
      </trkpt>
      <trkpt lat="45.07005" lon="4.79115">
        <ele>214.36000061035</ele>
        <time>2010-03-17T15:27:34Z</time>
      </trkpt>
      <trkpt lat="45.06998" lon="4.79109">
        <ele>213.21299743652</ele>
        <time>2010-03-17T15:27:35Z</time>
      </trkpt>
      <trkpt lat="45.06966" lon="4.79082">
        <ele>210.75700378418</ele>
        <time>2010-03-17T15:27:39Z</time>
      </trkpt>
      <trkpt lat="45.06944" lon="4.79049">
        <ele>208.47900390625</ele>
        <time>2010-03-17T15:27:42Z</time>
      </trkpt>
      <trkpt lat="45.06937" lon="4.79001">
        <ele>205.14100646973</ele>
        <time>2010-03-17T15:27:45Z</time>
      </trkpt>
      <trkpt lat="45.06944" lon="4.78949">
        <ele>202.5359954834</ele>
        <time>2010-03-17T15:27:48Z</time>
      </trkpt>
      <trkpt lat="45.06963" lon="4.78921">
        <ele>200.96600341797</ele>
        <time>2010-03-17T15:27:50Z</time>
      </trkpt>
      <trkpt lat="45.06977" lon="4.78891">
        <ele>197.80599975586</ele>
        <time>2010-03-17T15:27:52Z</time>
      </trkpt>
      <trkpt lat="45.06971" lon="4.78855">
        <ele>196.02299499512</ele>
        <time>2010-03-17T15:27:54Z</time>
      </trkpt>
      <trkpt lat="45.06958" lon="4.78803">
        <ele>194.19200134277</ele>
        <time>2010-03-17T15:27:57Z</time>
      </trkpt>
      <trkpt lat="45.06938" lon="4.78735">
        <ele>190.84599304199</ele>
        <time>2010-03-17T15:28:01Z</time>
      </trkpt>
      <trkpt lat="45.06915" lon="4.78686">
        <ele>187.57699584961</ele>
        <time>2010-03-17T15:28:04Z</time>
      </trkpt>
      <trkpt lat="45.06907" lon="4.78647">
        <ele>184.27400207519</ele>
        <time>2010-03-17T15:28:06Z</time>
      </trkpt>
      <trkpt lat="45.06898" lon="4.78587">
        <ele>180.94900512695</ele>
        <time>2010-03-17T15:28:09Z</time>
      </trkpt>
      <trkpt lat="45.06881" lon="4.78486">
        <ele>175.75199890137</ele>
        <time>2010-03-17T15:28:14Z</time>
      </trkpt>
      <trkpt lat="45.0689" lon="4.78429">
        <ele>172.64100646973</ele>
        <time>2010-03-17T15:28:17Z</time>
      </trkpt>
      <trkpt lat="45.069" lon="4.78416">
        <ele>171.97500610352</ele>
        <time>2010-03-17T15:28:18Z</time>
      </trkpt>
      <trkpt lat="45.06911" lon="4.7836">
        <ele>168.81900024414</ele>
        <time>2010-03-17T15:28:22Z</time>
      </trkpt>
      <trkpt lat="45.06901" lon="4.7835">
        <ele>168.69099426269</ele>
        <time>2010-03-17T15:28:23Z</time>
      </trkpt>
      <trkpt lat="45.06877" lon="4.78346">
        <ele>165.69400024414</ele>
        <time>2010-03-17T15:28:25Z</time>
      </trkpt>
      <trkpt lat="45.06839" lon="4.78341">
        <ele>162.86199951172</ele>
        <time>2010-03-17T15:28:28Z</time>
      </trkpt>
      <trkpt lat="45.06789" lon="4.7831">
        <ele>158.95199584961</ele>
        <time>2010-03-17T15:28:32Z</time>
      </trkpt>
      <trkpt lat="45.06778" lon="4.783">
        <ele>157.53999328613</ele>
        <time>2010-03-17T15:28:33Z</time>
      </trkpt>
      <trkpt lat="45.06755" lon="4.78254">
        <ele>151.6609954834</ele>
        <time>2010-03-17T15:28:36Z</time>
      </trkpt>
      <trkpt lat="45.06739" lon="4.78168">
        <ele>148.79899597168</ele>
        <time>2010-03-17T15:28:41Z</time>
      </trkpt>
      <trkpt lat="45.06735" lon="4.78134">
        <ele>147.88900756836</ele>
        <time>2010-03-17T15:28:43Z</time>
      </trkpt>
      <trkpt lat="45.0672" lon="4.78096">
        <ele>148.91000366211</ele>
        <time>2010-03-17T15:28:46Z</time>
      </trkpt>
      <trkpt lat="45.06699" lon="4.78088">
        <ele>149.9049987793</ele>
        <time>2010-03-17T15:28:49Z</time>
      </trkpt>
      <trkpt lat="45.06686" lon="4.78095">
        <ele>149.87300109863</ele>
        <time>2010-03-17T15:28:51Z</time>
      </trkpt>
      <trkpt lat="45.0668" lon="4.78099">
        <ele>149.375</ele>
        <time>2010-03-17T15:28:52Z</time>
      </trkpt>
      <trkpt lat="45.0664" lon="4.78119">
        <ele>149.05700683594</ele>
        <time>2010-03-17T15:28:58Z</time>
      </trkpt>
      <trkpt lat="45.06609" lon="4.78147">
        <ele>148.29299926758</ele>
        <time>2010-03-17T15:29:03Z</time>
      </trkpt>
      <trkpt lat="45.06605" lon="4.7815">
        <ele>148.41400146484</ele>
        <time>2010-03-17T15:29:04Z</time>
      </trkpt>
      <trkpt lat="45.06602" lon="4.78173">
        <ele>147.92900085449</ele>
        <time>2010-03-17T15:29:08Z</time>
      </trkpt>
      <trkpt lat="45.06606" lon="4.7818">
        <ele>147.72200012207</ele>
        <time>2010-03-17T15:29:09Z</time>
      </trkpt>
      <trkpt lat="45.06621" lon="4.78224">
        <ele>145.99899291992</ele>
        <time>2010-03-17T15:29:14Z</time>
      </trkpt>
      <trkpt lat="45.06625" lon="4.78301">
        <ele>143.77799987793</ele>
        <time>2010-03-17T15:29:20Z</time>
      </trkpt>
      <trkpt lat="45.06626" lon="4.78363">
        <ele>142.34899902344</ele>
        <time>2010-03-17T15:29:24Z</time>
      </trkpt>
      <trkpt lat="45.06626" lon="4.7841">
        <ele>141.81199645996</ele>
        <time>2010-03-17T15:29:27Z</time>
      </trkpt>
      <trkpt lat="45.0663" lon="4.7844">
        <ele>140.76400756836</ele>
        <time>2010-03-17T15:29:29Z</time>
      </trkpt>
      <trkpt lat="45.06632" lon="4.78456">
        <ele>140.52799987793</ele>
        <time>2010-03-17T15:29:30Z</time>
      </trkpt>
      <trkpt lat="45.06632" lon="4.78518">
        <ele>140.27499389648</ele>
        <time>2010-03-17T15:29:34Z</time>
      </trkpt>
      <trkpt lat="45.0663" lon="4.78533">
        <ele>139.71800231934</ele>
        <time>2010-03-17T15:29:35Z</time>
      </trkpt>
      <trkpt lat="45.066" lon="4.78645">
        <ele>138.94900512695</ele>
        <time>2010-03-17T15:29:43Z</time>
      </trkpt>
      <trkpt lat="45.06578" lon="4.78693">
        <ele>138.31799316406</ele>
        <time>2010-03-17T15:29:47Z</time>
      </trkpt>
      <trkpt lat="45.06531" lon="4.78783">
        <ele>137.50199890137</ele>
        <time>2010-03-17T15:29:55Z</time>
      </trkpt>
      <trkpt lat="45.06506" lon="4.78861">
        <ele>136.50500488281</ele>
        <time>2010-03-17T15:30:01Z</time>
      </trkpt>
      <trkpt lat="45.06485" lon="4.78953">
        <ele>135.90800476074</ele>
        <time>2010-03-17T15:30:08Z</time>
      </trkpt>
      <trkpt lat="45.06462" lon="4.79051">
        <ele>135.33599853516</ele>
        <time>2010-03-17T15:30:16Z</time>
      </trkpt>
      <trkpt lat="45.06428" lon="4.79142">
        <ele>134.79100036621</ele>
        <time>2010-03-17T15:30:24Z</time>
      </trkpt>
      <trkpt lat="45.06425" lon="4.79154">
        <ele>134.96299743652</ele>
        <time>2010-03-17T15:30:25Z</time>
      </trkpt>
      <trkpt lat="45.06429" lon="4.79215">
        <ele>135.05499267578</ele>
        <time>2010-03-17T15:30:30Z</time>
      </trkpt>
      <trkpt lat="45.06432" lon="4.79226">
        <ele>135.15299987793</ele>
        <time>2010-03-17T15:30:31Z</time>
      </trkpt>
      <trkpt lat="45.06457" lon="4.79285">
        <ele>134.71800231934</ele>
        <time>2010-03-17T15:30:37Z</time>
      </trkpt>
      <trkpt lat="45.06486" lon="4.79322">
        <ele>133.75900268555</ele>
        <time>2010-03-17T15:30:42Z</time>
      </trkpt>
      <trkpt lat="45.06517" lon="4.79356">
        <ele>133.13499450684</ele>
        <time>2010-03-17T15:30:47Z</time>
      </trkpt>
      <trkpt lat="45.06545" lon="4.79408">
        <ele>133.10099792481</ele>
        <time>2010-03-17T15:30:53Z</time>
      </trkpt>
      <trkpt lat="45.06567" lon="4.79469">
        <ele>131.71299743652</ele>
        <time>2010-03-17T15:30:59Z</time>
      </trkpt>
      <trkpt lat="45.06596" lon="4.79558">
        <ele>131.74699401856</ele>
        <time>2010-03-17T15:31:08Z</time>
      </trkpt>
      <trkpt lat="45.06628" lon="4.79641">
        <ele>131.52099609375</ele>
        <time>2010-03-17T15:31:17Z</time>
      </trkpt>
      <trkpt lat="45.06659" lon="4.79709">
        <ele>129.48599243164</ele>
        <time>2010-03-17T15:31:24Z</time>
      </trkpt>
      <trkpt lat="45.06687" lon="4.79788">
        <ele>127.33599853516</ele>
        <time>2010-03-17T15:31:31Z</time>
      </trkpt>
      <trkpt lat="45.06693" lon="4.79838">
        <ele>127.15599822998</ele>
        <time>2010-03-17T15:31:35Z</time>
      </trkpt>
      <trkpt lat="45.06694" lon="4.79923">
        <ele>126.64900207519</ele>
        <time>2010-03-17T15:31:42Z</time>
      </trkpt>
      <trkpt lat="45.06692" lon="4.80013">
        <ele>125.95099639893</ele>
        <time>2010-03-17T15:31:50Z</time>
      </trkpt>
      <trkpt lat="45.06691" lon="4.80105">
        <ele>126.75399780273</ele>
        <time>2010-03-17T15:31:59Z</time>
      </trkpt>
      <trkpt lat="45.06687" lon="4.80211">
        <ele>125.19400024414</ele>
        <time>2010-03-17T15:32:10Z</time>
      </trkpt>
      <trkpt lat="45.06685" lon="4.80322">
        <ele>125.72599792481</ele>
        <time>2010-03-17T15:32:22Z</time>
      </trkpt>
      <trkpt lat="45.06686" lon="4.80422">
        <ele>125.41200256348</ele>
        <time>2010-03-17T15:32:33Z</time>
      </trkpt>
      <trkpt lat="45.06686" lon="4.80474">
        <ele>125.297996521</ele>
        <time>2010-03-17T15:32:38Z</time>
      </trkpt>
      <trkpt lat="45.06686" lon="4.80569">
        <ele>126.89199829102</ele>
        <time>2010-03-17T15:32:48Z</time>
      </trkpt>
      <trkpt lat="45.06686" lon="4.8066">
        <ele>127.76000213623</ele>
        <time>2010-03-17T15:32:58Z</time>
      </trkpt>
      <trkpt lat="45.06689" lon="4.80727">
        <ele>128.11000061035</ele>
        <time>2010-03-17T15:33:06Z</time>
      </trkpt>
      <trkpt lat="45.06696" lon="4.80798">
        <ele>129.20300292969</ele>
        <time>2010-03-17T15:33:15Z</time>
      </trkpt>
      <trkpt lat="45.06697" lon="4.80814">
        <ele>129.53399658203</ele>
        <time>2010-03-17T15:33:17Z</time>
      </trkpt>
      <trkpt lat="45.06692" lon="4.80854">
        <ele>128.9940032959</ele>
        <time>2010-03-17T15:33:22Z</time>
      </trkpt>
      <trkpt lat="45.06699" lon="4.80875">
        <ele>130.02499389648</ele>
        <time>2010-03-17T15:33:25Z</time>
      </trkpt>
      <trkpt lat="45.06711" lon="4.80911">
        <ele>129.4640045166</ele>
        <time>2010-03-17T15:33:30Z</time>
      </trkpt>
      <trkpt lat="45.06718" lon="4.80997">
        <ele>130.72999572754</ele>
        <time>2010-03-17T15:33:41Z</time>
      </trkpt>
      <trkpt lat="45.06726" lon="4.81064">
        <ele>132.61199951172</ele>
        <time>2010-03-17T15:33:50Z</time>
      </trkpt>
      <trkpt lat="45.06739" lon="4.81114">
        <ele>131.99000549316</ele>
        <time>2010-03-17T15:33:57Z</time>
      </trkpt>
      <trkpt lat="45.06761" lon="4.81171">
        <ele>131.4940032959</ele>
        <time>2010-03-17T15:34:04Z</time>
      </trkpt>
      <trkpt lat="45.06771" lon="4.81198">
        <ele>131.33599853516</ele>
        <time>2010-03-17T15:34:07Z</time>
      </trkpt>
      <trkpt lat="45.06783" lon="4.81237">
        <ele>130.4700012207</ele>
        <time>2010-03-17T15:34:11Z</time>
      </trkpt>
      <trkpt lat="45.06798" lon="4.81275">
        <ele>129.38400268555</ele>
        <time>2010-03-17T15:34:15Z</time>
      </trkpt>
      <trkpt lat="45.06812" lon="4.81303">
        <ele>129.01600646973</ele>
        <time>2010-03-17T15:34:18Z</time>
      </trkpt>
      <trkpt lat="45.06847" lon="4.8139">
        <ele>128.27099609375</ele>
        <time>2010-03-17T15:34:27Z</time>
      </trkpt>
      <trkpt lat="45.06874" lon="4.81471">
        <ele>127.67600250244</ele>
        <time>2010-03-17T15:34:35Z</time>
      </trkpt>
      <trkpt lat="45.06898" lon="4.81553">
        <ele>125.62200164795</ele>
        <time>2010-03-17T15:34:43Z</time>
      </trkpt>
      <trkpt lat="45.06922" lon="4.81636">
        <ele>125.89199829102</ele>
        <time>2010-03-17T15:34:52Z</time>
      </trkpt>
      <trkpt lat="45.06944" lon="4.8171">
        <ele>125.73699951172</ele>
        <time>2010-03-17T15:35:00Z</time>
      </trkpt>
      <trkpt lat="45.06969" lon="4.81795">
        <ele>125.33699798584</ele>
        <time>2010-03-17T15:35:09Z</time>
      </trkpt>
      <trkpt lat="45.06994" lon="4.81881">
        <ele>125.14600372315</ele>
        <time>2010-03-17T15:35:18Z</time>
      </trkpt>
      <trkpt lat="45.06998" lon="4.81891">
        <ele>125.15399932861</ele>
        <time>2010-03-17T15:35:19Z</time>
      </trkpt>
      <trkpt lat="45.07025" lon="4.81949">
        <ele>123.83000183106</ele>
        <time>2010-03-17T15:35:25Z</time>
      </trkpt>
      <trkpt lat="45.07066" lon="4.82006">
        <ele>123.09799957275</ele>
        <time>2010-03-17T15:35:32Z</time>
      </trkpt>
      <trkpt lat="45.07107" lon="4.82051">
        <ele>121.76000213623</ele>
        <time>2010-03-17T15:35:38Z</time>
      </trkpt>
      <trkpt lat="45.07146" lon="4.82095">
        <ele>121.88300323486</ele>
        <time>2010-03-17T15:35:44Z</time>
      </trkpt>
      <trkpt lat="45.072" lon="4.82153">
        <ele>120.54399871826</ele>
        <time>2010-03-17T15:35:52Z</time>
      </trkpt>
      <trkpt lat="45.07216" lon="4.82174">
        <ele>121.32199859619</ele>
        <time>2010-03-17T15:35:55Z</time>
      </trkpt>
      <trkpt lat="45.07226" lon="4.82199">
        <ele>122.24099731445</ele>
        <time>2010-03-17T15:35:58Z</time>
      </trkpt>
      <trkpt lat="45.07225" lon="4.8224">
        <ele>122.05899810791</ele>
        <time>2010-03-17T15:36:03Z</time>
      </trkpt>
      <trkpt lat="45.07212" lon="4.82289">
        <ele>121.05699920654</ele>
        <time>2010-03-17T15:36:08Z</time>
      </trkpt>
      <trkpt lat="45.07191" lon="4.82354">
        <ele>119.97399902344</ele>
        <time>2010-03-17T15:36:14Z</time>
      </trkpt>
      <trkpt lat="45.07174" lon="4.82411">
        <ele>119.37400054932</ele>
        <time>2010-03-17T15:36:19Z</time>
      </trkpt>
      <trkpt lat="45.07144" lon="4.82501">
        <ele>118.55500030518</ele>
        <time>2010-03-17T15:36:27Z</time>
      </trkpt>
      <trkpt lat="45.07116" lon="4.82582">
        <ele>117.7320022583</ele>
        <time>2010-03-17T15:36:34Z</time>
      </trkpt>
      <trkpt lat="45.07108" lon="4.82605">
        <ele>118.60900115967</ele>
        <time>2010-03-17T15:36:36Z</time>
      </trkpt>
      <trkpt lat="45.07076" lon="4.827">
        <ele>119.22899627685</ele>
        <time>2010-03-17T15:36:45Z</time>
      </trkpt>
      <trkpt lat="45.07063" lon="4.82742">
        <ele>119.1129989624</ele>
        <time>2010-03-17T15:36:49Z</time>
      </trkpt>
      <trkpt lat="45.07024" lon="4.828">
        <ele>118.40000152588</ele>
        <time>2010-03-17T15:36:56Z</time>
      </trkpt>
      <trkpt lat="45.06986" lon="4.82862">
        <ele>118.827003479</ele>
        <time>2010-03-17T15:37:03Z</time>
      </trkpt>
      <trkpt lat="45.06945" lon="4.82907">
        <ele>118.58200073242</ele>
        <time>2010-03-17T15:37:09Z</time>
      </trkpt>
      <trkpt lat="45.06904" lon="4.82967">
        <ele>119.15699768066</ele>
        <time>2010-03-17T15:37:16Z</time>
      </trkpt>
      <trkpt lat="45.0689" lon="4.82997">
        <ele>119.11699676514</ele>
        <time>2010-03-17T15:37:19Z</time>
      </trkpt>
      <trkpt lat="45.06875" lon="4.8305">
        <ele>119.4879989624</ele>
        <time>2010-03-17T15:37:24Z</time>
      </trkpt>
      <trkpt lat="45.0687" lon="4.83093">
        <ele>120.21399688721</ele>
        <time>2010-03-17T15:37:28Z</time>
      </trkpt>
      <trkpt lat="45.06873" lon="4.83172">
        <ele>120.89900207519</ele>
        <time>2010-03-17T15:37:35Z</time>
      </trkpt>
      <trkpt lat="45.06874" lon="4.83229">
        <ele>120.58000183106</ele>
        <time>2010-03-17T15:37:40Z</time>
      </trkpt>
      <trkpt lat="45.06864" lon="4.83286">
        <ele>119.89099884033</ele>
        <time>2010-03-17T15:37:45Z</time>
      </trkpt>
      <trkpt lat="45.06853" lon="4.83318">
        <ele>119.10900115967</ele>
        <time>2010-03-17T15:37:48Z</time>
      </trkpt>
      <trkpt lat="45.06819" lon="4.83384">
        <ele>119.75099945068</ele>
        <time>2010-03-17T15:37:55Z</time>
      </trkpt>
      <trkpt lat="45.06784" lon="4.83445">
        <ele>121.2559967041</ele>
        <time>2010-03-17T15:38:01Z</time>
      </trkpt>
      <trkpt lat="45.06756" lon="4.83504">
        <ele>121.40899658203</ele>
        <time>2010-03-17T15:38:07Z</time>
      </trkpt>
      <trkpt lat="45.0671" lon="4.83608">
        <ele>120.797996521</ele>
        <time>2010-03-17T15:38:17Z</time>
      </trkpt>
      <trkpt lat="45.06674" lon="4.83685">
        <ele>120.8629989624</ele>
        <time>2010-03-17T15:38:25Z</time>
      </trkpt>
      <trkpt lat="45.06628" lon="4.83789">
        <ele>120.15100097656</ele>
        <time>2010-03-17T15:38:36Z</time>
      </trkpt>
      <trkpt lat="45.06598" lon="4.8386">
        <ele>120.57599639893</ele>
        <time>2010-03-17T15:38:44Z</time>
      </trkpt>
      <trkpt lat="45.06565" lon="4.83941">
        <ele>120.15299987793</ele>
        <time>2010-03-17T15:38:53Z</time>
      </trkpt>
      <trkpt lat="45.06538" lon="4.83981">
        <ele>120.27799987793</ele>
        <time>2010-03-17T15:38:59Z</time>
      </trkpt>
      <trkpt lat="45.06533" lon="4.84012">
        <ele>121.68499755859</ele>
        <time>2010-03-17T15:39:03Z</time>
      </trkpt>
      <trkpt lat="45.06545" lon="4.84017">
        <ele>122.29599761963</ele>
        <time>2010-03-17T15:39:05Z</time>
      </trkpt>
      <trkpt lat="45.06551" lon="4.84017">
        <ele>122.38899993897</ele>
        <time>2010-03-17T15:39:06Z</time>
      </trkpt>
      <trkpt lat="45.06587" lon="4.84027">
        <ele>122.90799713135</ele>
        <time>2010-03-17T15:39:12Z</time>
      </trkpt>
      <trkpt lat="45.0663" lon="4.84053">
        <ele>124.01899719238</ele>
        <time>2010-03-17T15:39:20Z</time>
      </trkpt>
      <trkpt lat="45.06671" lon="4.84079">
        <ele>124.32099914551</ele>
        <time>2010-03-17T15:39:27Z</time>
      </trkpt>
      <trkpt lat="45.06723" lon="4.8411">
        <ele>123.76599884033</ele>
        <time>2010-03-17T15:39:35Z</time>
      </trkpt>
      <trkpt lat="45.0677" lon="4.84138">
        <ele>122.58899688721</ele>
        <time>2010-03-17T15:39:41Z</time>
      </trkpt>
      <trkpt lat="45.06804" lon="4.84158">
        <ele>121.00399780273</ele>
        <time>2010-03-17T15:39:45Z</time>
      </trkpt>
      <trkpt lat="45.06871" lon="4.84201">
        <ele>118.71800231934</ele>
        <time>2010-03-17T15:39:53Z</time>
      </trkpt>
      <trkpt lat="45.06882" lon="4.8421">
        <ele>118.76499938965</ele>
        <time>2010-03-17T15:39:56Z</time>
      </trkpt>
      <trkpt lat="45.06892" lon="4.84222">
        <ele>118.16500091553</ele>
        <time>2010-03-17T15:40:00Z</time>
      </trkpt>
      <trkpt lat="45.06896" lon="4.84251">
        <ele>116.85500335693</ele>
        <time>2010-03-17T15:40:04Z</time>
      </trkpt>
      <trkpt lat="45.06894" lon="4.8426">
        <ele>116.87799835205</ele>
        <time>2010-03-17T15:40:05Z</time>
      </trkpt>
      <trkpt lat="45.06874" lon="4.84329">
        <ele>116.73600006103</ele>
        <time>2010-03-17T15:40:12Z</time>
      </trkpt>
      <trkpt lat="45.06859" lon="4.84402">
        <ele>116.22599792481</ele>
        <time>2010-03-17T15:40:19Z</time>
      </trkpt>
      <trkpt lat="45.06854" lon="4.84423">
        <ele>117.77300262451</ele>
        <time>2010-03-17T15:40:24Z</time>
      </trkpt>
      <trkpt lat="45.06852" lon="4.84429">
        <ele>117.41799926758</ele>
        <time>2010-03-17T15:40:26Z</time>
      </trkpt>
      <trkpt lat="45.06857" lon="4.84433">
        <ele>118.74700164795</ele>
        <time>2010-03-17T15:40:29Z</time>
      </trkpt>
      <trkpt lat="45.06867" lon="4.84427">
        <ele>118.44699859619</ele>
        <time>2010-03-17T15:40:31Z</time>
      </trkpt>
      <trkpt lat="45.06905" lon="4.84421">
        <ele>117.77400207519</ele>
        <time>2010-03-17T15:40:36Z</time>
      </trkpt>
      <trkpt lat="45.06943" lon="4.8442">
        <ele>117.30999755859</ele>
        <time>2010-03-17T15:40:41Z</time>
      </trkpt>
      <trkpt lat="45.07" lon="4.84419">
        <ele>118.14600372315</ele>
        <time>2010-03-17T15:40:49Z</time>
      </trkpt>
      <trkpt lat="45.07029" lon="4.84416">
        <ele>118.37999725342</ele>
        <time>2010-03-17T15:40:54Z</time>
      </trkpt>
      <trkpt lat="45.07035" lon="4.84417">
        <ele>118.80100250244</ele>
        <time>2010-03-17T15:40:56Z</time>
      </trkpt>
      <trkpt lat="45.07035" lon="4.8443">
        <ele>118.35500335693</ele>
        <time>2010-03-17T15:41:00Z</time>
      </trkpt>
      <trkpt lat="45.07032" lon="4.84458">
        <ele>118.46900177002</ele>
        <time>2010-03-17T15:41:04Z</time>
      </trkpt>
      <trkpt lat="45.07026" lon="4.84515">
        <ele>117.50199890137</ele>
        <time>2010-03-17T15:41:11Z</time>
      </trkpt>
      <trkpt lat="45.0702" lon="4.84584">
        <ele>118.89199829102</ele>
        <time>2010-03-17T15:41:19Z</time>
      </trkpt>
      <trkpt lat="45.0702" lon="4.84593">
        <ele>118.60500335693</ele>
        <time>2010-03-17T15:41:20Z</time>
      </trkpt>
      <trkpt lat="45.07032" lon="4.84655">
        <ele>117.50700378418</ele>
        <time>2010-03-17T15:41:27Z</time>
      </trkpt>
      <trkpt lat="45.07042" lon="4.84706">
        <ele>119.87400054932</ele>
        <time>2010-03-17T15:41:33Z</time>
      </trkpt>
      <trkpt lat="45.07048" lon="4.84761">
        <ele>119.51699829102</ele>
        <time>2010-03-17T15:41:39Z</time>
      </trkpt>
      <trkpt lat="45.07054" lon="4.84822">
        <ele>118.80999755859</ele>
        <time>2010-03-17T15:41:45Z</time>
      </trkpt>
      <trkpt lat="45.07067" lon="4.84884">
        <ele>114.33799743652</ele>
        <time>2010-03-17T15:41:50Z</time>
      </trkpt>
      <trkpt lat="45.07083" lon="4.84948">
        <ele>113.62200164795</ele>
        <time>2010-03-17T15:41:55Z</time>
      </trkpt>
      <trkpt lat="45.07086" lon="4.8496">
        <ele>112.91400146484</ele>
        <time>2010-03-17T15:41:56Z</time>
      </trkpt>
      <trkpt lat="45.07085" lon="4.84999">
        <ele>117.23400115967</ele>
        <time>2010-03-17T15:42:00Z</time>
      </trkpt>
      <trkpt lat="45.07078" lon="4.85047">
        <ele>120.13600158691</ele>
        <time>2010-03-17T15:42:07Z</time>
      </trkpt>
      <trkpt lat="45.07077" lon="4.85087">
        <ele>119.66000366211</ele>
        <time>2010-03-17T15:42:12Z</time>
      </trkpt>
      <trkpt lat="45.07085" lon="4.85163">
        <ele>119.59100341797</ele>
        <time>2010-03-17T15:42:21Z</time>
      </trkpt>
      <trkpt lat="45.07095" lon="4.85235">
        <ele>119.61799621582</ele>
        <time>2010-03-17T15:42:29Z</time>
      </trkpt>
      <trkpt lat="45.07092" lon="4.85331">
        <ele>120.15200042725</ele>
        <time>2010-03-17T15:42:40Z</time>
      </trkpt>
      <trkpt lat="45.07094" lon="4.85406">
        <ele>120.31999969482</ele>
        <time>2010-03-17T15:42:48Z</time>
      </trkpt>
      <trkpt lat="45.07099" lon="4.85504">
        <ele>121.5830001831</ele>
        <time>2010-03-17T15:42:58Z</time>
      </trkpt>
      <trkpt lat="45.07096" lon="4.85561">
        <ele>121.45099639893</ele>
        <time>2010-03-17T15:43:04Z</time>
      </trkpt>
      <trkpt lat="45.07092" lon="4.85632">
        <ele>122.68399810791</ele>
        <time>2010-03-17T15:43:12Z</time>
      </trkpt>
      <trkpt lat="45.0709" lon="4.85699">
        <ele>123.85099792481</ele>
        <time>2010-03-17T15:43:20Z</time>
      </trkpt>
      <trkpt lat="45.07087" lon="4.85761">
        <ele>125.81600189209</ele>
        <time>2010-03-17T15:43:28Z</time>
      </trkpt>
      <trkpt lat="45.07083" lon="4.85802">
        <ele>126.58999633789</ele>
        <time>2010-03-17T15:43:34Z</time>
      </trkpt>
      <trkpt lat="45.0708" lon="4.85815">
        <ele>127.47899627685</ele>
        <time>2010-03-17T15:43:36Z</time>
      </trkpt>
      <trkpt lat="45.0708" lon="4.85835">
        <ele>128.05700683594</ele>
        <time>2010-03-17T15:43:39Z</time>
      </trkpt>
      <trkpt lat="45.07078" lon="4.85856">
        <ele>128.32499694824</ele>
        <time>2010-03-17T15:43:42Z</time>
      </trkpt>
      <trkpt lat="45.07076" lon="4.85872">
        <ele>127.10500335693</ele>
        <time>2010-03-17T15:43:44Z</time>
      </trkpt>
      <trkpt lat="45.07073" lon="4.85889">
        <ele>126.71800231934</ele>
        <time>2010-03-17T15:43:46Z</time>
      </trkpt>
      <trkpt lat="45.07067" lon="4.85965">
        <ele>125.33000183106</ele>
        <time>2010-03-17T15:43:54Z</time>
      </trkpt>
      <trkpt lat="45.07071" lon="4.8604">
        <ele>126.7620010376</ele>
        <time>2010-03-17T15:44:02Z</time>
      </trkpt>
      <trkpt lat="45.07074" lon="4.86098">
        <ele>126.51599884033</ele>
        <time>2010-03-17T15:44:08Z</time>
      </trkpt>
      <trkpt lat="45.07077" lon="4.86156">
        <ele>127.29000091553</ele>
        <time>2010-03-17T15:44:14Z</time>
      </trkpt>
      <trkpt lat="45.07076" lon="4.86215">
        <ele>127.16400146484</ele>
        <time>2010-03-17T15:44:20Z</time>
      </trkpt>
      <trkpt lat="45.0707" lon="4.86261">
        <ele>127.43399810791</ele>
        <time>2010-03-17T15:44:25Z</time>
      </trkpt>
      <trkpt lat="45.07052" lon="4.86309">
        <ele>127.12599945068</ele>
        <time>2010-03-17T15:44:31Z</time>
      </trkpt>
      <trkpt lat="45.07026" lon="4.86372">
        <ele>127.57299804688</ele>
        <time>2010-03-17T15:44:39Z</time>
      </trkpt>
      <trkpt lat="45.07012" lon="4.86389">
        <ele>126.2620010376</ele>
        <time>2010-03-17T15:44:42Z</time>
      </trkpt>
      <trkpt lat="45.06998" lon="4.86415">
        <ele>128.47700500488</ele>
        <time>2010-03-17T15:44:46Z</time>
      </trkpt>
      <trkpt lat="45.06997" lon="4.8644">
        <ele>129.43600463867</ele>
        <time>2010-03-17T15:44:49Z</time>
      </trkpt>
      <trkpt lat="45.07009" lon="4.86469">
        <ele>129.33000183106</ele>
        <time>2010-03-17T15:44:53Z</time>
      </trkpt>
      <trkpt lat="45.07026" lon="4.86482">
        <ele>128.95199584961</ele>
        <time>2010-03-17T15:44:56Z</time>
      </trkpt>
      <trkpt lat="45.07039" lon="4.86482">
        <ele>128.4940032959</ele>
        <time>2010-03-17T15:44:58Z</time>
      </trkpt>
      <trkpt lat="45.07071" lon="4.86496">
        <ele>128.3869934082</ele>
        <time>2010-03-17T15:45:03Z</time>
      </trkpt>
      <trkpt lat="45.07089" lon="4.86527">
        <ele>129.27000427246</ele>
        <time>2010-03-17T15:45:07Z</time>
      </trkpt>
      <trkpt lat="45.07095" lon="4.8656">
        <ele>130.44200134277</ele>
        <time>2010-03-17T15:45:11Z</time>
      </trkpt>
      <trkpt lat="45.0709" lon="4.86596">
        <ele>131.13800048828</ele>
        <time>2010-03-17T15:45:16Z</time>
      </trkpt>
      <trkpt lat="45.07088" lon="4.86602">
        <ele>131.28100585938</ele>
        <time>2010-03-17T15:45:17Z</time>
      </trkpt>
      <trkpt lat="45.07077" lon="4.86627">
        <ele>133.14399719238</ele>
        <time>2010-03-17T15:45:22Z</time>
      </trkpt>
      <trkpt lat="45.07058" lon="4.8666">
        <ele>134.49800109863</ele>
        <time>2010-03-17T15:45:30Z</time>
      </trkpt>
      <trkpt lat="45.07041" lon="4.86698">
        <ele>135.79499816894</ele>
        <time>2010-03-17T15:45:39Z</time>
      </trkpt>
      <trkpt lat="45.0703" lon="4.86742">
        <ele>137.18299865723</ele>
        <time>2010-03-17T15:45:48Z</time>
      </trkpt>
      <trkpt lat="45.07027" lon="4.8679">
        <ele>137.96200561523</ele>
        <time>2010-03-17T15:45:57Z</time>
      </trkpt>
      <trkpt lat="45.07023" lon="4.86844">
        <ele>139.33599853516</ele>
        <time>2010-03-17T15:46:07Z</time>
      </trkpt>
      <trkpt lat="45.07014" lon="4.86893">
        <ele>140.60099792481</ele>
        <time>2010-03-17T15:46:16Z</time>
      </trkpt>
      <trkpt lat="45.07002" lon="4.86947">
        <ele>140.13400268555</ele>
        <time>2010-03-17T15:46:25Z</time>
      </trkpt>
      <trkpt lat="45.06993" lon="4.86986">
        <ele>140.21000671387</ele>
        <time>2010-03-17T15:46:31Z</time>
      </trkpt>
      <trkpt lat="45.0697" lon="4.87045">
        <ele>140.08299255371</ele>
        <time>2010-03-17T15:46:40Z</time>
      </trkpt>
      <trkpt lat="45.06939" lon="4.87106">
        <ele>138.875</ele>
        <time>2010-03-17T15:46:50Z</time>
      </trkpt>
      <trkpt lat="45.06915" lon="4.87149">
        <ele>139.60299682617</ele>
        <time>2010-03-17T15:46:58Z</time>
      </trkpt>
      <trkpt lat="45.06893" lon="4.87199">
        <ele>140.50799560547</ele>
        <time>2010-03-17T15:47:06Z</time>
      </trkpt>
      <trkpt lat="45.06878" lon="4.87246">
        <ele>139.92700195312</ele>
        <time>2010-03-17T15:47:13Z</time>
      </trkpt>
      <trkpt lat="45.0687" lon="4.87275">
        <ele>140.79699707031</ele>
        <time>2010-03-17T15:47:17Z</time>
      </trkpt>
      <trkpt lat="45.0686" lon="4.87329">
        <ele>140.80599975586</ele>
        <time>2010-03-17T15:47:24Z</time>
      </trkpt>
      <trkpt lat="45.06855" lon="4.8736">
        <ele>139.72200012207</ele>
        <time>2010-03-17T15:47:28Z</time>
      </trkpt>
      <trkpt lat="45.06851" lon="4.87409">
        <ele>140.95899963379</ele>
        <time>2010-03-17T15:47:34Z</time>
      </trkpt>
      <trkpt lat="45.06853" lon="4.87444">
        <ele>141.87399291992</ele>
        <time>2010-03-17T15:47:39Z</time>
      </trkpt>
      <trkpt lat="45.06854" lon="4.87449">
        <ele>141.88200378418</ele>
        <time>2010-03-17T15:47:40Z</time>
      </trkpt>
      <trkpt lat="45.0685" lon="4.87472">
        <ele>142.11799621582</ele>
        <time>2010-03-17T15:47:44Z</time>
      </trkpt>
      <trkpt lat="45.06852" lon="4.87498">
        <ele>141.55299377441</ele>
        <time>2010-03-17T15:47:48Z</time>
      </trkpt>
      <trkpt lat="45.06868" lon="4.87502">
        <ele>141.46899414062</ele>
        <time>2010-03-17T15:47:51Z</time>
      </trkpt>
      <trkpt lat="45.06893" lon="4.87498">
        <ele>141.38299560547</ele>
        <time>2010-03-17T15:47:55Z</time>
      </trkpt>
      <trkpt lat="45.0691" lon="4.87512">
        <ele>142.19200134277</ele>
        <time>2010-03-17T15:47:58Z</time>
      </trkpt>
      <trkpt lat="45.06914" lon="4.87518">
        <ele>142.47900390625</ele>
        <time>2010-03-17T15:47:59Z</time>
      </trkpt>
      <trkpt lat="45.0695" lon="4.87581">
        <ele>143.48399353027</ele>
        <time>2010-03-17T15:48:09Z</time>
      </trkpt>
      <trkpt lat="45.06966" lon="4.87628">
        <ele>144.46499633789</ele>
        <time>2010-03-17T15:48:16Z</time>
      </trkpt>
      <trkpt lat="45.06984" lon="4.87689">
        <ele>145.43699645996</ele>
        <time>2010-03-17T15:48:25Z</time>
      </trkpt>
      <trkpt lat="45.06997" lon="4.87738">
        <ele>146.4640045166</ele>
        <time>2010-03-17T15:48:32Z</time>
      </trkpt>
      <trkpt lat="45.07013" lon="4.87795">
        <ele>147.05000305176</ele>
        <time>2010-03-17T15:48:40Z</time>
      </trkpt>
      <trkpt lat="45.07032" lon="4.8786">
        <ele>147.63200378418</ele>
        <time>2010-03-17T15:48:49Z</time>
      </trkpt>
      <trkpt lat="45.07054" lon="4.87935">
        <ele>149.02099609375</ele>
        <time>2010-03-17T15:48:59Z</time>
      </trkpt>
      <trkpt lat="45.07078" lon="4.88006">
        <ele>147.44599914551</ele>
        <time>2010-03-17T15:49:08Z</time>
      </trkpt>
      <trkpt lat="45.07105" lon="4.88076">
        <ele>148.07299804688</ele>
        <time>2010-03-17T15:49:17Z</time>
      </trkpt>
      <trkpt lat="45.07135" lon="4.88133">
        <ele>148.65100097656</ele>
        <time>2010-03-17T15:49:25Z</time>
      </trkpt>
      <trkpt lat="45.0717" lon="4.88192">
        <ele>148.91200256348</ele>
        <time>2010-03-17T15:49:34Z</time>
      </trkpt>
      <trkpt lat="45.07198" lon="4.88237">
        <ele>149.54600524902</ele>
        <time>2010-03-17T15:49:41Z</time>
      </trkpt>
      <trkpt lat="45.0723" lon="4.88292">
        <ele>150.39100646973</ele>
        <time>2010-03-17T15:49:50Z</time>
      </trkpt>
      <trkpt lat="45.07261" lon="4.88343">
        <ele>152.08000183106</ele>
        <time>2010-03-17T15:49:59Z</time>
      </trkpt>
      <trkpt lat="45.07282" lon="4.88387">
        <ele>152.28999328613</ele>
        <time>2010-03-17T15:50:06Z</time>
      </trkpt>
      <trkpt lat="45.07302" lon="4.88442">
        <ele>152.73899841309</ele>
        <time>2010-03-17T15:50:14Z</time>
      </trkpt>
      <trkpt lat="45.07328" lon="4.88521">
        <ele>153.1130065918</ele>
        <time>2010-03-17T15:50:25Z</time>
      </trkpt>
      <trkpt lat="45.07352" lon="4.88594">
        <ele>154.21299743652</ele>
        <time>2010-03-17T15:50:35Z</time>
      </trkpt>
      <trkpt lat="45.07365" lon="4.88664">
        <ele>155.48899841309</ele>
        <time>2010-03-17T15:50:44Z</time>
      </trkpt>
      <trkpt lat="45.07367" lon="4.88703">
        <ele>155.91000366211</ele>
        <time>2010-03-17T15:50:49Z</time>
      </trkpt>
      <trkpt lat="45.07378" lon="4.8878">
        <ele>157.6130065918</ele>
        <time>2010-03-17T15:50:59Z</time>
      </trkpt>
      <trkpt lat="45.07394" lon="4.88851">
        <ele>158.95500183106</ele>
        <time>2010-03-17T15:51:09Z</time>
      </trkpt>
      <trkpt lat="45.07405" lon="4.88885">
        <ele>159.29800415039</ele>
        <time>2010-03-17T15:51:14Z</time>
      </trkpt>
      <trkpt lat="45.07423" lon="4.88915">
        <ele>160.39199829102</ele>
        <time>2010-03-17T15:51:19Z</time>
      </trkpt>
      <trkpt lat="45.07442" lon="4.88932">
        <ele>161.08399963379</ele>
        <time>2010-03-17T15:51:23Z</time>
      </trkpt>
      <trkpt lat="45.07484" lon="4.8895">
        <ele>161.36500549316</ele>
        <time>2010-03-17T15:51:30Z</time>
      </trkpt>
      <trkpt lat="45.07515" lon="4.88964">
        <ele>161.87399291992</ele>
        <time>2010-03-17T15:51:35Z</time>
      </trkpt>
      <trkpt lat="45.07528" lon="4.88967">
        <ele>162.22500610352</ele>
        <time>2010-03-17T15:51:37Z</time>
      </trkpt>
      <trkpt lat="45.07558" lon="4.88986">
        <ele>163.18299865723</ele>
        <time>2010-03-17T15:51:42Z</time>
      </trkpt>
      <trkpt lat="45.07581" lon="4.89019">
        <ele>164.13499450684</ele>
        <time>2010-03-17T15:51:47Z</time>
      </trkpt>
      <trkpt lat="45.07602" lon="4.89056">
        <ele>166.45700073242</ele>
        <time>2010-03-17T15:51:53Z</time>
      </trkpt>
      <trkpt lat="45.07624" lon="4.89082">
        <ele>167.45300292969</ele>
        <time>2010-03-17T15:51:59Z</time>
      </trkpt>
      <trkpt lat="45.07656" lon="4.89114">
        <ele>169.17300415039</ele>
        <time>2010-03-17T15:52:07Z</time>
      </trkpt>
      <trkpt lat="45.07682" lon="4.89139">
        <ele>171.23899841309</ele>
        <time>2010-03-17T15:52:14Z</time>
      </trkpt>
      <trkpt lat="45.07692" lon="4.8915">
        <ele>171.6549987793</ele>
        <time>2010-03-17T15:52:17Z</time>
      </trkpt>
      <trkpt lat="45.07714" lon="4.89164">
        <ele>173.10299682617</ele>
        <time>2010-03-17T15:52:23Z</time>
      </trkpt>
      <trkpt lat="45.07727" lon="4.89165">
        <ele>173.51300048828</ele>
        <time>2010-03-17T15:52:26Z</time>
      </trkpt>
      <trkpt lat="45.07763" lon="4.89181">
        <ele>173.75700378418</ele>
        <time>2010-03-17T15:52:34Z</time>
      </trkpt>
      <trkpt lat="45.07773" lon="4.89187">
        <ele>174.10600280762</ele>
        <time>2010-03-17T15:52:36Z</time>
      </trkpt>
      <trkpt lat="45.078" lon="4.89216">
        <ele>174.06399536133</ele>
        <time>2010-03-17T15:52:42Z</time>
      </trkpt>
      <trkpt lat="45.07816" lon="4.89239">
        <ele>174.08500671387</ele>
        <time>2010-03-17T15:52:46Z</time>
      </trkpt>
      <trkpt lat="45.07845" lon="4.89304">
        <ele>173.9049987793</ele>
        <time>2010-03-17T15:52:55Z</time>
      </trkpt>
      <trkpt lat="45.0787" lon="4.89373">
        <ele>173.11799621582</ele>
        <time>2010-03-17T15:53:04Z</time>
      </trkpt>
      <trkpt lat="45.07885" lon="4.89431">
        <ele>172.80000305176</ele>
        <time>2010-03-17T15:53:11Z</time>
      </trkpt>
      <trkpt lat="45.07893" lon="4.89495">
        <ele>173.31100463867</ele>
        <time>2010-03-17T15:53:18Z</time>
      </trkpt>
      <trkpt lat="45.07892" lon="4.89568">
        <ele>172.59300231934</ele>
        <time>2010-03-17T15:53:26Z</time>
      </trkpt>
      <trkpt lat="45.0789" lon="4.89604">
        <ele>171.86500549316</ele>
        <time>2010-03-17T15:53:30Z</time>
      </trkpt>
      <trkpt lat="45.07883" lon="4.89652">
        <ele>172.19999694824</ele>
        <time>2010-03-17T15:53:36Z</time>
      </trkpt>
      <trkpt lat="45.07878" lon="4.89703">
        <ele>173.22500610352</ele>
        <time>2010-03-17T15:53:43Z</time>
      </trkpt>
      <trkpt lat="45.07877" lon="4.89744">
        <ele>173.30200195312</ele>
        <time>2010-03-17T15:53:49Z</time>
      </trkpt>
      <trkpt lat="45.0787" lon="4.89769">
        <ele>173.75500488281</ele>
        <time>2010-03-17T15:53:53Z</time>
      </trkpt>
      <trkpt lat="45.07865" lon="4.8978">
        <ele>173.58500671387</ele>
        <time>2010-03-17T15:53:55Z</time>
      </trkpt>
      <trkpt lat="45.07836" lon="4.89829">
        <ele>174.74800109863</ele>
        <time>2010-03-17T15:54:05Z</time>
      </trkpt>
      <trkpt lat="45.07811" lon="4.89874">
        <ele>175.47999572754</ele>
        <time>2010-03-17T15:54:14Z</time>
      </trkpt>
      <trkpt lat="45.07784" lon="4.8992">
        <ele>176.52000427246</ele>
        <time>2010-03-17T15:54:24Z</time>
      </trkpt>
      <trkpt lat="45.07768" lon="4.89949">
        <ele>177.62899780273</ele>
        <time>2010-03-17T15:54:31Z</time>
      </trkpt>
      <trkpt lat="45.07751" lon="4.8998">
        <ele>177.90100097656</ele>
        <time>2010-03-17T15:54:39Z</time>
      </trkpt>
      <trkpt lat="45.07742" lon="4.90011">
        <ele>178.55700683594</ele>
        <time>2010-03-17T15:54:46Z</time>
      </trkpt>
      <trkpt lat="45.07733" lon="4.90051">
        <ele>178.88299560547</ele>
        <time>2010-03-17T15:54:54Z</time>
      </trkpt>
      <trkpt lat="45.07724" lon="4.90104">
        <ele>180.45100402832</ele>
        <time>2010-03-17T15:55:04Z</time>
      </trkpt>
      <trkpt lat="45.07722" lon="4.90154">
        <ele>181.12100219727</ele>
        <time>2010-03-17T15:55:13Z</time>
      </trkpt>
      <trkpt lat="45.07721" lon="4.90204">
        <ele>182.32699584961</ele>
        <time>2010-03-17T15:55:22Z</time>
      </trkpt>
      <trkpt lat="45.07719" lon="4.90237">
        <ele>183.34300231934</ele>
        <time>2010-03-17T15:55:28Z</time>
      </trkpt>
      <trkpt lat="45.07718" lon="4.90287">
        <ele>185.05400085449</ele>
        <time>2010-03-17T15:55:37Z</time>
      </trkpt>
      <trkpt lat="45.07712" lon="4.90336">
        <ele>186.19000244141</ele>
        <time>2010-03-17T15:55:46Z</time>
      </trkpt>
      <trkpt lat="45.07704" lon="4.90378">
        <ele>186.87699890137</ele>
        <time>2010-03-17T15:55:54Z</time>
      </trkpt>
      <trkpt lat="45.07688" lon="4.90419">
        <ele>188.83700561523</ele>
        <time>2010-03-17T15:56:03Z</time>
      </trkpt>
      <trkpt lat="45.07674" lon="4.90453">
        <ele>190.35699462891</ele>
        <time>2010-03-17T15:56:11Z</time>
      </trkpt>
      <trkpt lat="45.07659" lon="4.90487">
        <ele>191.97399902344</ele>
        <time>2010-03-17T15:56:20Z</time>
      </trkpt>
      <trkpt lat="45.07651" lon="4.90509">
        <ele>193.3450012207</ele>
        <time>2010-03-17T15:56:26Z</time>
      </trkpt>
      <trkpt lat="45.07643" lon="4.90529">
        <ele>194.43400573731</ele>
        <time>2010-03-17T15:56:32Z</time>
      </trkpt>
      <trkpt lat="45.07637" lon="4.90549">
        <ele>195.42999267578</ele>
        <time>2010-03-17T15:56:38Z</time>
      </trkpt>
      <trkpt lat="45.07633" lon="4.90573">
        <ele>196.45700073242</ele>
        <time>2010-03-17T15:56:44Z</time>
      </trkpt>
      <trkpt lat="45.07629" lon="4.90592">
        <ele>197.38600158691</ele>
        <time>2010-03-17T15:56:49Z</time>
      </trkpt>
      <trkpt lat="45.07627" lon="4.90621">
        <ele>198.3450012207</ele>
        <time>2010-03-17T15:56:55Z</time>
      </trkpt>
      <trkpt lat="45.07623" lon="4.90657">
        <ele>199.73399353027</ele>
        <time>2010-03-17T15:57:02Z</time>
      </trkpt>
      <trkpt lat="45.07621" lon="4.90697">
        <ele>200.20100402832</ele>
        <time>2010-03-17T15:57:09Z</time>
      </trkpt>
      <trkpt lat="45.07627" lon="4.90746">
        <ele>200.60200500488</ele>
        <time>2010-03-17T15:57:17Z</time>
      </trkpt>
      <trkpt lat="45.07641" lon="4.90796">
        <ele>201.43600463867</ele>
        <time>2010-03-17T15:57:25Z</time>
      </trkpt>
      <trkpt lat="45.07658" lon="4.90845">
        <ele>202.36999511719</ele>
        <time>2010-03-17T15:57:33Z</time>
      </trkpt>
      <trkpt lat="45.07672" lon="4.90889">
        <ele>203.20899963379</ele>
        <time>2010-03-17T15:57:40Z</time>
      </trkpt>
      <trkpt lat="45.07692" lon="4.90936">
        <ele>204.05799865723</ele>
        <time>2010-03-17T15:57:48Z</time>
      </trkpt>
      <trkpt lat="45.07721" lon="4.90983">
        <ele>205.02400207519</ele>
        <time>2010-03-17T15:57:57Z</time>
      </trkpt>
      <trkpt lat="45.07748" lon="4.91023">
        <ele>206.25799560547</ele>
        <time>2010-03-17T15:58:05Z</time>
      </trkpt>
      <trkpt lat="45.0778" lon="4.91072">
        <ele>207.00100708008</ele>
        <time>2010-03-17T15:58:14Z</time>
      </trkpt>
      <trkpt lat="45.07807" lon="4.91108">
        <ele>207.58299255371</ele>
        <time>2010-03-17T15:58:21Z</time>
      </trkpt>
      <trkpt lat="45.07839" lon="4.91138">
        <ele>208.61199951172</ele>
        <time>2010-03-17T15:58:28Z</time>
      </trkpt>
      <trkpt lat="45.07872" lon="4.91177">
        <ele>209.77099609375</ele>
        <time>2010-03-17T15:58:36Z</time>
      </trkpt>
      <trkpt lat="45.07878" lon="4.91187">
        <ele>210.14399719238</ele>
        <time>2010-03-17T15:58:38Z</time>
      </trkpt>
      <trkpt lat="45.0791" lon="4.91238">
        <ele>212.27699279785</ele>
        <time>2010-03-17T15:58:49Z</time>
      </trkpt>
      <trkpt lat="45.07935" lon="4.91283">
        <ele>213.70899963379</ele>
        <time>2010-03-17T15:58:59Z</time>
      </trkpt>
      <trkpt lat="45.0796" lon="4.91324">
        <ele>215.56199645996</ele>
        <time>2010-03-17T15:59:09Z</time>
      </trkpt>
      <trkpt lat="45.07983" lon="4.91354">
        <ele>216.81599426269</ele>
        <time>2010-03-17T15:59:17Z</time>
      </trkpt>
      <trkpt lat="45.08009" lon="4.91387">
        <ele>218.69200134277</ele>
        <time>2010-03-17T15:59:26Z</time>
      </trkpt>
      <trkpt lat="45.08037" lon="4.91423">
        <ele>220.48199462891</ele>
        <time>2010-03-17T15:59:36Z</time>
      </trkpt>
      <trkpt lat="45.08068" lon="4.9146">
        <ele>222.56700134277</ele>
        <time>2010-03-17T15:59:47Z</time>
      </trkpt>
      <trkpt lat="45.08091" lon="4.91481">
        <ele>224.24499511719</ele>
        <time>2010-03-17T15:59:55Z</time>
      </trkpt>
      <trkpt lat="45.08113" lon="4.91505">
        <ele>225.89100646973</ele>
        <time>2010-03-17T16:00:03Z</time>
      </trkpt>
      <trkpt lat="45.08133" lon="4.91524">
        <ele>227.27499389648</ele>
        <time>2010-03-17T16:00:10Z</time>
      </trkpt>
      <trkpt lat="45.08152" lon="4.91543">
        <ele>229.19799804688</ele>
        <time>2010-03-17T16:00:17Z</time>
      </trkpt>
      <trkpt lat="45.0817" lon="4.91569">
        <ele>230.76100158691</ele>
        <time>2010-03-17T16:00:25Z</time>
      </trkpt>
      <trkpt lat="45.08181" lon="4.91602">
        <ele>231.87699890137</ele>
        <time>2010-03-17T16:00:33Z</time>
      </trkpt>
      <trkpt lat="45.08184" lon="4.91631">
        <ele>233.27099609375</ele>
        <time>2010-03-17T16:00:40Z</time>
      </trkpt>
      <trkpt lat="45.08181" lon="4.91663">
        <ele>234.12699890137</ele>
        <time>2010-03-17T16:00:48Z</time>
      </trkpt>
      <trkpt lat="45.08176" lon="4.91684">
        <ele>235.95599365234</ele>
        <time>2010-03-17T16:00:53Z</time>
      </trkpt>
      <trkpt lat="45.0817" lon="4.91719">
        <ele>237.46499633789</ele>
        <time>2010-03-17T16:01:01Z</time>
      </trkpt>
      <trkpt lat="45.08164" lon="4.9175">
        <ele>238.06500244141</ele>
        <time>2010-03-17T16:01:08Z</time>
      </trkpt>
      <trkpt lat="45.08158" lon="4.91784">
        <ele>241.00799560547</ele>
        <time>2010-03-17T16:01:16Z</time>
      </trkpt>
      <trkpt lat="45.08154" lon="4.91809">
        <ele>242.94700622559</ele>
        <time>2010-03-17T16:01:22Z</time>
      </trkpt>
      <trkpt lat="45.08151" lon="4.91843">
        <ele>243.28799438477</ele>
        <time>2010-03-17T16:01:30Z</time>
      </trkpt>
      <trkpt lat="45.08155" lon="4.91877">
        <ele>243.80499267578</ele>
        <time>2010-03-17T16:01:37Z</time>
      </trkpt>
      <trkpt lat="45.08163" lon="4.91904">
        <ele>245.04499816894</ele>
        <time>2010-03-17T16:01:43Z</time>
      </trkpt>
      <trkpt lat="45.08178" lon="4.9194">
        <ele>245.3630065918</ele>
        <time>2010-03-17T16:01:51Z</time>
      </trkpt>
      <trkpt lat="45.08192" lon="4.91975">
        <ele>244.63400268555</ele>
        <time>2010-03-17T16:01:57Z</time>
      </trkpt>
      <trkpt lat="45.08195" lon="4.91982">
        <ele>244.48500061035</ele>
        <time>2010-03-17T16:01:58Z</time>
      </trkpt>
      <trkpt lat="45.08217" lon="4.92014">
        <ele>243.40400695801</ele>
        <time>2010-03-17T16:02:03Z</time>
      </trkpt>
      <trkpt lat="45.08251" lon="4.92036">
        <ele>241.72599792481</ele>
        <time>2010-03-17T16:02:08Z</time>
      </trkpt>
      <trkpt lat="45.08277" lon="4.92038">
        <ele>240.32899475098</ele>
        <time>2010-03-17T16:02:11Z</time>
      </trkpt>
      <trkpt lat="45.08313" lon="4.92036">
        <ele>238.77099609375</ele>
        <time>2010-03-17T16:02:15Z</time>
      </trkpt>
      <trkpt lat="45.08355" lon="4.92031">
        <ele>239.90899658203</ele>
        <time>2010-03-17T16:02:20Z</time>
      </trkpt>
      <trkpt lat="45.08376" lon="4.92023">
        <ele>240.68600463867</ele>
        <time>2010-03-17T16:02:23Z</time>
      </trkpt>
      <trkpt lat="45.08422" lon="4.92004">
        <ele>241.35800170898</ele>
        <time>2010-03-17T16:02:30Z</time>
      </trkpt>
      <trkpt lat="45.08464" lon="4.91986">
        <ele>242.24299621582</ele>
        <time>2010-03-17T16:02:37Z</time>
      </trkpt>
      <trkpt lat="45.08505" lon="4.91967">
        <ele>241.40100097656</ele>
        <time>2010-03-17T16:02:44Z</time>
      </trkpt>
      <trkpt lat="45.08537" lon="4.91954">
        <ele>241.06199645996</ele>
        <time>2010-03-17T16:02:49Z</time>
      </trkpt>
      <trkpt lat="45.08588" lon="4.91934">
        <ele>238.62800598144</ele>
        <time>2010-03-17T16:02:56Z</time>
      </trkpt>
      <trkpt lat="45.08638" lon="4.91923">
        <ele>236.4640045166</ele>
        <time>2010-03-17T16:03:02Z</time>
      </trkpt>
      <trkpt lat="45.08693" lon="4.91918">
        <ele>234.5299987793</ele>
        <time>2010-03-17T16:03:08Z</time>
      </trkpt>
      <trkpt lat="45.08773" lon="4.91912">
        <ele>232.42900085449</ele>
        <time>2010-03-17T16:03:16Z</time>
      </trkpt>
      <trkpt lat="45.08837" lon="4.91907">
        <ele>230.0119934082</ele>
        <time>2010-03-17T16:03:22Z</time>
      </trkpt>
      <trkpt lat="45.0887" lon="4.91904">
        <ele>228.33500671387</ele>
        <time>2010-03-17T16:03:25Z</time>
      </trkpt>
      <trkpt lat="45.08957" lon="4.91888">
        <ele>225.29899597168</ele>
        <time>2010-03-17T16:03:33Z</time>
      </trkpt>
      <trkpt lat="45.09032" lon="4.91871">
        <ele>222.32499694824</ele>
        <time>2010-03-17T16:03:40Z</time>
      </trkpt>
      <trkpt lat="45.09086" lon="4.91854">
        <ele>219.79699707031</ele>
        <time>2010-03-17T16:03:45Z</time>
      </trkpt>
      <trkpt lat="45.09168" lon="4.91825">
        <ele>214.26400756836</ele>
        <time>2010-03-17T16:03:52Z</time>
      </trkpt>
      <trkpt lat="45.09218" lon="4.91808">
        <ele>210.22200012207</ele>
        <time>2010-03-17T16:03:56Z</time>
      </trkpt>
      <trkpt lat="45.09272" lon="4.9181">
        <ele>207.02299499512</ele>
        <time>2010-03-17T16:04:00Z</time>
      </trkpt>
      <trkpt lat="45.09286" lon="4.91814">
        <ele>206.35699462891</ele>
        <time>2010-03-17T16:04:01Z</time>
      </trkpt>
      <trkpt lat="45.09419" lon="4.91862">
        <ele>198.31399536133</ele>
        <time>2010-03-17T16:04:11Z</time>
      </trkpt>
      <trkpt lat="45.09472" lon="4.91881">
        <ele>196.03999328613</ele>
        <time>2010-03-17T16:04:15Z</time>
      </trkpt>
      <trkpt lat="45.09512" lon="4.9189">
        <ele>195.73899841309</ele>
        <time>2010-03-17T16:04:18Z</time>
      </trkpt>
      <trkpt lat="45.09586" lon="4.91884">
        <ele>194.05299377441</ele>
        <time>2010-03-17T16:04:24Z</time>
      </trkpt>
      <trkpt lat="45.0968" lon="4.91868">
        <ele>192.54499816894</ele>
        <time>2010-03-17T16:04:32Z</time>
      </trkpt>
      <trkpt lat="45.09772" lon="4.91852">
        <ele>190.20399475098</ele>
        <time>2010-03-17T16:04:40Z</time>
      </trkpt>
      <trkpt lat="45.09874" lon="4.91832">
        <ele>189.54899597168</ele>
        <time>2010-03-17T16:04:49Z</time>
      </trkpt>
      <trkpt lat="45.09949" lon="4.91818">
        <ele>189.03500366211</ele>
        <time>2010-03-17T16:04:56Z</time>
      </trkpt>
      <trkpt lat="45.09971" lon="4.91813">
        <ele>187.93099975586</ele>
        <time>2010-03-17T16:04:58Z</time>
      </trkpt>
      <trkpt lat="45.10076" lon="4.91794">
        <ele>187.55099487305</ele>
        <time>2010-03-17T16:05:08Z</time>
      </trkpt>
      <trkpt lat="45.10166" lon="4.9178">
        <ele>187.79699707031</ele>
        <time>2010-03-17T16:05:17Z</time>
      </trkpt>
      <trkpt lat="45.10259" lon="4.91767">
        <ele>188.35099792481</ele>
        <time>2010-03-17T16:05:27Z</time>
      </trkpt>
      <trkpt lat="45.10285" lon="4.91764">
        <ele>188.39700317383</ele>
        <time>2010-03-17T16:05:30Z</time>
      </trkpt>
      <trkpt lat="45.10308" lon="4.91772">
        <ele>189.45799255371</ele>
        <time>2010-03-17T16:05:33Z</time>
      </trkpt>
      <trkpt lat="45.10321" lon="4.918">
        <ele>189.20100402832</ele>
        <time>2010-03-17T16:05:36Z</time>
      </trkpt>
      <trkpt lat="45.10343" lon="4.91921">
        <ele>187.10600280762</ele>
        <time>2010-03-17T16:05:47Z</time>
      </trkpt>
      <trkpt lat="45.10358" lon="4.92011">
        <ele>186.52200317383</ele>
        <time>2010-03-17T16:05:55Z</time>
      </trkpt>
      <trkpt lat="45.10372" lon="4.9209">
        <ele>185.61599731445</ele>
        <time>2010-03-17T16:06:02Z</time>
      </trkpt>
      <trkpt lat="45.10386" lon="4.92167">
        <ele>184.71899414062</ele>
        <time>2010-03-17T16:06:09Z</time>
      </trkpt>
      <trkpt lat="45.10397" lon="4.92239">
        <ele>186.0359954834</ele>
        <time>2010-03-17T16:06:16Z</time>
      </trkpt>
      <trkpt lat="45.10414" lon="4.92335">
        <ele>185.58099365234</ele>
        <time>2010-03-17T16:06:26Z</time>
      </trkpt>
      <trkpt lat="45.10426" lon="4.92406">
        <ele>186.39599609375</ele>
        <time>2010-03-17T16:06:34Z</time>
      </trkpt>
      <trkpt lat="45.10436" lon="4.92459">
        <ele>187.23399353027</ele>
        <time>2010-03-17T16:06:41Z</time>
      </trkpt>
      <trkpt lat="45.10444" lon="4.92504">
        <ele>188.90899658203</ele>
        <time>2010-03-17T16:06:48Z</time>
      </trkpt>
      <trkpt lat="45.10453" lon="4.92557">
        <ele>189.72099304199</ele>
        <time>2010-03-17T16:06:56Z</time>
      </trkpt>
      <trkpt lat="45.1046" lon="4.92596">
        <ele>189.56300354004</ele>
        <time>2010-03-17T16:07:02Z</time>
      </trkpt>
      <trkpt lat="45.10464" lon="4.92621">
        <ele>189.89700317383</ele>
        <time>2010-03-17T16:07:06Z</time>
      </trkpt>
      <trkpt lat="45.10477" lon="4.92687">
        <ele>190.03799438477</ele>
        <time>2010-03-17T16:07:16Z</time>
      </trkpt>
      <trkpt lat="45.10486" lon="4.92731">
        <ele>190.20500183106</ele>
        <time>2010-03-17T16:07:22Z</time>
      </trkpt>
      <trkpt lat="45.10495" lon="4.92772">
        <ele>189.82800292969</ele>
        <time>2010-03-17T16:07:28Z</time>
      </trkpt>
      <trkpt lat="45.10497" lon="4.92779">
        <ele>189.67300415039</ele>
        <time>2010-03-17T16:07:29Z</time>
      </trkpt>
      <trkpt lat="45.10506" lon="4.92833">
        <ele>190.27299499512</ele>
        <time>2010-03-17T16:07:37Z</time>
      </trkpt>
      <trkpt lat="45.10516" lon="4.92884">
        <ele>190.62399291992</ele>
        <time>2010-03-17T16:07:44Z</time>
      </trkpt>
      <trkpt lat="45.10526" lon="4.92937">
        <ele>190.61099243164</ele>
        <time>2010-03-17T16:07:51Z</time>
      </trkpt>
      <trkpt lat="45.10542" lon="4.93019">
        <ele>191.36500549316</ele>
        <time>2010-03-17T16:08:02Z</time>
      </trkpt>
      <trkpt lat="45.10554" lon="4.93079">
        <ele>191.46499633789</ele>
        <time>2010-03-17T16:08:10Z</time>
      </trkpt>
      <trkpt lat="45.10566" lon="4.93142">
        <ele>191.76600646973</ele>
        <time>2010-03-17T16:08:19Z</time>
      </trkpt>
      <trkpt lat="45.10577" lon="4.932">
        <ele>192.22999572754</ele>
        <time>2010-03-17T16:08:27Z</time>
      </trkpt>
      <trkpt lat="45.1059" lon="4.93262">
        <ele>193.95799255371</ele>
        <time>2010-03-17T16:08:36Z</time>
      </trkpt>
      <trkpt lat="45.10598" lon="4.93307">
        <ele>194.35800170898</ele>
        <time>2010-03-17T16:08:43Z</time>
      </trkpt>
      <trkpt lat="45.10606" lon="4.93351">
        <ele>195.35200500488</ele>
        <time>2010-03-17T16:08:50Z</time>
      </trkpt>
      <trkpt lat="45.10614" lon="4.93388">
        <ele>195.86599731445</ele>
        <time>2010-03-17T16:08:56Z</time>
      </trkpt>
      <trkpt lat="45.10625" lon="4.93447">
        <ele>196.59300231934</ele>
        <time>2010-03-17T16:09:06Z</time>
      </trkpt>
      <trkpt lat="45.10632" lon="4.93488">
        <ele>197.51100158691</ele>
        <time>2010-03-17T16:09:14Z</time>
      </trkpt>
      <trkpt lat="45.1064" lon="4.93527">
        <ele>200.4940032959</ele>
        <time>2010-03-17T16:09:22Z</time>
      </trkpt>
      <trkpt lat="45.10645" lon="4.93556">
        <ele>201.56799316406</ele>
        <time>2010-03-17T16:09:28Z</time>
      </trkpt>
      <trkpt lat="45.1065" lon="4.93583">
        <ele>203.65600585938</ele>
        <time>2010-03-17T16:09:34Z</time>
      </trkpt>
      <trkpt lat="45.10658" lon="4.93626">
        <ele>205.63400268555</ele>
        <time>2010-03-17T16:09:44Z</time>
      </trkpt>
      <trkpt lat="45.10662" lon="4.93651">
        <ele>206.57899475098</ele>
        <time>2010-03-17T16:09:50Z</time>
      </trkpt>
      <trkpt lat="45.10665" lon="4.9368">
        <ele>208.14199829102</ele>
        <time>2010-03-17T16:09:57Z</time>
      </trkpt>
      <trkpt lat="45.10669" lon="4.93711">
        <ele>210.06799316406</ele>
        <time>2010-03-17T16:10:04Z</time>
      </trkpt>
      <trkpt lat="45.10672" lon="4.93745">
        <ele>211.24899291992</ele>
        <time>2010-03-17T16:10:11Z</time>
      </trkpt>
      <trkpt lat="45.10676" lon="4.9377">
        <ele>211.89399719238</ele>
        <time>2010-03-17T16:10:16Z</time>
      </trkpt>
      <trkpt lat="45.10678" lon="4.93796">
        <ele>211.53199768066</ele>
        <time>2010-03-17T16:10:21Z</time>
      </trkpt>
      <trkpt lat="45.10685" lon="4.93853">
        <ele>212.7380065918</ele>
        <time>2010-03-17T16:10:31Z</time>
      </trkpt>
      <trkpt lat="45.10686" lon="4.93864">
        <ele>213.82699584961</ele>
        <time>2010-03-17T16:10:33Z</time>
      </trkpt>
      <trkpt lat="45.10694" lon="4.93888">
        <ele>213.15899658203</ele>
        <time>2010-03-17T16:10:38Z</time>
      </trkpt>
      <trkpt lat="45.10696" lon="4.93897">
        <ele>213.52499389648</ele>
        <time>2010-03-17T16:10:42Z</time>
      </trkpt>
      <trkpt lat="45.10696" lon="4.93897">
        <ele>213.65899658203</ele>
        <time>2010-03-17T16:10:43Z</time>
      </trkpt>
      <trkpt lat="45.10695" lon="4.93909">
        <ele>213.18600463867</ele>
        <time>2010-03-17T16:10:48Z</time>
      </trkpt>
      <trkpt lat="45.10695" lon="4.93926">
        <ele>213.00799560547</ele>
        <time>2010-03-17T16:10:51Z</time>
      </trkpt>
      <trkpt lat="45.10703" lon="4.93975">
        <ele>212.48899841309</ele>
        <time>2010-03-17T16:10:58Z</time>
      </trkpt>
      <trkpt lat="45.10715" lon="4.94024">
        <ele>211.1369934082</ele>
        <time>2010-03-17T16:11:04Z</time>
      </trkpt>
      <trkpt lat="45.10731" lon="4.94066">
        <ele>210.17900085449</ele>
        <time>2010-03-17T16:11:09Z</time>
      </trkpt>
      <trkpt lat="45.10751" lon="4.94107">
        <ele>209.25300598144</ele>
        <time>2010-03-17T16:11:14Z</time>
      </trkpt>
      <trkpt lat="45.10788" lon="4.94165">
        <ele>208.01400756836</ele>
        <time>2010-03-17T16:11:21Z</time>
      </trkpt>
      <trkpt lat="45.10847" lon="4.94235">
        <ele>207.96000671387</ele>
        <time>2010-03-17T16:11:30Z</time>
      </trkpt>
      <trkpt lat="45.10897" lon="4.94292">
        <ele>208.51499938965</ele>
        <time>2010-03-17T16:11:38Z</time>
      </trkpt>
      <trkpt lat="45.10902" lon="4.94299">
        <ele>208.50500488281</ele>
        <time>2010-03-17T16:11:39Z</time>
      </trkpt>
      <trkpt lat="45.10921" lon="4.94346">
        <ele>208.81300354004</ele>
        <time>2010-03-17T16:11:44Z</time>
      </trkpt>
      <trkpt lat="45.10922" lon="4.94356">
        <ele>208.85800170898</ele>
        <time>2010-03-17T16:11:45Z</time>
      </trkpt>
      <trkpt lat="45.10928" lon="4.94452">
        <ele>208.24000549316</ele>
        <time>2010-03-17T16:11:54Z</time>
      </trkpt>
      <trkpt lat="45.10931" lon="4.94556">
        <ele>208.20199584961</ele>
        <time>2010-03-17T16:12:04Z</time>
      </trkpt>
      <trkpt lat="45.10924" lon="4.94623">
        <ele>207.90299987793</ele>
        <time>2010-03-17T16:12:11Z</time>
      </trkpt>
      <trkpt lat="45.10909" lon="4.94684">
        <ele>209.25799560547</ele>
        <time>2010-03-17T16:12:18Z</time>
      </trkpt>
      <trkpt lat="45.10891" lon="4.94744">
        <ele>208.04899597168</ele>
        <time>2010-03-17T16:12:25Z</time>
      </trkpt>
      <trkpt lat="45.10876" lon="4.94794">
        <ele>208.28799438477</ele>
        <time>2010-03-17T16:12:31Z</time>
      </trkpt>
      <trkpt lat="45.10866" lon="4.94824">
        <ele>207.57499694824</ele>
        <time>2010-03-17T16:12:35Z</time>
      </trkpt>
      <trkpt lat="45.10861" lon="4.94845">
        <ele>207.60499572754</ele>
        <time>2010-03-17T16:12:38Z</time>
      </trkpt>
      <trkpt lat="45.1086" lon="4.94879">
        <ele>206.89500427246</ele>
        <time>2010-03-17T16:12:42Z</time>
      </trkpt>
      <trkpt lat="45.10858" lon="4.94919">
        <ele>204.24899291992</ele>
        <time>2010-03-17T16:12:46Z</time>
      </trkpt>
      <trkpt lat="45.10857" lon="4.94953">
        <ele>202.67999267578</ele>
        <time>2010-03-17T16:12:49Z</time>
      </trkpt>
      <trkpt lat="45.10853" lon="4.95004">
        <ele>198.53199768066</ele>
        <time>2010-03-17T16:12:53Z</time>
      </trkpt>
      <trkpt lat="45.10852" lon="4.95046">
        <ele>196.96099853516</ele>
        <time>2010-03-17T16:12:56Z</time>
      </trkpt>
      <trkpt lat="45.10855" lon="4.95121">
        <ele>192.93299865723</ele>
        <time>2010-03-17T16:13:01Z</time>
      </trkpt>
      <trkpt lat="45.10869" lon="4.95183">
        <ele>190.37699890137</ele>
        <time>2010-03-17T16:13:05Z</time>
      </trkpt>
      <trkpt lat="45.10873" lon="4.95196">
        <ele>190.37300109863</ele>
        <time>2010-03-17T16:13:06Z</time>
      </trkpt>
      <trkpt lat="45.10878" lon="4.95231">
        <ele>189.40899658203</ele>
        <time>2010-03-17T16:13:09Z</time>
      </trkpt>
      <trkpt lat="45.10876" lon="4.95241">
        <ele>189.26699829102</ele>
        <time>2010-03-17T16:13:10Z</time>
      </trkpt>
      <trkpt lat="45.1088" lon="4.95268">
        <ele>189.71299743652</ele>
        <time>2010-03-17T16:13:13Z</time>
      </trkpt>
      <trkpt lat="45.1089" lon="4.95283">
        <ele>189.3630065918</ele>
        <time>2010-03-17T16:13:15Z</time>
      </trkpt>
      <trkpt lat="45.10916" lon="4.95322">
        <ele>189.75399780273</ele>
        <time>2010-03-17T16:13:20Z</time>
      </trkpt>
      <trkpt lat="45.10939" lon="4.95393">
        <ele>189.20599365234</ele>
        <time>2010-03-17T16:13:27Z</time>
      </trkpt>
      <trkpt lat="45.10957" lon="4.95476">
        <ele>188.9640045166</ele>
        <time>2010-03-17T16:13:35Z</time>
      </trkpt>
      <trkpt lat="45.10975" lon="4.95528">
        <ele>189.22399902344</ele>
        <time>2010-03-17T16:13:41Z</time>
      </trkpt>
      <trkpt lat="45.10994" lon="4.95568">
        <ele>190.19099426269</ele>
        <time>2010-03-17T16:13:46Z</time>
      </trkpt>
      <trkpt lat="45.11027" lon="4.95617">
        <ele>191.59100341797</ele>
        <time>2010-03-17T16:13:53Z</time>
      </trkpt>
      <trkpt lat="45.11066" lon="4.95658">
        <ele>191.56500244141</ele>
        <time>2010-03-17T16:14:00Z</time>
      </trkpt>
      <trkpt lat="45.1111" lon="4.95702">
        <ele>191.27000427246</ele>
        <time>2010-03-17T16:14:07Z</time>
      </trkpt>
      <trkpt lat="45.11121" lon="4.95719">
        <ele>190.54100036621</ele>
        <time>2010-03-17T16:14:09Z</time>
      </trkpt>
      <trkpt lat="45.1115" lon="4.95776">
        <ele>190.96099853516</ele>
        <time>2010-03-17T16:14:15Z</time>
      </trkpt>
      <trkpt lat="45.11187" lon="4.95836">
        <ele>190.34399414062</ele>
        <time>2010-03-17T16:14:22Z</time>
      </trkpt>
      <trkpt lat="45.11226" lon="4.95892">
        <ele>189.90699768066</ele>
        <time>2010-03-17T16:14:29Z</time>
      </trkpt>
      <trkpt lat="45.11266" lon="4.95954">
        <ele>190.61099243164</ele>
        <time>2010-03-17T16:14:37Z</time>
      </trkpt>
      <trkpt lat="45.11304" lon="4.96021">
        <ele>192.49600219727</ele>
        <time>2010-03-17T16:14:46Z</time>
      </trkpt>
      <trkpt lat="45.11335" lon="4.96071">
        <ele>193.13000488281</ele>
        <time>2010-03-17T16:14:53Z</time>
      </trkpt>
      <trkpt lat="45.11373" lon="4.96141">
        <ele>194.09300231934</ele>
        <time>2010-03-17T16:15:02Z</time>
      </trkpt>
      <trkpt lat="45.11419" lon="4.96235">
        <ele>195.38600158691</ele>
        <time>2010-03-17T16:15:14Z</time>
      </trkpt>
      <trkpt lat="45.11457" lon="4.96306">
        <ele>195.5</ele>
        <time>2010-03-17T16:15:23Z</time>
      </trkpt>
      <trkpt lat="45.11498" lon="4.96369">
        <ele>194.40899658203</ele>
        <time>2010-03-17T16:15:31Z</time>
      </trkpt>
      <trkpt lat="45.11529" lon="4.96417">
        <ele>193.45199584961</ele>
        <time>2010-03-17T16:15:37Z</time>
      </trkpt>
      <trkpt lat="45.11564" lon="4.96469">
        <ele>193.23899841309</ele>
        <time>2010-03-17T16:15:44Z</time>
      </trkpt>
      <trkpt lat="45.11572" lon="4.96482">
        <ele>193.25</ele>
        <time>2010-03-17T16:15:46Z</time>
      </trkpt>
      <trkpt lat="45.11585" lon="4.96484">
        <ele>193.94799804688</ele>
        <time>2010-03-17T16:15:50Z</time>
      </trkpt>
      <trkpt lat="45.11586" lon="4.96473">
        <ele>193.89100646973</ele>
        <time>2010-03-17T16:15:53Z</time>
      </trkpt>
      <trkpt lat="45.11586" lon="4.96452">
        <ele>194.81500244141</ele>
        <time>2010-03-17T16:15:59Z</time>
      </trkpt>
      <trkpt lat="45.11578" lon="4.96451">
        <ele>194.10600280762</ele>
        <time>2010-03-17T16:16:05Z</time>
      </trkpt>
      <trkpt lat="45.11571" lon="4.96452">
        <ele>193.68200683594</ele>
        <time>2010-03-17T16:16:09Z</time>
      </trkpt>
      <trkpt lat="45.11569" lon="4.96449">
        <ele>193.84300231934</ele>
        <time>2010-03-17T16:16:10Z</time>
      </trkpt>
      <trkpt lat="45.11565" lon="4.96443">
        <ele>193.77499389648</ele>
        <time>2010-03-17T16:16:12Z</time>
      </trkpt>
      <trkpt lat="45.11567" lon="4.96429">
        <ele>195.5890045166</ele>
        <time>2010-03-17T16:16:16Z</time>
      </trkpt>
      <trkpt lat="45.11568" lon="4.96428">
        <ele>195.69099426269</ele>
        <time>2010-03-17T16:16:17Z</time>
      </trkpt>
      <trkpt lat="45.1157" lon="4.96427">
        <ele>195.53500366211</ele>
        <time>2010-03-17T16:16:20Z</time>
      </trkpt>
      <trkpt lat="45.1157" lon="4.96427">
        <ele>195.47999572754</ele>
        <time>2010-03-17T16:16:23Z</time>
      </trkpt>
      <trkpt lat="45.1157" lon="4.96427">
        <ele>195.46899414062</ele>
        <time>2010-03-17T16:16:24Z</time>
      </trkpt>
    </trkseg>
  </trk>
</gpx>